[[{"header":{"parameterUnit":"m.s-1","parameterCategory":1,"la1":31.0,"la2":29.5877,"lo1":-88.7671,"lo2":-86.6584,"dx":0.0162,"dy":0.0185,"nx":115,"ny":88,"refTime":"2023-02-06T18:00:00:Z","depth":0,"parameterNumber":2,"parameterNumberName":"U-component_of_WINDS"},"data":[0.0,0.0,0.0,0.0,0.0,0.0,0.0,0.0,0.0,0.0,0.0,0.0,0.0,0.0,0.0,0.0,0.0,0.0,0.0,0.0,0.0,0.0,0.0,0.0,0.0,0.0,0.0,0.0,0.0,0.0,0.0,0.0,0.0,0.0,0.0,0.0,0.0,0.0,0.0,0.0,0.0,0.0,0.0,0.0,0.0,0.0,0.0,0.0,0.0,0.0,0.0,0.0,0.0,0.0,0.0,0.0,0.0,0.0,0.0,0.0,0.0,0.0,0.0,0.0,0.0,0.0,0.0,0.0,0.0,0.0,0.0,0.0,0.0,0.0,0.0,0.0,0.0,0.0,0.0,0.0,0.0,0.0,0.0,0.0,0.0,0.0,0.0,0.0,0.0,0.0,0.0,0.0,0.0,0.0,0.0,0.0,0.0,0.0,0.0,0.0,0.0,0.0,0.0,0.0,0.0,0.0,0.0,0.0,0.0,0.0,0.0,0.0,0.0,0.0,0.0,0.0,0.0,0.0,0.0,0.0,0.0,0.0,0.0,0.0,0.0,0.0,0.0,0.0,0.0,0.0,0.0,0.0,0.0,0.0,0.0,0.0,0.0,0.0,0.0,0.0,0.0,0.0,0.0,0.0,0.0,0.0,0.0,0.0,0.0,0.0,0.0,0.0,0.0,0.0,0.0,0.0,0.0,0.0,0.0,0.0,0.0,0.0,0.0,0.0,0.0,0.0,0.0,0.0,0.0,0.0,0.0,0.0,0.0,0.0,0.0,0.0,0.0,0.0,0.0,0.0,0.0,0.0,0.0,0.0,0.0,0.0,0.0,0.0,0.0,0.0,0.0,0.0,0.0,0.0,0.0,0.0,0.0,0.0,0.0,0.0,0.0,0.0,0.0,0.0,0.0,0.0,0.0,0.0,0.0,0.0,0.0,0.0,0.0,0.0,0.0,0.0,0.0,0.0,0.0,0.0,0.0,0.0,0.0,0.0,0.0,0.0,0.0,0.0,0.0,0.0,0.0,0.0,0.0,0.0,0.0,0.0,0.0,0.0,0.0,0.0,0.0,0.0,0.0,0.0,0.0,0.0,0.0,0.0,0.0,0.0,0.0,0.0,0.0,0.0,0.0,0.0,0.0,0.0,0.0,0.0,0.0,0.0,0.0,0.0,0.0,0.0,0.0,0.0,0.0,0.0,0.0,0.0,0.0,0.0,0.0,0.0,0.0,0.0,0.0,0.0,0.0,0.0,0.0,0.0,0.0,0.0,0.0,0.0,0.0,0.0,0.0,0.0,0.0,0.0,0.0,0.0,0.0,0.0,0.0,0.0,0.0,0.0,0.0,0.0,0.0,0.0,0.0,0.0,0.0,0.0,0.0,0.0,0.0,0.0,0.0,0.0,0.0,0.0,0.0,0.0,0.0,0.0,0.0,0.0,0.0,0.0,0.0,0.0,0.0,0.0,0.0,0.0,0.0,0.0,0.0,0.0,0.0,0.0,0.0,0.0,0.0,0.0,0.0,0.0,0.0,0.0,0.0,0.0,0.0,0.0,0.0,0.0,0.0,0.0,0.0,0.0,0.0,0.0,0.0,0.0,0.0,0.0,0.0,0.0,0.0,0.0,0.0,0.0,0.0,0.0,0.0,0.0,0.0,0.0,0.0,0.0,0.0,0.0,0.0,0.0,0.0,0.0,0.0,0.0,0.0,0.0,0.0,0.0,0.0,0.0,0.0,0.0,0.0,0.0,0.0,0.0,0.0,0.0,0.0,0.0,0.0,0.0,0.0,0.0,0.0,0.0,0.0,0.0,0.0,0.0,0.0,0.0,0.0,0.0,0.0,0.0,0.0,0.0,0.0,0.0,0.0,0.0,0.0,0.0,0.0,0.0,0.0,0.0,0.0,0.0,0.0,0.0,0.0,0.0,0.0,0.0,0.0,0.0,0.0,0.0,0.0,0.0,0.0,0.0,0.0,0.0,0.0,0.0,0.0,0.0,0.0,0.0,0.0,0.0,0.0,0.0,0.0,0.0,0.0,0.0,0.0,0.0,0.0,0.0,0.0,0.0,0.0,0.0,0.0,0.0,0.0,0.0,0.0,0.0,0.0,0.0,0.0,0.0,0.0,0.0,0.0,0.0,0.0,0.0,0.0,0.0,0.0,0.0,0.0,0.0,0.0,0.0,0.0,0.0,0.0,0.0,0.0,0.0,0.0,0.0,0.0,0.0,0.0,0.0,0.0,0.0,0.0,0.0,0.0,0.0,0.0,0.0,0.0,0.0,0.0,0.0,0.0,0.0,0.0,0.0,0.0,0.0,0.0,0.0,0.0,0.0,0.0,0.0,0.0,0.0,0.0,0.0,0.0,0.0,0.0,0.0,0.0,0.0,0.0,0.0,0.0,0.0,0.0,0.0,0.0,0.0,0.0,0.0,0.0,0.0,0.0,0.0,0.0,0.0,0.0,0.0,0.0,0.0,0.0,0.0,0.0,0.0,0.0,0.0,0.0,0.0,0.0,0.0,0.0,0.0,0.0,0.0,0.0,0.0,0.0,0.0,0.0,0.0,0.0,0.0,0.0,0.0,0.0,0.0,0.0,0.0,0.0,0.0,0.0,0.0,0.0,0.0,0.0,0.0,0.0,0.0,0.0,0.0,0.0,0.0,0.0,0.0,0.0,0.0,0.0,0.0,0.0,0.0,0.0,0.0,0.0,0.0,0.0,0.0,0.0,0.0,0.0,0.0,0.0,0.0,0.0,0.0,0.0,0.0,0.0,0.0,0.0,0.0,0.0,0.0,0.0,0.0,0.0,0.0,0.0,0.0,0.0,0.0,0.0,0.0,0.0,0.0,0.0,0.0,0.0,0.0,0.0,0.0,0.0,0.0,0.0,0.0,0.0,0.0,0.0,0.0,0.0,0.0,0.0,0.0,0.0,0.0,0.0,0.0,0.0,0.0,0.0,0.0,0.0,0.0,0.0,0.0,0.0,0.0,0.0,0.0,0.0,0.0,0.0,0.0,0.0,0.0,0.0,0.0,0.0,0.0,0.0,0.0,0.0,0.0,0.0,0.0,0.0,0.0,0.0,0.0,0.0,0.0,0.0,0.0,0.0,0.0,0.0,0.0,0.0,0.0,0.0,0.0,0.0,0.0,0.0,0.0,0.0,0.0,0.0,0.0,0.0,0.0,0.0,0.0,0.0,0.0,0.0,0.0,0.0,0.0,0.0,0.0,0.0,0.0,0.0,0.0,0.0,0.0,0.0,0.0,0.0,0.0,0.0,0.0,0.0,0.0,0.0,0.0,0.0,0.0,0.0,0.0,0.0,0.0,0.0,0.0,0.0,0.0,0.0,0.0,0.0,0.0,0.0,0.0,0.0,0.0,0.0,0.0,0.0,0.0,0.0,0.0,0.0,0.0,0.0,0.0,0.0,0.0,0.0,0.0,0.0,0.0,0.0,0.0,0.0,0.0,0.0,0.0,0.0,0.0,0.0,0.0,0.0,0.0,0.0,0.0,0.0,0.0,0.0,0.0,0.0,0.0,0.0,0.0,0.0,0.0,0.0,0.0,0.0,0.0,0.0,0.0,0.0,0.0,0.0,0.0,0.0,0.0,0.0,0.0,0.0,0.0,0.0,0.0,0.0,0.0,0.0,0.0,0.0,0.0,0.0,0.0,0.0,0.0,0.0,0.0,0.0,0.0,0.0,0.0,0.0,0.0,0.0,0.0,0.0,0.0,0.0,0.0,0.0,0.0,0.0,0.0,0.0,0.0,0.0,0.0,0.0,0.0,0.0,0.0,0.0,0.0,0.0,0.0,0.0,0.0,0.0,0.0,0.0,0.0,0.0,0.0,0.0,0.0,0.0,0.0,0.0,0.0,0.0,0.0,0.0,0.0,0.0,0.0,0.0,0.0,0.0,0.0,0.0,0.0,0.0,0.0,0.0,0.0,0.0,0.0,0.0,0.0,0.0,0.0,0.0,0.0,0.0,0.0,0.0,0.0,0.0,0.0,0.0,0.0,0.0,0.0,0.0,0.0,0.0,0.0,0.0,0.0,0.0,0.0,0.0,0.0,0.0,0.0,0.0,0.0,0.0,0.0,0.0,0.0,0.0,0.0,0.0,0.0,0.0,0.0,0.0,0.0,0.0,0.0,0.0,0.0,0.0,0.0,0.0,0.0,0.0,0.0,0.0,0.0,0.0,0.0,0.0,0.0,0.0,0.0,0.0,0.0,0.0,0.0,0.0,0.0,0.0,0.0,0.0,0.0,0.0,0.0,0.0,0.0,-7.7062,0.0,0.0,0.0,0.0,0.0,0.0,0.0,0.0,0.0,0.0,0.0,0.0,0.0,0.0,0.0,0.0,0.0,0.0,0.0,0.0,0.0,0.0,0.0,0.0,0.0,0.0,0.0,0.0,0.0,0.0,0.0,0.0,0.0,0.0,0.0,0.0,0.0,0.0,0.0,0.0,0.0,0.0,0.0,0.0,0.0,0.0,0.0,0.0,0.0,0.0,0.0,0.0,0.0,0.0,0.0,0.0,0.0,0.0,0.0,0.0,0.0,0.0,0.0,0.0,0.0,0.0,0.0,0.0,0.0,0.0,0.0,0.0,0.0,0.0,0.0,0.0,0.0,0.0,0.0,0.0,0.0,0.0,0.0,0.0,0.0,0.0,0.0,0.0,0.0,0.0,0.0,0.0,0.0,0.0,0.0,0.0,0.0,0.0,0.0,0.0,0.0,0.0,0.0,0.0,0.0,0.0,0.0,0.0,0.0,0.0,-7.6858,-7.6921,-7.7012,-7.7071,-7.7036,0.0,0.0,0.0,0.0,0.0,0.0,0.0,0.0,0.0,0.0,0.0,0.0,0.0,0.0,0.0,0.0,0.0,0.0,0.0,0.0,0.0,0.0,0.0,0.0,0.0,0.0,0.0,0.0,0.0,0.0,0.0,0.0,0.0,0.0,0.0,0.0,0.0,0.0,0.0,0.0,0.0,0.0,0.0,0.0,0.0,0.0,0.0,0.0,0.0,0.0,0.0,0.0,0.0,0.0,0.0,0.0,0.0,0.0,0.0,0.0,0.0,0.0,0.0,0.0,0.0,0.0,0.0,0.0,0.0,0.0,0.0,0.0,0.0,0.0,0.0,0.0,0.0,0.0,0.0,0.0,0.0,0.0,0.0,0.0,0.0,0.0,0.0,0.0,0.0,0.0,0.0,0.0,0.0,0.0,0.0,0.0,0.0,0.0,0.0,0.0,0.0,0.0,0.0,0.0,0.0,0.0,0.0,0.0,0.0,0.0,0.0,0.0,-7.6663,-7.67,-7.6708,0.0,0.0,0.0,0.0,0.0,0.0,0.0,0.0,0.0,0.0,0.0,0.0,0.0,0.0,0.0,0.0,0.0,0.0,0.0,0.0,0.0,0.0,0.0,0.0,0.0,0.0,0.0,0.0,0.0,0.0,0.0,0.0,0.0,0.0,0.0,0.0,0.0,0.0,0.0,0.0,0.0,0.0,0.0,0.0,0.0,0.0,0.0,0.0,0.0,0.0,0.0,0.0,0.0,0.0,0.0,0.0,0.0,0.0,0.0,0.0,0.0,0.0,0.0,0.0,0.0,0.0,0.0,0.0,0.0,0.0,0.0,0.0,0.0,0.0,0.0,0.0,0.0,0.0,0.0,0.0,0.0,0.0,0.0,0.0,0.0,0.0,0.0,0.0,0.0,0.0,0.0,0.0,0.0,0.0,0.0,0.0,0.0,0.0,0.0,0.0,0.0,0.0,0.0,0.0,0.0,0.0,0.0,0.0,0.0,0.0,-7.6462,-7.5752,-7.5806,0.0,-7.5924,0.0,0.0,0.0,0.0,0.0,0.0,0.0,0.0,0.0,0.0,0.0,0.0,0.0,0.0,0.0,0.0,0.0,0.0,0.0,0.0,0.0,0.0,0.0,0.0,0.0,0.0,0.0,0.0,0.0,0.0,0.0,0.0,0.0,0.0,0.0,0.0,0.0,0.0,0.0,0.0,0.0,0.0,0.0,0.0,0.0,0.0,0.0,0.0,0.0,0.0,0.0,0.0,0.0,0.0,0.0,0.0,0.0,0.0,0.0,0.0,0.0,0.0,0.0,0.0,0.0,0.0,0.0,0.0,0.0,0.0,0.0,0.0,0.0,0.0,0.0,0.0,0.0,0.0,0.0,0.0,0.0,0.0,0.0,0.0,0.0,0.0,0.0,0.0,0.0,0.0,0.0,0.0,0.0,0.0,0.0,0.0,0.0,0.0,0.0,0.0,0.0,0.0,0.0,0.0,0.0,0.0,0.0,0.0,0.0,0.0,-7.6402,-7.5612,-7.5206,-7.5269,0.0,0.0,0.0,0.0,0.0,0.0,0.0,0.0,0.0,0.0,0.0,0.0,0.0,0.0,0.0,0.0,0.0,0.0,0.0,0.0,0.0,0.0,0.0,0.0,0.0,0.0,0.0,0.0,0.0,0.0,0.0,0.0,0.0,0.0,0.0,0.0,0.0,0.0,0.0,0.0,0.0,0.0,0.0,0.0,0.0,0.0,0.0,0.0,0.0,0.0,0.0,0.0,0.0,0.0,0.0,0.0,0.0,0.0,0.0,0.0,0.0,0.0,0.0,0.0,0.0,0.0,0.0,0.0,0.0,0.0,0.0,0.0,0.0,0.0,0.0,0.0,0.0,0.0,0.0,0.0,0.0,0.0,0.0,0.0,0.0,0.0,0.0,0.0,0.0,0.0,0.0,0.0,0.0,0.0,0.0,0.0,0.0,0.0,0.0,0.0,0.0,0.0,0.0,0.0,0.0,0.0,0.0,0.0,0.0,0.0,-7.6552,-7.5857,-7.4652,-7.4324,-7.4343,-7.472,0.0,0.0,0.0,0.0,0.0,0.0,0.0,0.0,0.0,0.0,0.0,0.0,0.0,0.0,0.0,0.0,0.0,0.0,0.0,0.0,0.0,0.0,0.0,0.0,0.0,0.0,0.0,0.0,0.0,0.0,0.0,0.0,0.0,0.0,0.0,0.0,0.0,0.0,0.0,0.0,0.0,0.0,0.0,0.0,0.0,0.0,0.0,0.0,0.0,0.0,0.0,0.0,0.0,0.0,0.0,0.0,0.0,0.0,0.0,0.0,0.0,0.0,0.0,0.0,0.0,0.0,0.0,0.0,0.0,0.0,0.0,0.0,0.0,0.0,0.0,0.0,0.0,0.0,0.0,0.0,0.0,0.0,0.0,0.0,0.0,0.0,0.0,0.0,0.0,0.0,0.0,0.0,0.0,0.0,0.0,0.0,0.0,0.0,0.0,0.0,0.0,0.0,0.0,0.0,0.0,0.0,0.0,0.0,-7.6769,-7.603,-7.4496,-7.2266,-7.2899,-7.296,0.0,0.0,0.0,0.0,0.0,0.0,0.0,0.0,0.0,0.0,0.0,0.0,0.0,0.0,0.0,0.0,0.0,0.0,0.0,0.0,0.0,0.0,0.0,0.0,0.0,0.0,0.0,0.0,0.0,0.0,0.0,0.0,0.0,0.0,0.0,0.0,0.0,0.0,0.0,0.0,0.0,0.0,0.0,0.0,0.0,0.0,0.0,0.0,0.0,0.0,0.0,0.0,0.0,0.0,0.0,0.0,0.0,0.0,0.0,0.0,0.0,0.0,0.0,0.0,0.0,0.0,0.0,0.0,0.0,0.0,0.0,0.0,0.0,0.0,0.0,0.0,0.0,0.0,0.0,0.0,0.0,0.0,0.0,0.0,0.0,0.0,0.0,0.0,0.0,0.0,0.0,0.0,0.0,0.0,0.0,0.0,0.0,0.0,0.0,0.0,0.0,0.0,0.0,0.0,0.0,0.0,0.0,0.0,0.0,-7.5991,-7.4209,-7.3115,-7.2785,-7.1513,-7.0894,0.0,0.0,0.0,0.0,0.0,0.0,0.0,0.0,0.0,0.0,0.0,0.0,0.0,0.0,0.0,0.0,0.0,0.0,0.0,0.0,0.0,0.0,0.0,0.0,0.0,0.0,0.0,0.0,0.0,0.0,0.0,0.0,0.0,0.0,0.0,0.0,0.0,0.0,0.0,0.0,0.0,0.0,0.0,0.0,0.0,0.0,0.0,0.0,0.0,0.0,0.0,0.0,0.0,0.0,0.0,0.0,0.0,0.0,0.0,0.0,0.0,0.0,0.0,0.0,0.0,0.0,0.0,0.0,0.0,0.0,0.0,0.0,0.0,0.0,0.0,0.0,0.0,0.0,0.0,0.0,0.0,0.0,0.0,0.0,0.0,0.0,0.0,0.0,0.0,0.0,0.0,0.0,0.0,0.0,0.0,0.0,0.0,0.0,0.0,0.0,0.0,0.0,0.0,0.0,0.0,0.0,0.0,0.0,0.0,-7.4781,0.0,-7.2275,-7.1984,-7.0844,-7.0102,0.0,0.0,0.0,0.0,0.0,0.0,0.0,0.0,0.0,0.0,0.0,0.0,0.0,0.0,0.0,0.0,0.0,0.0,0.0,0.0,0.0,0.0,0.0,0.0,0.0,0.0,0.0,0.0,0.0,0.0,0.0,0.0,0.0,0.0,0.0,0.0,0.0,0.0,0.0,0.0,0.0,0.0,0.0,0.0,0.0,0.0,0.0,0.0,0.0,0.0,0.0,0.0,0.0,0.0,0.0,0.0,0.0,0.0,0.0,0.0,0.0,0.0,0.0,0.0,0.0,0.0,0.0,0.0,0.0,0.0,0.0,0.0,0.0,0.0,0.0,0.0,0.0,0.0,0.0,0.0,0.0,0.0,0.0,0.0,0.0,0.0,0.0,0.0,0.0,0.0,0.0,0.0,0.0,0.0,0.0,0.0,0.0,0.0,0.0,0.0,0.0,0.0,0.0,0.0,0.0,0.0,0.0,0.0,-7.467,-7.3169,-7.3158,-7.1945,-6.9567,-7.0902,-7.0586,0.0,0.0,0.0,0.0,0.0,0.0,0.0,0.0,0.0,0.0,0.0,0.0,0.0,0.0,0.0,0.0,0.0,0.0,0.0,0.0,0.0,0.0,0.0,0.0,0.0,0.0,0.0,0.0,0.0,0.0,0.0,0.0,0.0,0.0,0.0,0.0,0.0,0.0,0.0,0.0,0.0,0.0,0.0,0.0,0.0,0.0,0.0,0.0,0.0,0.0,0.0,0.0,0.0,0.0,0.0,0.0,0.0,0.0,0.0,0.0,0.0,0.0,0.0,0.0,0.0,0.0,0.0,0.0,0.0,0.0,0.0,0.0,0.0,0.0,0.0,0.0,0.0,0.0,0.0,0.0,0.0,0.0,0.0,0.0,0.0,0.0,0.0,0.0,0.0,0.0,0.0,0.0,0.0,0.0,0.0,0.0,0.0,0.0,0.0,0.0,0.0,0.0,0.0,0.0,0.0,0.0,0.0,0.0,0.0,-7.1344,-7.1441,-7.0543,-6.863,-6.9009,-6.8619,0.0,0.0,0.0,0.0,0.0,0.0,0.0,0.0,0.0,0.0,0.0,0.0,0.0,0.0,0.0,0.0,0.0,0.0,0.0,0.0,0.0,0.0,0.0,0.0,0.0,0.0,0.0,0.0,0.0,0.0,0.0,0.0,0.0,0.0,0.0,0.0,0.0,0.0,0.0,0.0,0.0,0.0,0.0,0.0,0.0,0.0,0.0,0.0,0.0,0.0,0.0,0.0,0.0,0.0,0.0,0.0,0.0,0.0,0.0,0.0,0.0,0.0,0.0,0.0,0.0,0.0,0.0,0.0,0.0,0.0,0.0,0.0,0.0,0.0,0.0,0.0,0.0,0.0,0.0,0.0,0.0,0.0,0.0,0.0,0.0,0.0,0.0,0.0,0.0,0.0,0.0,0.0,0.0,0.0,0.0,0.0,0.0,0.0,0.0,0.0,0.0,0.0,0.0,0.0,0.0,0.0,0.0,0.0,0.0,-6.9626,-7.0008,-6.9684,-6.863,-6.858,-6.7994,-6.6873,0.0,0.0,0.0,0.0,0.0,0.0,0.0,0.0,0.0,0.0,0.0,0.0,0.0,0.0,0.0,0.0,0.0,0.0,0.0,0.0,0.0,0.0,0.0,0.0,0.0,0.0,0.0,0.0,0.0,0.0,0.0,0.0,0.0,0.0,0.0,0.0,0.0,0.0,0.0,0.0,0.0,0.0,0.0,0.0,0.0,0.0,0.0,0.0,0.0,0.0,0.0,0.0,0.0,0.0,0.0,0.0,0.0,0.0,0.0,0.0,0.0,0.0,0.0,0.0,0.0,0.0,0.0,0.0,0.0,0.0,0.0,0.0,0.0,0.0,0.0,0.0,0.0,0.0,0.0,0.0,0.0,0.0,0.0,0.0,0.0,0.0,0.0,0.0,0.0,0.0,0.0,0.0,0.0,0.0,0.0,0.0,0.0,0.0,0.0,0.0,0.0,0.0,0.0,0.0,0.0,0.0,0.0,0.0,-6.8113,-6.8889,-6.9333,-6.9294,-6.9302,-6.8518,0.0,0.0,0.0,0.0,0.0,0.0,0.0,0.0,0.0,0.0,0.0,0.0,0.0,0.0,0.0,0.0,0.0,0.0,0.0,0.0,0.0,0.0,0.0,0.0,0.0,0.0,0.0,0.0,0.0,0.0,0.0,0.0,0.0,0.0,0.0,0.0,0.0,0.0,0.0,0.0,0.0,0.0,0.0,0.0,0.0,0.0,0.0,0.0,0.0,0.0,0.0,0.0,0.0,0.0,0.0,0.0,0.0,0.0,0.0,0.0,0.0,0.0,0.0,0.0,0.0,0.0,0.0,0.0,0.0,0.0,0.0,0.0,0.0,0.0,0.0,0.0,0.0,0.0,0.0,0.0,0.0,0.0,0.0,0.0,0.0,0.0,0.0,0.0,0.0,0.0,0.0,0.0,0.0,0.0,0.0,0.0,0.0,0.0,0.0,0.0,0.0,0.0,0.0,0.0,0.0,0.0,0.0,0.0,0.0,-6.8929,-6.8616,-6.8435,-6.8474,-6.9051,-6.8844,0.0,0.0,0.0,0.0,0.0,0.0,0.0,0.0,0.0,0.0,0.0,0.0,0.0,0.0,0.0,0.0,0.0,0.0,0.0,0.0,0.0,0.0,0.0,0.0,0.0,0.0,0.0,0.0,0.0,0.0,0.0,0.0,0.0,0.0,0.0,0.0,0.0,0.0,0.0,0.0,0.0,0.0,0.0,0.0,0.0,0.0,0.0,0.0,0.0,0.0,0.0,0.0,0.0,0.0,0.0,0.0,0.0,0.0,0.0,0.0,0.0,0.0,0.0,0.0,0.0,0.0,0.0,0.0,0.0,0.0,0.0,0.0,0.0,0.0,0.0,0.0,0.0,0.0,0.0,0.0,0.0,0.0,0.0,0.0,0.0,0.0,0.0,0.0,0.0,0.0,0.0,0.0,0.0,0.0,0.0,0.0,0.0,0.0,0.0,0.0,0.0,0.0,0.0,0.0,0.0,0.0,0.0,0.0,-6.8071,-6.8795,-6.9051,-6.9176,-6.9215,-6.9333,-6.8811,0.0,0.0,0.0,0.0,0.0,0.0,0.0,0.0,0.0,0.0,0.0,0.0,0.0,0.0,0.0,0.0,0.0,0.0,0.0,0.0,0.0,0.0,0.0,0.0,0.0,0.0,0.0,0.0,0.0,0.0,0.0,0.0,0.0,0.0,0.0,0.0,0.0,0.0,0.0,0.0,0.0,0.0,0.0,0.0,0.0,0.0,0.0,0.0,0.0,0.0,0.0,0.0,0.0,0.0,0.0,0.0,0.0,0.0,0.0,0.0,0.0,0.0,0.0,0.0,0.0,0.0,0.0,0.0,0.0,0.0,0.0,0.0,0.0,0.0,0.0,0.0,0.0,0.0,0.0,0.0,0.0,0.0,0.0,0.0,0.0,0.0,0.0,0.0,0.0,0.0,0.0,0.0,0.0,0.0,0.0,0.0,0.0,0.0,0.0,0.0,0.0,0.0,0.0,0.0,0.0,0.0,0.0,0.0,-6.8635,-6.8237,-6.984,-7.0738,-7.0816,-6.9996,-6.8772,0.0,0.0,0.0,0.0,0.0,0.0,0.0,0.0,0.0,0.0,0.0,0.0,0.0,0.0,0.0,0.0,0.0,0.0,0.0,0.0,0.0,0.0,0.0,0.0,0.0,0.0,0.0,0.0,0.0,0.0,0.0,0.0,0.0,0.0,0.0,0.0,0.0,0.0,0.0,0.0,0.0,0.0,0.0,0.0,0.0,0.0,0.0,0.0,0.0,0.0,0.0,0.0,0.0,0.0,0.0,0.0,0.0,0.0,0.0,0.0,0.0,0.0,0.0,0.0,0.0,0.0,0.0,0.0,0.0,0.0,0.0,0.0,0.0,0.0,0.0,0.0,0.0,0.0,0.0,0.0,0.0,0.0,0.0,0.0,0.0,0.0,0.0,0.0,0.0,0.0,0.0,0.0,0.0,0.0,0.0,0.0,0.0,0.0,0.0,0.0,0.0,0.0,0.0,0.0,0.0,0.0,0.0,0.0,-6.7157,-6.9096,-7.0152,-7.1011,-7.1675,-7.0894,-6.9891,0.0,0.0,0.0,0.0,0.0,0.0,0.0,0.0,0.0,0.0,0.0,0.0,0.0,0.0,0.0,0.0,0.0,0.0,0.0,0.0,0.0,0.0,0.0,0.0,0.0,0.0,0.0,0.0,0.0,0.0,0.0,0.0,0.0,0.0,0.0,0.0,0.0,0.0,0.0,0.0,0.0,0.0,0.0,0.0,0.0,0.0,0.0,0.0,-6.1451,0.0,0.0,0.0,0.0,0.0,0.0,0.0,0.0,0.0,0.0,0.0,0.0,0.0,0.0,0.0,0.0,0.0,0.0,0.0,0.0,0.0,0.0,0.0,0.0,0.0,0.0,0.0,0.0,0.0,0.0,0.0,0.0,0.0,0.0,0.0,0.0,0.0,0.0,0.0,0.0,0.0,0.0,0.0,0.0,0.0,0.0,0.0,0.0,0.0,0.0,0.0,0.0,0.0,0.0,0.0,0.0,0.0,0.0,0.0,-6.6923,-6.8744,-7.0426,-7.1519,-7.1948,-7.1167,-7.0043,0.0,0.0,0.0,0.0,0.0,0.0,0.0,0.0,0.0,0.0,0.0,0.0,0.0,0.0,0.0,0.0,0.0,0.0,0.0,0.0,0.0,0.0,0.0,0.0,0.0,0.0,0.0,0.0,0.0,0.0,0.0,0.0,0.0,0.0,0.0,0.0,0.0,0.0,0.0,0.0,0.0,0.0,0.0,0.0,0.0,0.0,0.0,0.0,0.0,0.0,0.0,0.0,0.0,0.0,0.0,0.0,0.0,0.0,0.0,0.0,0.0,0.0,0.0,0.0,0.0,0.0,0.0,0.0,0.0,0.0,0.0,0.0,0.0,0.0,0.0,0.0,0.0,0.0,0.0,0.0,0.0,0.0,0.0,0.0,0.0,0.0,0.0,0.0,0.0,0.0,0.0,0.0,0.0,0.0,0.0,0.0,0.0,0.0,0.0,0.0,0.0,0.0,0.0,0.0,0.0,0.0,0.0,-6.5904,-6.7274,-6.851,-7.0777,-7.1987,-7.1987,-7.1006,-6.9767,-6.8281,0.0,0.0,0.0,0.0,0.0,0.0,0.0,0.0,0.0,0.0,0.0,0.0,0.0,0.0,0.0,0.0,0.0,0.0,0.0,0.0,0.0,0.0,0.0,0.0,0.0,0.0,0.0,0.0,0.0,0.0,0.0,0.0,0.0,0.0,0.0,0.0,0.0,0.0,-5.8072,-5.9318,0.0,0.0,0.0,0.0,0.0,0.0,0.0,0.0,-6.0867,0.0,0.0,0.0,0.0,0.0,0.0,0.0,0.0,0.0,0.0,0.0,0.0,0.0,0.0,0.0,0.0,0.0,0.0,0.0,0.0,0.0,0.0,0.0,0.0,0.0,0.0,0.0,0.0,0.0,0.0,0.0,0.0,0.0,0.0,0.0,0.0,0.0,0.0,0.0,0.0,0.0,0.0,0.0,0.0,0.0,0.0,0.0,0.0,0.0,0.0,0.0,0.0,0.0,0.0,0.0,0.0,-6.525,-6.6195,-6.7859,-7.0228,-7.1402,-7.1987,-7.1948,-7.0402,-6.9385,-6.9016,0.0,0.0,0.0,0.0,0.0,0.0,0.0,0.0,0.0,0.0,0.0,0.0,0.0,0.0,0.0,0.0,0.0,0.0,0.0,0.0,0.0,0.0,0.0,0.0,0.0,0.0,0.0,0.0,0.0,0.0,0.0,0.0,0.0,0.0,0.0,0.0,0.0,0.0,0.0,-5.9664,-6.0616,0.0,0.0,0.0,0.0,0.0,0.0,0.0,0.0,-6.0594,0.0,0.0,0.0,0.0,0.0,0.0,0.0,0.0,0.0,0.0,0.0,0.0,0.0,0.0,0.0,0.0,0.0,0.0,0.0,0.0,0.0,0.0,0.0,0.0,0.0,0.0,0.0,0.0,0.0,0.0,0.0,0.0,0.0,0.0,0.0,0.0,0.0,0.0,0.0,0.0,0.0,0.0,0.0,0.0,0.0,0.0,0.0,0.0,0.0,0.0,0.0,0.0,0.0,0.0,0.0,-6.4621,-6.6011,-6.7764,-6.9926,-7.1238,-7.1893,-7.1854,-7.0195,-6.9026,0.0,0.0,0.0,0.0,0.0,0.0,0.0,0.0,0.0,0.0,0.0,0.0,0.0,0.0,0.0,0.0,0.0,0.0,0.0,0.0,0.0,0.0,0.0,0.0,0.0,0.0,0.0,0.0,0.0,0.0,0.0,0.0,0.0,0.0,0.0,0.0,0.0,0.0,0.0,0.0,-6.0438,-6.1143,-6.1549,0.0,0.0,0.0,0.0,0.0,0.0,-6.1257,-6.1101,0.0,0.0,0.0,0.0,0.0,0.0,0.0,0.0,0.0,0.0,0.0,0.0,0.0,0.0,0.0,0.0,0.0,0.0,0.0,0.0,0.0,0.0,0.0,0.0,0.0,0.0,0.0,0.0,0.0,0.0,0.0,0.0,0.0,0.0,0.0,0.0,0.0,0.0,0.0,0.0,0.0,0.0,0.0,0.0,0.0,0.0,0.0,0.0,0.0,0.0,0.0,0.0,0.0,0.0,0.0,-6.4104,-6.5795,-6.7618,-6.9493,-7.1019,-7.17,-7.1544,-7.0019,-6.87,0.0,0.0,0.0,0.0,0.0,0.0,0.0,0.0,0.0,0.0,0.0,0.0,0.0,0.0,0.0,0.0,0.0,0.0,0.0,0.0,0.0,0.0,0.0,0.0,0.0,0.0,0.0,0.0,0.0,0.0,0.0,0.0,0.0,0.0,0.0,0.0,0.0,0.0,0.0,0.0,0.0,-6.1785,-6.1621,-6.2352,0.0,0.0,0.0,0.0,-6.188,-6.2426,0.0,0.0,0.0,0.0,0.0,0.0,0.0,0.0,0.0,0.0,0.0,0.0,0.0,0.0,0.0,0.0,0.0,0.0,0.0,0.0,0.0,0.0,0.0,0.0,0.0,0.0,0.0,0.0,0.0,0.0,0.0,0.0,0.0,0.0,0.0,0.0,0.0,0.0,0.0,0.0,0.0,0.0,0.0,0.0,0.0,0.0,0.0,0.0,0.0,0.0,0.0,0.0,0.0,0.0,0.0,0.0,-6.4885,-6.605,-6.7837,-7.0263,-7.1315,-7.1427,-7.0648,-6.97,-6.8423,0.0,0.0,0.0,0.0,0.0,0.0,0.0,0.0,0.0,0.0,0.0,0.0,0.0,0.0,0.0,0.0,0.0,0.0,0.0,0.0,0.0,0.0,0.0,0.0,0.0,0.0,0.0,0.0,0.0,0.0,0.0,0.0,0.0,0.0,0.0,0.0,0.0,0.0,0.0,0.0,0.0,-6.2477,-6.1705,-6.2352,-6.2581,0.0,0.0,-6.3556,-6.2854,-6.527,0.0,0.0,0.0,0.0,0.0,0.0,0.0,0.0,0.0,0.0,0.0,0.0,0.0,0.0,0.0,0.0,0.0,0.0,0.0,0.0,0.0,0.0,0.0,0.0,0.0,0.0,0.0,0.0,0.0,0.0,0.0,0.0,0.0,0.0,0.0,0.0,0.0,0.0,0.0,0.0,0.0,0.0,0.0,0.0,0.0,0.0,0.0,0.0,0.0,0.0,0.0,0.0,0.0,0.0,0.0,-6.2008,-6.4149,-6.5768,-6.7645,-6.9694,-7.0557,-7.077,-7.042,-6.9109,-6.7571,0.0,0.0,0.0,0.0,0.0,0.0,0.0,0.0,0.0,0.0,0.0,0.0,0.0,0.0,0.0,0.0,0.0,0.0,0.0,0.0,0.0,0.0,0.0,0.0,0.0,0.0,0.0,0.0,0.0,0.0,0.0,0.0,0.0,0.0,0.0,0.0,0.0,0.0,0.0,0.0,0.0,0.0,-6.1811,-6.2726,0.0,0.0,0.0,-6.4725,-6.4374,0.0,0.0,0.0,0.0,0.0,0.0,0.0,0.0,0.0,0.0,0.0,0.0,0.0,0.0,0.0,0.0,0.0,0.0,0.0,0.0,0.0,0.0,0.0,0.0,0.0,0.0,0.0,0.0,0.0,0.0,0.0,0.0,0.0,0.0,0.0,0.0,0.0,0.0,0.0,0.0,0.0,0.0,0.0,0.0,0.0,0.0,0.0,0.0,0.0,0.0,0.0,0.0,0.0,0.0,0.0,0.0,0.0,-6.3216,-6.5211,-6.6977,-6.8493,-6.9492,-6.9772,-6.9344,-6.814,0.0,0.0,0.0,0.0,0.0,0.0,0.0,0.0,0.0,0.0,0.0,0.0,0.0,0.0,0.0,0.0,0.0,0.0,0.0,0.0,0.0,0.0,0.0,0.0,0.0,0.0,0.0,-6.1718,0.0,0.0,0.0,0.0,0.0,0.0,0.0,0.0,0.0,0.0,0.0,0.0,0.0,0.0,-6.3895,-6.2183,-6.3371,-6.4223,0.0,0.0,-6.5738,-6.5738,-6.6478,-6.6361,0.0,0.0,0.0,0.0,0.0,0.0,0.0,0.0,0.0,0.0,0.0,0.0,0.0,0.0,0.0,0.0,0.0,0.0,0.0,0.0,0.0,0.0,0.0,0.0,0.0,0.0,0.0,0.0,0.0,0.0,0.0,0.0,0.0,0.0,0.0,0.0,0.0,0.0,0.0,0.0,0.0,0.0,0.0,0.0,0.0,0.0,0.0,0.0,0.0,0.0,0.0,0.0,0.0,0.0,0.0,-6.2507,-6.4349,-6.5778,-6.671,-6.8296,-6.8412,-6.6819,-6.6664,-6.5421,0.0,0.0,0.0,0.0,0.0,0.0,0.0,0.0,0.0,0.0,0.0,0.0,0.0,0.0,0.0,0.0,0.0,0.0,0.0,0.0,0.0,0.0,0.0,0.0,0.0,0.0,0.0,0.0,0.0,0.0,0.0,0.0,0.0,0.0,0.0,0.0,0.0,0.0,0.0,0.0,0.0,-6.4799,-6.3124,-6.4289,-6.5294,0.0,0.0,-6.6629,-6.6629,-6.9284,-6.9712,-6.488,0.0,0.0,0.0,0.0,0.0,0.0,0.0,0.0,0.0,0.0,0.0,0.0,0.0,0.0,0.0,0.0,0.0,0.0,0.0,0.0,0.0,0.0,0.0,0.0,0.0,0.0,0.0,0.0,0.0,0.0,0.0,0.0,0.0,0.0,0.0,0.0,0.0,0.0,0.0,0.0,0.0,0.0,0.0,0.0,0.0,0.0,0.0,0.0,0.0,0.0,0.0,0.0,0.0,-6.1839,-6.2297,-6.4192,-6.5607,-6.6508,-6.7674,-6.7713,-6.6547,-6.6003,-6.476,0.0,0.0,0.0,0.0,0.0,0.0,0.0,0.0,0.0,0.0,0.0,0.0,0.0,0.0,0.0,0.0,0.0,0.0,0.0,0.0,0.0,0.0,0.0,0.0,0.0,0.0,0.0,0.0,-6.1718,-6.1718,-6.1718,0.0,0.0,0.0,0.0,0.0,0.0,0.0,0.0,0.0,0.0,-6.4297,-6.3162,-6.4429,0.0,0.0,-6.6642,-6.7486,-6.7486,-6.8154,-6.7803,-6.5309,-6.4179,0.0,0.0,0.0,0.0,0.0,0.0,0.0,0.0,0.0,0.0,0.0,0.0,0.0,0.0,0.0,0.0,0.0,0.0,0.0,0.0,0.0,0.0,0.0,0.0,0.0,0.0,0.0,0.0,0.0,0.0,0.0,0.0,0.0,0.0,0.0,0.0,0.0,0.0,0.0,0.0,0.0,0.0,0.0,0.0,0.0,0.0,0.0,0.0,0.0,0.0,0.0,0.0,-6.2022,-6.1891,-6.3563,-6.4753,-6.5343,-6.6237,-6.6237,-6.5382,-6.476,-6.3789,0.0,0.0,0.0,0.0,0.0,0.0,0.0,0.0,0.0,0.0,0.0,0.0,0.0,0.0,0.0,0.0,0.0,0.0,0.0,0.0,0.0,0.0,0.0,0.0,0.0,0.0,0.0,0.0,-6.1718,-6.1718,-6.1718,0.0,0.0,0.0,0.0,0.0,0.0,0.0,0.0,0.0,0.0,-6.3903,-6.3155,-6.4212,-6.5192,-6.5465,-6.628,-6.6931,-6.718,-6.6712,-6.5922,-6.4782,0.0,0.0,0.0,0.0,0.0,0.0,0.0,0.0,0.0,0.0,0.0,0.0,0.0,0.0,0.0,0.0,0.0,0.0,0.0,0.0,0.0,0.0,0.0,0.0,0.0,0.0,0.0,0.0,0.0,0.0,-6.7539,0.0,0.0,0.0,0.0,0.0,0.0,0.0,0.0,0.0,0.0,0.0,0.0,0.0,0.0,0.0,0.0,0.0,0.0,0.0,0.0,0.0,0.0,-6.1765,-6.1152,-6.2246,-6.2779,-6.2857,-6.3634,-6.3711,-6.2896,-6.2779,-6.2352,-6.149,0.0,0.0,0.0,0.0,0.0,0.0,0.0,0.0,0.0,0.0,0.0,0.0,0.0,0.0,0.0,0.0,0.0,0.0,0.0,0.0,0.0,0.0,0.0,0.0,0.0,0.0,-6.1718,-6.1718,-6.1718,0.0,0.0,0.0,0.0,0.0,0.0,0.0,0.0,0.0,0.0,-6.3114,-6.3901,-6.3132,-6.3711,-6.4558,-6.5378,-6.4807,-6.4563,-6.5358,-6.5426,-6.4821,0.0,0.0,0.0,0.0,0.0,0.0,0.0,0.0,0.0,0.0,0.0,0.0,0.0,0.0,0.0,0.0,0.0,0.0,0.0,0.0,0.0,0.0,0.0,0.0,0.0,0.0,0.0,-6.4735,-6.4905,0.0,0.0,0.0,0.0,0.0,0.0,0.0,0.0,0.0,0.0,0.0,-6.5413,-6.5413,0.0,0.0,0.0,0.0,0.0,0.0,0.0,0.0,0.0,0.0,0.0,0.0,-6.1713,-6.106,-6.2097,-6.2701,-6.2701,-6.3556,-6.3595,-6.2701,-6.2701,-6.2313,-6.1451,0.0,0.0,0.0,0.0,0.0,0.0,0.0,0.0,0.0,0.0,0.0,0.0,0.0,0.0,0.0,0.0,0.0,0.0,0.0,0.0,0.0,0.0,0.0,0.0,0.0,-6.1718,0.0,0.0,0.0,0.0,0.0,0.0,0.0,0.0,0.0,0.0,0.0,-6.1718,-6.1718,-6.2707,-6.3297,-6.305,-6.3704,-6.4296,0.0,0.0,0.0,0.0,0.0,0.0,0.0,0.0,0.0,0.0,0.0,0.0,0.0,0.0,-6.248,-6.1321,-6.1582,-6.1814,-6.1234,0.0,0.0,0.0,0.0,0.0,0.0,0.0,0.0,0.0,0.0,0.0,0.0,0.0,0.0,0.0,0.0,-6.4989,0.0,0.0,0.0,0.0,0.0,0.0,0.0,0.0,-6.5252,-6.5413,-6.5413,-6.5413,-6.5413,0.0,-6.5413,-6.5413,0.0,0.0,0.0,0.0,0.0,0.0,0.0,0.0,-6.1665,-6.0969,-6.172,-6.2191,-6.2274,-6.2818,-6.2818,-6.2274,-6.2235,-6.1956,-6.1412,-6.1963,-6.2779,0.0,0.0,0.0,0.0,0.0,0.0,0.0,0.0,0.0,0.0,0.0,0.0,0.0,0.0,0.0,0.0,0.0,0.0,0.0,0.0,0.0,0.0,0.0,-6.1718,0.0,0.0,0.0,0.0,0.0,0.0,0.0,0.0,0.0,-6.1718,-6.1718,-6.1718,-6.1718,-6.2189,-6.254,-6.254,0.0,0.0,0.0,0.0,0.0,0.0,0.0,-6.3302,-6.3208,-6.275,-6.2464,-6.2905,-6.3421,-6.3747,-6.369,0.0,0.0,-6.224,-6.2472,-6.2665,-6.2124,-6.2008,-6.2133,-6.2601,-6.2521,-6.2324,0.0,0.0,0.0,0.0,0.0,0.0,0.0,0.0,-6.4501,-6.4502,0.0,-6.4725,0.0,0.0,0.0,0.0,0.0,-6.4817,0.0,0.0,-6.5298,-6.5413,-6.5413,-6.5413,-6.5375,-6.5375,-6.5337,-6.5299,-6.5222,-6.3656,0.0,0.0,0.0,0.0,0.0,0.0,-6.155,-6.092,-6.105,-6.122,-6.1412,-6.1412,-6.1412,-6.1412,-6.1412,-6.1412,-6.1412,-6.1451,-6.2235,-6.3906,-6.4061,0.0,0.0,0.0,0.0,0.0,0.0,0.0,0.0,0.0,0.0,0.0,0.0,0.0,0.0,0.0,0.0,0.0,0.0,0.0,0.0,-6.1718,0.0,0.0,0.0,0.0,0.0,0.0,0.0,0.0,0.0,0.0,-6.1835,-6.1796,-6.1757,-6.1757,0.0,0.0,0.0,0.0,-6.2016,-6.2806,-6.2917,-6.3249,-6.3964,-6.4101,-6.4081,-6.398,0.0,0.0,-6.3864,-6.3874,-6.399,-6.3913,-6.4687,-6.4841,-6.4068,-6.3864,-6.3797,-6.3758,-6.3835,-6.4377,-6.5711,-6.5727,-6.6126,-5.9309,0.0,0.0,0.0,0.0,-6.3946,-6.4284,-6.4304,-6.4364,-6.4516,-6.4724,-6.4672,0.0,0.0,0.0,0.0,0.0,0.0,-6.5073,-6.5101,-6.5298,-6.5413,-6.5413,-6.5413,-6.5108,-6.4588,-6.4535,-6.4229,-6.3579,-6.251,-6.228,-6.2853,0.0,0.0,0.0,0.0,-6.0935,-6.0931,-6.105,-6.1181,-6.1412,-6.1412,-6.1412,-6.1412,-6.1412,-6.1412,-6.1412,-6.2002,-6.2857,-6.3945,-6.4566,0.0,0.0,0.0,0.0,0.0,0.0,0.0,0.0,0.0,0.0,0.0,0.0,0.0,0.0,0.0,0.0,0.0,0.0,0.0,-6.1718,-6.1718,-6.1718,0.0,0.0,0.0,0.0,0.0,0.0,0.0,0.0,0.0,-6.3555,-6.3008,-6.2618,0.0,0.0,-6.2384,-6.1757,-6.2228,-6.268,-6.2884,-6.3426,0.0,-6.4086,-6.4101,-6.407,-6.3962,-6.4829,-6.5751,-6.6312,-6.692,-6.7346,-6.7307,-6.7539,-6.7617,-6.7346,-6.6301,-6.5528,-6.5528,-6.5953,-6.6301,-6.6253,-6.6521,-6.6947,-5.8323,-5.929,-6.128,-6.2106,-6.2219,-6.3345,-6.3834,-6.3854,-6.4271,-6.4575,-6.4841,-6.4783,-6.4967,-6.5232,-6.4984,0.0,0.0,0.0,-6.4981,-6.4778,-6.5177,-6.507,-6.4458,-6.4764,-6.4496,-6.3694,-6.3656,-6.3427,-6.2892,-6.2013,-6.186,-6.2319,0.0,0.0,-6.0384,-6.0468,-6.0633,-6.0882,-6.0983,-6.1169,-6.1412,-6.1412,-6.1412,-6.1412,-6.1412,-6.1412,-6.1412,-6.1886,-6.2585,-6.3439,-6.4255,-6.4372,0.0,0.0,0.0,0.0,0.0,0.0,0.0,0.0,0.0,0.0,0.0,-6.1612,-6.1718,0.0,0.0,0.0,-6.1993,-6.2071,-6.1718,-6.2306,0.0,0.0,0.0,0.0,0.0,0.0,0.0,-6.426,-6.4299,-6.4416,-6.4765,-6.4375,-6.3906,-6.3555,-6.3516,-6.3321,-6.2813,0.0,-6.3614,-6.3866,-6.4373,-6.4834,-6.513,-6.5137,-6.5192,-6.5372,-6.5812,-6.6506,-6.7346,-6.7965,-6.8274,-6.8274,-6.8274,-6.8506,-6.9164,-6.8158,-6.723,-6.723,-6.7655,-6.8003,-6.8119,-6.8547,-6.9034,-5.807,-5.7263,-5.9553,-6.0529,-6.0642,-6.2294,-6.3008,-6.3065,-6.3973,-6.4444,-6.455,-6.4778,-6.4824,-6.4785,-6.4731,0.0,-6.4911,-6.4894,-6.461,-6.4129,-6.4917,-6.4458,-6.2968,-6.3809,-6.3694,-6.2777,-6.2801,-6.2762,-6.2662,-6.1898,-6.1516,-6.1478,-6.0752,-6.0384,-6.0384,-6.0384,-6.0546,-6.0882,-6.0931,-6.1079,-6.1412,-6.1412,-6.1412,-6.1412,-6.1412,-6.1412,-6.1412,-6.1412,-6.1801,-6.2663,-6.3478,-6.3556,-6.2896,0.0,0.0,0.0,0.0,0.0,0.0,0.0,0.0,0.0,0.0,0.0,0.0,0.0,0.0,0.0,-6.2618,0.0,-6.1993,-6.336,0.0,0.0,0.0,-6.4338,-6.4377,-6.4377,-6.4416,-6.4494,0.0,0.0,-6.5585,-6.5702,-6.539,-6.4611,-6.4416,-6.4377,-6.4299,-6.4338,-6.4661,-6.531,-6.5545,-6.5898,-6.6473,-6.6597,-6.675,-6.7323,-6.698,-6.6766,-6.7482,-6.7694,-6.7655,-6.7733,-6.7617,-6.8042,-6.9628,-6.9164,-6.8816,-6.8854,-6.897,-6.9473,-7.0711,-7.1059,-7.1684,-5.7985,-5.8802,-5.9365,-5.9591,-5.9741,-6.1393,-6.2106,-6.2144,-6.2352,-6.2711,-6.3107,-6.2896,-6.2904,-6.3023,-6.3027,-6.3057,-6.3198,-6.3198,-6.32,-6.3274,-6.4076,-6.3923,-6.2968,-6.377,-6.3388,-6.1975,-6.1898,-6.1593,-6.0981,-6.079,-6.0676,-6.0676,-6.0499,-6.0384,-6.0384,-6.0384,-6.0546,-6.0882,-6.0931,-6.1079,-6.1405,-6.1412,-6.1412,-6.1412,-6.1412,-6.1412,-6.1412,-6.1412,-6.1801,-6.2663,-6.2896,-6.3206,-6.3673,-6.3867,0.0,0.0,0.0,0.0,0.0,0.0,0.0,0.0,0.0,-6.1986,-6.2657,0.0,-6.2228,0.0,-6.3867,-6.3906,-6.3711,-6.4065,0.0,0.0,-6.4182,-6.457,-6.5234,-6.5273,-6.5507,-6.6134,-6.6212,-6.6288,-6.6483,-6.6522,-6.6444,-6.6212,-6.5663,-6.5077,-6.4453,-6.4882,-6.5325,-6.5542,-6.6052,-6.6562,-6.671,-6.6703,-6.6878,-6.7588,-6.7446,-6.758,-6.8372,-6.8496,-6.8496,-6.8506,-6.8506,-6.87,-6.9048,-6.8932,-6.9048,-6.9589,-7.0247,-7.0789,-7.1214,-7.1291,-7.1872,-5.7867,-5.8276,-5.899,-5.9102,-5.8915,-6.0567,-6.1243,-6.128,-6.1618,-6.2033,-6.2372,-6.2291,-6.2353,-6.2482,-6.2482,-6.2579,-6.2719,-6.2719,-6.2574,-6.2395,-6.3618,-6.3365,-6.186,-6.3045,-6.2739,-6.1096,-6.1058,-6.0828,-6.0422,-6.0384,-6.0384,-6.0384,-6.0384,-6.0384,-6.0384,-6.048,-6.0608,-6.092,-6.1022,-6.1242,-6.1366,-6.1412,-6.1412,-6.1412,-6.1412,-6.1412,-6.1412,-6.1412,-6.1606,-6.2111,-6.2468,-6.274,-6.2857,-6.3595,-6.3595,0.0,0.0,0.0,0.0,0.0,0.0,0.0,0.0,0.0,0.0,0.0,-6.3282,-6.4221,-6.4648,-6.4726,-6.4338,-6.4963,-6.5275,-6.4921,-6.5194,-6.5624,-6.6092,-6.6131,-6.6288,-6.6759,-6.6798,-6.6798,-6.6798,-6.6798,-6.6798,-6.6798,-6.6405,-6.5975,-6.5546,-6.5858,-6.6102,-6.6118,-6.6471,-6.6794,-6.6745,-6.6655,-6.6824,-6.7433,-6.7307,-6.7261,-6.8052,-6.8236,-6.8236,-6.8236,-6.8236,-6.839,-6.87,-6.8468,-6.8506,-6.9241,-6.9821,-7.0402,-7.1137,-7.1291,-7.1678,-5.7888,-5.7338,-5.8727,-5.884,-5.8239,-5.9666,-6.0342,-6.0492,-6.1168,-6.1582,-6.1748,-6.1926,-6.2079,-6.2189,-6.2189,-6.2306,-6.2483,-6.2498,-6.2078,-6.1497,-6.3092,-6.261,-6.0456,-6.196,-6.1936,-6.0422,-6.0384,-6.0384,-6.0384,-6.0384,-6.0384,-6.0384,-6.0384,-6.0384,-6.0384,-6.0546,-6.0689,-6.0923,-6.1228,-6.1412,-6.1412,-6.1412,-6.1412,-6.1412,-6.1412,-6.1412,-6.1412,-6.1412,-6.1412,-6.1412,-6.2119,-6.2235,-6.1645,-6.309,-6.3673,0.0,-6.3703,0.0,0.0,0.0,0.0,0.0,0.0,0.0,0.0,-6.4572,-6.4572,-6.4494,-6.5234,-6.5429,-6.4687,-6.5939,-6.6522,-6.5858,-6.6366,-6.6798,-6.6798,-6.6798,-6.6798,-6.6798,-6.6798,-6.6798,-6.6798,-6.6798,-6.6798,-6.699,-6.7029,-6.7029,-6.7107,-6.6912,-6.6759,-6.6915,-6.6951,-6.706,-6.6935,-6.6697,-6.6727,-6.7207,-6.6825,-6.6476,-6.723,-6.7346,-6.7346,-6.7346,-6.7346,-6.7578,-6.8352,-6.781,-6.7655,-6.8468,-6.87,-6.9164,-7.044,-7.0827,-7.0982,-5.8778,-5.8877,-5.9178,-5.884,-5.8108,-5.8446,-5.8952,-5.9553,-5.9703,-5.9797,-5.9834,-5.9833,-5.987,-5.9924,-5.9924,-6.0051,-6.0223,-6.0223,-6.0231,-6.0263,-6.1393,-6.1302,-6.0258,-6.1306,-6.1325,-6.046,-6.0384,-6.0384,-6.0384,-6.0384,-6.0384,-6.0384,-6.0384,-6.0384,-6.0398,0.0,0.0,0.0,-6.1268,-6.1412,-6.1412,-6.1412,-6.1412,-6.1412,-6.1412,0.0,-6.1412,-6.1412,-6.1412,-6.1412,-6.1568,0.0,0.0,0.0,0.0,0.0,0.0,0.0,0.0,0.0,0.0,0.0,-6.619,-6.601,-6.5426,-6.5936,-6.6053,-6.5468,-6.6092,-6.6522,-6.6327,-6.6602,-6.6719,-6.6602,-6.6719,-6.6798,-6.6798,-6.6798,-6.6798,-6.6798,-6.6798,-6.6798,-6.6834,-6.6798,-6.7068,-6.7732,-6.7849,-6.8122,-6.8786,-6.7693,-6.7146,-6.7693,-6.781,-6.7801,-6.767,-6.7063,-6.6603,-6.6579,-6.6445,-6.6322,-6.6476,-6.6495,-6.6456,-6.6456,-6.6456,-6.6495,-6.6727,-6.6533,-6.6766,-6.7578,-6.7771,-6.8042,-6.9048,-6.928,-6.9473,-5.8498,0.0,-5.8967,-5.8838,0.0,-5.8203,-5.8351,-5.8727,-5.8689,-5.8915,-5.929,-5.929,-5.9345,-5.9436,-5.9436,-5.9581,-5.9753,-5.9753,-5.9853,-6.0051,-6.0943,-6.0997,-6.0294,-6.1182,-6.1172,-6.0422,-6.0384,-6.0384,-6.0384,-6.0384,-6.0384,-6.0384,-6.0384,-6.0384,-6.0384,-6.0608,-6.0843,-6.1074,-6.1322,-6.1412,-6.1412,-6.1412,-6.1412,-6.1412,0.0,0.0,0.0,0.0,0.0,0.0,0.0,0.0,0.0,0.0,0.0,-6.4022,-6.5226,-6.5959,-6.5926,-6.6044,-6.6295,-6.6744,-6.6801,-6.6622,-6.6209,-6.6561,-6.6641,-6.6249,-6.6561,-6.6798,-6.6798,-6.6798,-6.6798,-6.6798,-6.6798,-6.6798,-6.6798,-6.6798,-6.6798,-6.6798,-6.6798,-6.6951,-6.7381,-6.7459,-6.781,-6.8591,-6.8747,-6.8903,-6.9215,-6.8669,-6.8279,-6.863,-6.8318,-6.8038,-6.7822,-6.7166,-6.6507,-6.632,-6.6264,-6.6245,-6.6195,-6.6185,-6.6185,-6.6185,-6.6185,-6.6185,-6.6185,-6.6185,-6.634,-6.6727,-6.6843,-6.6959,-6.7501,-6.8197,-6.8777,-5.8142,-5.8391,-5.8598,-5.8701,-5.8646,-5.7978,-5.7657,-5.7657,0.0,0.0,0.0,-5.9253,-5.942,-5.9545,-5.9563,-5.965,-5.9803,-5.9836,-5.988,-6.0045,-6.0807,-6.0883,-6.0375,-6.1043,-6.1043,-6.038,-6.0342,-6.0356,-6.0408,-6.0394,-6.0356,-6.0408,-6.0384,-6.0384,-6.0412,-6.0742,-6.0953,-6.1086,-6.1268,-6.1412,-6.1412,-6.1412,-6.1412,-6.1412,-6.1412,-6.1412,-6.1412,-6.1412,-6.1412,-6.1412,-6.1412,-6.1451,-6.1645,-6.3129,-6.4061,-6.4263,-6.5686,-6.6581,-6.6588,-6.6732,-6.6787,-6.6794,-6.682,-6.6798,-6.6798,-6.6798,-6.6798,-6.6798,-6.6798,-6.6798,-6.6798,-6.6798,-6.6798,-6.6798,-6.6798,-6.6798,-6.6798,-6.6798,-6.6873,-6.699,-6.7068,-6.7342,-6.82,-6.8357,-6.863,-6.9411,-6.9606,-6.9723,-6.9801,-6.9723,-6.9567,-6.9567,-6.8981,-6.8312,-6.7969,-6.7138,-6.6491,-6.6253,-6.6195,-6.6185,-6.6185,-6.6185,-6.6185,-6.6185,-6.6185,-6.6185,-6.6185,-6.6185,-6.6185,-6.6185,-6.6185,-6.6185,-6.6301,-6.7307,-6.8042,-5.8686,-5.8673,-5.8353,-5.8203,-5.809,-5.6589,-5.5931,-5.6081,-5.747,-5.8145,-5.8314,-5.899,-5.9309,-5.9327,-5.9327,-5.9345,-5.9382,-5.9543,-5.9668,0.0,-6.0074,-6.019,-5.9982,-6.037,-6.0414,-6.0182,-6.0129,-6.0241,-6.0356,-6.0241,-6.0241,-6.037,-6.0384,-6.0384,-6.0412,-6.0754,-6.0902,-6.0933,-6.1267,-6.1412,-6.1412,-6.1412,-6.1412,-6.1412,-6.1412,-6.1412,-6.1412,-6.1412,-6.1412,-6.1412,-6.1412,-6.1723,-6.2507,-6.3478,-6.4294,-6.5032,-6.5997,-6.6581,-6.6588,-6.6732,-6.6798,-6.6787,-6.6795,-6.6798,-6.6798,-6.6798,-6.6798,-6.6798,-6.6798,-6.6798,-6.6798,-6.6837,-6.6837,-6.6837,-6.6837,-6.6798,-6.6837,-6.6876,-6.7146,-6.7771,-6.7888,-6.8239,-6.902,-6.9215,-6.9528,-7.0309,-7.0504,-7.0738,-7.1206,-7.0972,-7.0582,-7.0426,-6.9801,-6.9214,-6.883,-6.7528,-6.6641,-6.6235,-6.6234,-6.6185,-6.6185,-6.6185,-6.6185,-6.6185,-6.6185,-6.6185,-6.6185,-6.6185,-6.6185,-6.6185,-6.6185,-6.6185,-6.6185,-6.6533,-6.6611,-5.8348,-5.8524,-5.8495,-5.8482,-5.837,-5.6928,-5.6043,-5.5668,-5.6381,-5.7282,-5.8145,-5.8952,-5.929,-5.929,-5.929,-5.929,-5.929,-5.9382,-5.9472,-5.9616,-5.9786,-5.9869,-5.9902,-6.006,-6.0076,-5.9975,-6.0053,-6.0129,-6.0203,-6.0256,-6.0313,-6.0408,-6.0384,-6.0439,-6.0533,-6.1224,-6.1397,-6.1022,-6.1252,-6.1412,-6.1412,-6.1412,-6.1412,-6.1412,-6.1412,-6.1606,-6.208,-6.2119,-6.2313,-6.2779,-6.2818,-6.2973,-6.3401,-6.4178,-6.4799,-6.518,-6.6033,-6.6542,-6.6581,-6.6732,-6.6801,-6.6792,-6.6798,-6.6798,-6.6798,-6.6798,-6.6798,-6.6798,-6.6798,-6.6798,-6.6834,-6.7224,-6.7303,-6.6837,-6.7615,-6.781,-6.7107,-6.7693,-6.82,-6.8161,-6.8513,-6.9137,-6.9996,-7.0113,-7.0426,-7.1206,-7.1402,-7.1558,-7.1948,-7.1675,-7.1402,-7.1324,-7.066,-7.0108,-6.9825,-6.8375,-6.7296,-6.7027,-6.6535,-6.6234,-6.6185,-6.6185,-6.6185,-6.6185,-6.6185,-6.6185,-6.6185,-6.6185,-6.6185,-6.6185,-6.6185,-6.6185,-6.6185,-6.6185,-6.6165,-5.8006,-5.8304,-5.8459,-5.8343,-5.8012,-5.7247,-5.6324,-5.5405,-5.5743,-5.6606,-5.7863,-5.8652,-5.914,-5.929,-5.929,-5.929,-5.929,-5.9345,-5.9436,-5.9598,-5.965,-5.9736,-5.9836,-5.9869,-5.9869,-5.9853,-5.9998,-6.0053,-6.0114,-6.027,-6.0456,-6.0637,-6.0637,-6.0811,-6.1122,-6.2017,-6.219,-6.1688,-6.185,-6.1886,-6.1723,-6.1886,-6.1995,-6.1995,-6.2002,-6.2313,-6.2973,-6.3012,-6.3323,-6.3945,-6.3983,-6.4061,-6.4294,-6.4838,-6.5304,-6.553,-6.6314,-6.6934,-6.7165,-6.7291,-6.736,-6.7367,-6.737,-6.7375,-6.7381,-6.7383,-6.7185,-6.6876,-6.6798,-6.6876,-6.7107,-6.7459,-6.7654,-6.7459,-6.8357,-6.8591,-6.7732,-6.8591,-6.9294,-6.8825,-6.9294,-7.0035,-7.0738,-7.0972,-7.1245,-7.1792,-7.1987,-7.1987,-7.1987,-7.1987,-7.1987,-7.1831,-7.1285,-7.0688,-7.0505,-6.9032,-6.7902,-6.7736,-6.6902,-6.6379,-6.6225,-6.6235,-6.6185,-6.6185,-6.6185,-6.6185,-6.6185,-6.6185,-6.6185,-6.6185,-6.6185,-6.6185,-6.6185,-6.6175,-6.6134,-5.7983,-5.823,-5.7918,-5.7005,-5.614,-5.6606,-5.5986,-5.4897,-5.6099,-5.6849,-5.7187,-5.7863,-5.8652,-5.9253,-5.929,-5.929,-5.9309,-5.9472,-5.9581,-5.9616,-5.9786,-5.9786,-5.965,-5.9803,-5.9803,-5.9685,-5.982,-5.9944,-6.0068,-6.0152,-6.0622,-6.1387,-6.1478,-6.186,-6.2619,-6.3063,-6.3246,-6.319,-6.3555,-6.3362,-6.2701,-6.3362,-6.375,-6.375,-6.375,-6.3789,-6.3867,-6.3867,-6.3906,-6.3983,-6.4061,-6.4333,-6.4986,-6.518,-6.5537,-6.6314,-6.7169,-6.8062,-6.8786,-6.9001,-6.895,-6.9077,-6.8972,-6.899,-6.9057,-6.9098,-6.8435,-6.7305,-6.6876,-6.7264,-6.781,-6.7459,-6.7732,-6.8825,-6.8708,-6.8435,-6.8981,-6.9294,-6.9645,-7.0426,-7.0465,-7.0933,-7.1597,-7.1753,-7.1831,-7.1948,-7.1987,-7.1987,-7.1987,-7.1987,-7.1987,-7.187,-7.1285,-7.0805,-7.0507,-6.917,-6.8312,-6.7935,-6.7054,-6.6602,-6.6475,-6.6331,-6.6185,-6.6185,-6.6185,-6.6185,-6.6185,-6.6185,-6.6185,-6.6185,-6.6185,-6.6185,-6.6175,-6.6144,-6.6091,-5.7983,-5.8282,-5.8079,-5.755,-5.6799,-5.6347,-5.6023,-5.5948,-5.6061,-5.6699,-5.76,-5.7958,-5.8539,-5.929,-5.929,-5.929,-5.929,-5.9364,-5.9418,-5.9418,-5.949,-5.9528,-5.9418,-5.949,-5.949,-5.9418,-5.9633,-5.982,-6.0074,-6.0639,-6.1459,-6.2266,-6.2395,-6.2548,-6.2921,-6.363,-6.3789,-6.3439,-6.4667,-6.4915,-6.424,-6.4061,-6.3983,-6.3983,-6.3983,-6.4255,-6.4644,-6.4721,-6.4955,-6.5421,-6.546,-6.5615,-6.5926,-6.5965,-6.612,-6.6508,-6.7369,-6.8027,-6.8404,-6.8909,-6.9239,-6.9311,-6.9315,-6.9334,-6.9408,-6.9411,-6.9059,-6.8513,-6.8318,-6.8318,-6.82,-6.8669,-6.9215,-6.9489,-6.9957,-7.0152,-6.9411,-7.0309,-7.0972,-7.0816,-7.1167,-7.1558,-7.1909,-7.1987,-7.1987,-7.1987,-7.1987,-7.1987,-7.1987,-7.1987,-7.1987,-7.1951,-7.168,-7.1503,-7.1287,-7.0425,-6.9583,-6.9178,-6.8143,-6.7223,-6.7115,-6.6552,-6.6224,-6.6224,-6.6185,-6.6185,-6.6185,-6.6185,-6.6185,-6.6185,-6.6185,-6.6185,-6.6185,-6.6134,-6.608,-5.7844,-5.8164,-5.8275,-5.8032,-5.7521,-5.6556,-5.644,-5.6849,-5.6456,-5.6982,-5.8089,-5.8314,-5.8764,-5.9253,-5.929,-5.929,-5.929,-5.929,-5.929,-5.929,-5.929,-5.929,-5.9328,-5.9553,-5.9515,-5.9402,-5.9754,-6.0038,-6.0383,-6.1363,-6.2351,-6.3106,-6.3274,-6.3388,-6.3647,-6.4419,-6.4551,-6.4288,-6.5528,-6.5989,-6.5514,-6.4993,-6.4683,-6.4683,-6.4683,-6.4955,-6.5498,-6.5569,-6.5848,-6.647,-6.6508,-6.6508,-6.6508,-6.6508,-6.6625,-6.6897,-6.7726,-6.8338,-6.8532,-6.9357,-6.9885,-6.9991,-7.0,-7.0025,-7.0105,-7.0113,-6.9996,-6.9762,-6.9957,-6.9762,-6.9137,-6.9723,-7.0191,-7.0152,-7.1167,-7.1128,-7.0387,-7.1324,-7.1714,-7.1245,-7.1597,-7.1987,-7.1987,-7.1987,-7.1987,-7.1987,-7.1987,-7.1987,-7.1987,-7.1987,-7.1987,-7.1987,-7.2,-7.1973,-7.1903,-7.1093,-7.0731,-7.0261,-6.9099,-6.8098,-6.7961,-6.7172,-6.6572,-6.6804,-6.6456,-6.6224,-6.6185,-6.6185,-6.6185,-6.6185,-6.6185,-6.6185,-6.6185,-6.6134,-6.608,-5.7461,-5.7881,-5.8164,-5.7995,-5.7595,-5.7466,-5.7229,-5.7037,-5.7638,-5.8051,-5.8221,-5.8915,-5.9253,-5.929,-5.9365,-5.9328,-5.929,-5.929,-5.929,-5.929,-5.929,-5.929,-5.9365,-6.0116,-6.0116,-5.9534,-6.0338,-6.0942,-6.14,-6.217,-6.3085,-6.4076,-6.4167,-6.4496,-6.51,-6.5402,-6.5705,-6.5743,-6.602,-6.6251,-6.6377,-6.6353,-6.6275,-6.6237,-6.6353,-6.6314,-6.6392,-6.6431,-6.647,-6.6508,-6.6508,-6.6508,-6.6508,-6.6508,-6.6858,-6.7596,-6.849,-6.9352,-7.0013,-7.0806,-7.1372,-7.1566,-7.1471,-7.1672,-7.1624,-7.163,-7.1282,-7.0699,-7.1206,-7.1324,-7.0504,-7.0074,-7.0387,-7.148,-7.1167,-7.1206,-7.1753,-7.1792,-7.1987,-7.187,-7.1909,-7.1987,-7.1987,-7.1987,-7.2104,-7.2104,-7.2065,-7.2143,-7.226,-7.2143,-7.2182,-7.219,-7.2163,-7.2019,-7.1942,-7.1444,-7.0896,-7.056,-6.9986,-6.9005,-6.8591,-6.816,-6.7726,-6.723,-6.6611,-6.6301,-6.6224,-6.6185,-6.6185,-6.6185,-6.6185,-6.6185,-6.6185,-6.6134,-6.608,-5.7412,-5.7784,-5.7612,-5.755,-5.7558,-5.7286,-5.7341,-5.7695,-5.7976,-5.8389,-5.8877,-5.9178,-5.929,-5.9328,-5.9891,-5.9816,-5.9328,-5.929,-5.929,-5.929,-5.929,-5.929,-5.9403,-6.0191,-6.0492,-6.0304,-6.1018,-6.1898,-6.2791,-6.3359,-6.4054,-6.4787,-6.4955,-6.5146,-6.5352,-6.545,-6.5638,-6.5951,-6.6052,-6.6206,-6.6485,-6.6508,-6.6508,-6.6508,-6.6508,-6.6508,-6.6508,-6.6508,-6.6508,-6.6508,-6.6508,-6.6508,-6.6508,-6.6508,-6.6625,-6.7014,-6.779,-6.8645,-6.9461,-7.0277,-7.1062,-7.166,-7.1758,-7.1811,-7.1897,-7.1916,-7.1611,-7.1084,-7.148,-7.1597,-7.1011,-7.0894,-7.1285,-7.1792,-7.1753,-7.1597,-7.1909,-7.1987,-7.1987,-7.1987,-7.1987,-7.1987,-7.2143,-7.2495,-7.2807,-7.2885,-7.3236,-7.351,-7.3588,-7.3588,-7.3512,-7.3525,-7.3223,-7.2842,-7.2846,-7.2108,-7.1484,-7.1199,-7.073,-7.0133,-6.9656,-6.8479,-6.7802,-6.7539,-6.692,-6.6379,-6.6301,-6.6185,-6.6185,-6.6185,-6.6185,-6.6185,-6.6185,-6.6134,-6.608,-5.7338,-5.7558,-5.7395,-5.7528,-5.779,-5.7584,-5.7884,-5.8446,-5.8502,-5.8802,-5.9253,-5.929,-5.944,-5.9778,-6.0342,-6.0492,-6.0116,-6.0116,-5.9966,-5.9741,-5.9703,-5.9703,-5.9853,-6.0604,-6.098,-6.1149,-6.1883,-6.2785,-6.3579,-6.4219,-6.478,-6.5375,-6.5413,-6.5413,-6.5413,-6.5413,-6.558,-6.5844,-6.5951,-6.6126,-6.6389,-6.6446,-6.6508,-6.6508,-6.6508,-6.6508,-6.6508,-6.6508,-6.6508,-6.6508,-6.6508,-6.6508,-6.6508,-6.6508,-6.6508,-6.6586,-6.7324,-6.8062,-6.8684,-6.9694,-7.058,-7.1205,-7.1562,-7.1737,-7.1881,-7.1659,-7.1328,-7.1276,-7.1285,-7.1324,-7.1363,-7.1675,-7.1987,-7.1987,-7.1987,-7.1987,-7.1987,-7.1987,-7.1987,-7.2065,-7.23,-7.2417,-7.2495,-7.3197,-7.3588,-7.3666,-7.4173,-7.4486,-7.4486,-7.4486,-7.453,-7.4545,-7.4084,-7.3585,-7.3317,-7.2694,-7.2029,-7.1702,-7.1384,-7.0922,-7.0343,-6.9067,-6.8179,-6.7859,-6.7307,-6.6688,-6.634,-6.6224,-6.6185,-6.6185,-6.6185,-6.6185,-6.6165,-6.6134,-6.608,-5.7213,-5.7313,-5.7631,-5.7955,-5.8237,-5.8479,-5.8892,-5.9122,-5.9178,-5.9178,-5.929,-5.929,-5.9741,-6.0417,-6.068,-6.1055,-6.1618,-6.1768,-6.1355,-6.068,-6.0604,-6.0604,-6.0642,-6.143,-6.1881,-6.1976,-6.2862,-6.3423,-6.3769,-6.4595,-6.5175,-6.536,-6.5413,-6.5413,-6.5413,-6.5429,-6.5494,-6.573,-6.5869,-6.6052,-6.6187,-6.6398,-6.6493,-6.6508,-6.6508,-6.6508,-6.6508,-6.6508,-6.6508,-6.6508,-6.6508,-6.6508,-6.6508,-6.6508,-6.6508,-6.6625,-6.7285,-6.7713,-6.7985,-6.9267,-7.0075,-7.0452,-7.1134,-7.1459,-7.1395,-7.107,-7.0973,-7.1318,-7.1245,-7.1089,-7.1714,-7.2026,-7.2065,-7.1987,-7.2065,-7.2143,-7.2104,-7.2065,-7.2065,-7.23,-7.2846,-7.3275,-7.3471,-7.4017,-7.4486,-7.4525,-7.472,-7.4876,-7.4954,-7.4954,-7.4689,-7.474,-7.471,-7.4444,-7.3864,-7.3242,-7.2651,-7.2158,-7.178,-7.1416,-7.1011,-7.0037,-6.9216,-6.8738,-6.7733,-6.7114,-6.665,-6.6495,-6.6224,-6.6185,-6.6185,-6.6185,-6.6165,-6.6134,-6.608,-5.7363,-5.7607,-5.7726,-5.7983,-5.8297,-5.8428,-5.8644,-5.8927,-5.8947,-5.9101,-5.9272,-5.929,-5.9778,-6.0604,-6.1168,-6.1881,-6.2707,-6.3195,-6.2745,-6.1618,-6.143,-6.143,-6.1581,-6.2294,-6.297,-6.3537,-6.4124,-6.4419,-6.4562,-6.5041,-6.5368,-6.5413,-6.5413,-6.5413,-6.5413,-6.5429,-6.5494,-6.569,-6.5782,-6.5928,-6.6158,-6.6272,-6.6381,-6.6501,-6.6508,-6.6508,-6.6508,-6.6508,-6.6508,-6.6508,-6.6508,-6.6508,-6.6508,-6.6508,-6.6508,-6.6508,-6.6742,-6.7208,-6.7752,-6.8257,-6.8925,-6.943,-6.9855,-6.9967,-7.0123,-7.0472,-7.0508,-7.0537,-7.0972,-7.1558,-7.1363,-7.226,-7.2612,-7.2065,-7.2534,-7.2885,-7.2924,-7.3354,-7.3705,-7.3744,-7.3978,-7.4134,-7.429,-7.4876,-7.5384,-7.5462,-7.5813,-7.6164,-7.6203,-7.6086,-7.6292,-7.631,-7.5926,-7.5351,-7.4844,-7.4258,-7.3672,-7.293,-7.2338,-7.1822,-7.14,-7.0938,-7.0165,-6.928,-6.8313,-6.7539,-6.7075,-6.665,-6.6301,-6.6185,-6.6185,-6.6185,-6.6175,-6.6134,-6.6069,-5.7338,-5.7583,-5.7763,-5.7914,-5.8142,-5.8253,-5.8428,-5.8624,-5.8747,-5.8908,-5.9046,-5.9215,-5.9853,-6.0736,-6.1506,-6.2444,-6.3533,-6.4096,-6.3721,-6.2782,-6.2369,-6.2294,-6.2407,-6.3158,-6.3759,-6.4364,-6.501,-6.5192,-6.4944,-6.5547,-6.5719,-6.5452,-6.5413,-6.5413,-6.5413,-6.5413,-6.5465,-6.558,-6.5638,-6.5844,-6.6134,-6.6467,-6.6919,-6.7378,-6.748,-6.7635,-6.7829,-6.7635,-6.7324,-6.713,-6.7285,-6.7441,-6.7441,-6.7208,-6.6975,-6.6936,-6.6703,-6.678,-6.7285,-6.7985,-6.849,-6.9042,-6.9724,-7.0149,-7.0292,-7.0814,-7.0778,-7.0693,-7.1636,-7.226,-7.2026,-7.2885,-7.3432,-7.3002,-7.3432,-7.3705,-7.3822,-7.4173,-7.4447,-7.4486,-7.4759,-7.4915,-7.5149,-7.5735,-7.6242,-7.636,-7.675,-7.7101,-7.7101,-7.7029,-7.7083,-7.7055,-7.671,-7.6211,-7.5859,-7.5312,-7.4726,-7.3828,-7.2948,-7.2296,-7.1698,-7.1219,-7.0518,-6.9589,-6.8622,-6.7733,-6.7191,-6.6611,-6.6185,-6.6185,-6.6185,-6.6185,-6.6175,-6.6102,-6.6036,-5.7188,-5.7239,-5.7583,-5.7763,-5.7774,-5.8074,-5.8172,-5.8341,-5.8603,-5.8693,-5.8756,-5.929,-6.0022,-6.0942,-6.1674,-6.282,-6.4079,-6.4267,-6.4359,-6.4096,-6.3683,-6.3345,-6.3458,-6.4059,-6.4492,-6.4855,-6.5672,-6.574,-6.5224,-6.6097,-6.6254,-6.549,-6.5413,-6.5413,-6.5413,-6.5413,-6.5566,-6.5665,-6.5824,-6.609,-6.631,-6.7054,-6.8016,-6.8962,-6.8948,-6.9228,-6.9733,-6.9344,-6.8684,-6.8101,-6.8529,-6.8839,-6.8878,-6.8334,-6.8024,-6.8024,-6.7208,-6.7169,-6.7324,-6.8567,-6.9383,-6.9578,-7.071,-7.1712,-7.1583,-7.1759,-7.1995,-7.1984,-7.2807,-7.3354,-7.3432,-7.4095,-7.4525,-7.4642,-7.4642,-7.4642,-7.4642,-7.4759,-7.4954,-7.4993,-7.5384,-7.5894,-7.5891,-7.6555,-7.6867,-7.6984,-7.7062,-7.7062,-7.7104,-7.7073,-7.7087,-7.7057,-7.6985,-7.6797,-7.6367,-7.625,-7.5664,-7.4844,-7.3897,-7.3115,-7.2133,-7.1508,-7.1031,-7.0054,-6.9009,-6.8119,-6.7384,-6.6843,-6.6379,-6.6185,-6.6185,-6.6185,-6.6155,-6.6091,-6.6063,-5.7188,-5.7213,-5.7313,-5.7338,-5.7363,-5.7461,-5.7679,-5.796,-5.8297,-5.8582,-5.8808,-5.9796,-6.0585,-6.1129,-6.2312,-6.3345,-6.4209,-6.4359,-6.466,-6.511,-6.4998,-6.4885,-6.4885,-6.5073,-6.5625,-6.6273,-6.6711,-6.6628,-6.61,-6.6488,-6.6292,-6.5413,-6.5452,-6.5452,-6.5452,-6.6063,-6.633,-6.6445,-6.7026,-6.7343,-6.7564,-6.7969,-6.8756,-6.9682,-6.9403,-6.957,-7.0199,-7.0121,-6.9616,-6.8839,-6.8956,-6.9111,-6.9267,-6.95,-6.9655,-6.9655,-6.9966,-7.016,-7.0238,-7.0588,-7.0898,-7.0953,-7.153,-7.1761,-7.1817,-7.2522,-7.287,-7.308,-7.3705,-7.4212,-7.433,-7.4954,-7.5657,-7.6242,-7.5852,-7.5735,-7.6164,-7.6399,-7.6399,-7.6438,-7.6633,-7.6672,-7.6828,-7.6867,-7.7101,-7.7101,-7.7101,-7.7101,-7.7104,-7.7078,-7.7091,-7.7137,-7.7104,-7.7029,-7.6953,-7.6914,-7.6562,-7.5781,-7.5001,-7.4221,-7.3023,-7.1896,-7.1464,-7.0866,-6.9551,-6.8545,-6.7926,-6.7346,-6.6882,-6.6379,-6.6224,-6.6224,-6.6155,-6.6102,-6.6113,-5.7188,-5.7188,-5.7188,-5.7188,-5.7188,-5.7188,-5.7619,-5.8297,-5.8643,-5.8656,-5.8913,-6.0376,-6.1976,-6.3423,-6.3591,-6.4284,-6.5223,-6.5336,-6.5636,-6.5936,-6.6011,-6.6011,-6.6032,-6.6131,-6.6535,-6.7088,-6.7731,-6.7531,-6.7081,-6.713,-6.6697,-6.6139,-6.5948,-6.5948,-6.6025,-6.6751,-6.7209,-6.7286,-6.7683,-6.7982,-6.8199,-6.877,-6.9579,-7.0359,-7.0279,-7.0432,-7.0821,-7.086,-7.0471,-6.9966,-7.0238,-7.0704,-7.0735,-7.1131,-7.1403,-7.1403,-7.1559,-7.1559,-7.1675,-7.1908,-7.2142,-7.2252,-7.2523,-7.2857,-7.3124,-7.3782,-7.429,-7.3939,-7.4876,-7.5305,-7.5266,-7.5852,-7.6516,-7.6906,-7.6945,-7.6906,-7.714,-7.7023,-7.7257,-7.7414,-7.7335,-7.7296,-7.7531,-7.7375,-7.714,-7.7101,-7.7101,-7.7101,-7.7104,-7.7081,-7.713,-7.7254,-7.7265,-7.7226,-7.7187,-7.7109,-7.7031,-7.6367,-7.5732,-7.5023,-7.3574,-7.2287,-7.1794,-7.1175,-7.0054,-6.9164,-6.8661,-6.8003,-6.7268,-6.6843,-6.6495,-6.6281,-6.625,-6.6284,-6.6256,-5.7188,-5.7188,-5.7261,-5.7333,-5.7369,-5.7442,-5.8201,-5.9066,-5.9476,-5.9264,-5.9276,-6.101,-6.3555,-6.6646,-6.4983,-6.5261,-6.6708,-6.6558,-6.6762,-6.6913,-6.7025,-6.7138,-6.7196,-6.7156,-6.737,-6.7751,-6.8597,-6.8472,-6.8062,-6.8002,-6.7591,-6.7018,-6.6827,-6.6827,-6.698,-6.763,-6.7973,-6.8088,-6.8317,-6.8564,-6.8795,-6.9463,-7.032,-7.1197,-7.1559,-7.1473,-7.152,-7.1481,-7.117,-7.0471,-7.1947,-7.2336,-7.253,-7.2685,-7.2802,-7.2724,-7.2297,-7.2103,-7.2025,-7.2724,-7.3152,-7.3332,-7.4042,-7.4583,-7.4761,-7.5378,-7.554,-7.4993,-7.6203,-7.6399,-7.6203,-7.6633,-7.7062,-7.7375,-7.7921,-7.7921,-7.757,-7.7375,-7.7687,-7.835,-7.7804,-7.7882,-7.7999,-7.7843,-7.7257,-7.7531,-7.7375,-7.7101,-7.7227,-7.7397,-7.7444,-7.7488,-7.7461,-7.7422,-7.7344,-7.7265,-7.7187,-7.6869,-7.6255,-7.5411,-7.3803,-7.2666,-7.2091,-7.133,-7.0286,-6.9783,-6.9628,-6.8854,-6.7926,-6.7423,-6.7152,-6.6812,-6.6499,-6.656,-6.6542,-5.7188,-5.7261,-5.7876,-5.813,-5.8239,-5.8818,-5.9401,-5.9969,-6.0324,-6.0381,-6.0683,-6.2098,-6.4307,-6.6721,-6.581,-6.5824,-6.6858,-6.6988,-6.71,-6.7814,-6.8452,-6.864,-6.8532,-6.8268,-6.8468,-6.9058,-6.9583,-6.9493,-6.9039,-6.8782,-6.847,-6.7744,-6.7668,-6.7668,-6.7782,-6.847,-6.8929,-6.9005,-6.9502,-6.9747,-6.9804,-7.0182,-7.0915,-7.187,-7.2289,-7.2172,-7.1714,-7.1598,-7.152,-7.1481,-7.1714,-7.2219,-7.218,-7.2647,-7.2957,-7.3113,-7.3462,-7.3579,-7.3657,-7.3773,-7.42,-7.4684,-7.493,-7.5719,-7.6343,-7.6435,-7.663,-7.6555,-7.6906,-7.6789,-7.6711,-7.6906,-7.7414,-7.7921,-7.835,-7.8702,-7.8975,-7.9092,-7.9131,-7.9287,-7.9209,-7.9209,-7.9326,-7.8663,-7.8194,-7.8077,-7.7687,-7.7218,-7.7427,-7.7831,-7.7994,-7.8116,-7.8164,-7.8125,-7.7773,-7.7578,-7.7226,-7.71,-7.6599,-7.5902,-7.4303,-7.3052,-7.2435,-7.1562,-7.0556,-7.0286,-7.0247,-6.9512,-6.8506,-6.8197,-6.7877,-6.7652,-6.7377,-6.7205,-6.7251,-5.7188,-5.7261,-5.8058,-5.842,-5.8528,-5.9253,-6.0158,-6.0969,-6.1241,-6.1775,-6.2479,-6.3398,-6.485,-6.6678,-6.6391,-6.6725,-6.7701,-6.7926,-6.8152,-6.8602,-6.8994,-6.9144,-6.9209,-6.906,-6.9244,-6.9797,-7.0109,-7.0014,-6.9791,-6.9387,-6.8929,-6.8547,-6.8508,-6.8508,-6.8623,-6.9349,-6.9731,-6.9807,-7.0151,-7.0402,-7.0451,-7.0631,-7.0965,-7.1727,-7.2095,-7.2025,-7.1636,-7.2025,-7.218,-7.2297,-7.2569,-7.2608,-7.2413,-7.3035,-7.3462,-7.3657,-7.4317,-7.4511,-7.4356,-7.4589,-7.4783,-7.4947,-7.5015,-7.5267,-7.5624,-7.5811,-7.5885,-7.5891,-7.5852,-7.5969,-7.6477,-7.7414,-7.7921,-7.839,-7.9131,-7.9795,-8.0107,-7.999,-7.9912,-8.0068,-7.9912,-7.9951,-7.9834,-7.9444,-7.9131,-7.8975,-7.8897,-7.8507,-7.8562,-7.8926,-7.8935,-7.9018,-7.9022,-7.8867,-7.8359,-7.7851,-7.7265,-7.7096,-7.688,-7.6136,-7.5047,-7.3867,-7.28,-7.1833,-7.0866,-7.0827,-7.0634,-6.986,-6.9357,-6.9125,-6.8882,-6.8607,-6.832,-6.8069,-6.8268,-5.7261,-5.7442,-5.8239,-5.8637,-5.8891,-5.9766,-6.0918,-6.204,-6.223,-6.2932,-6.4091,-6.4284,-6.5093,-6.637,-6.6746,-6.7701,-6.879,-6.9069,-6.8994,-6.9069,-6.9106,-6.9181,-6.9209,-6.9365,-6.9548,-6.9853,-7.0126,-7.026,-7.0135,-6.9769,-6.9502,-6.9387,-6.9387,-6.9387,-6.954,-7.0151,-7.061,-7.0648,-7.0916,-7.1068,-7.1047,-7.116,-7.1528,-7.2186,-7.2782,-7.2988,-7.2996,-7.319,-7.3346,-7.3307,-7.389,-7.3734,-7.3501,-7.3695,-7.42,-7.4162,-7.4744,-7.4861,-7.4744,-7.5016,-7.5211,-7.4675,-7.5015,-7.524,-7.5463,-7.5725,-7.5768,-7.5618,-7.5735,-7.6008,-7.6399,-7.7726,-7.8585,-7.9053,-8.0224,-8.0927,-8.1044,-8.0537,-8.0693,-8.0966,-8.0888,-8.0849,-8.0732,-8.0459,-8.0146,-7.9873,-7.9834,-7.9762,-7.9816,-7.9905,-7.9912,-7.9918,-7.9921,-7.918,-7.8594,-7.8281,-7.7656,-7.7099,-7.6968,-7.6347,-7.5599,-7.4709,-7.353,-7.2192,-7.1446,-7.1291,-7.1098,-7.0595,-7.0247,-7.0092,-6.9712,-6.9319,-6.9069,-6.8907,-6.9322,-5.7587,-5.8275,-5.9072,-5.9796,-6.0501,-6.1579,-6.2315,-6.2923,-6.3163,-6.3723,-6.4264,-6.4322,-6.4943,-6.6032,-6.6633,-6.7701,-6.8881,-6.9181,-6.9181,-6.9181,-6.9181,-6.9181,-6.9268,-6.9521,-6.9701,-6.9853,-7.0073,-7.023,-7.0348,-7.0266,-7.0075,-7.0151,-7.0228,-7.0228,-7.0457,-7.103,-7.1603,-7.1756,-7.2215,-7.2559,-7.2575,-7.2706,-7.3129,-7.4009,-7.48,-7.531,-7.5444,-7.5211,-7.5055,-7.5016,-7.4511,-7.4239,-7.42,-7.4317,-7.4356,-7.4395,-7.4706,-7.5133,-7.5288,-7.5444,-7.6221,-7.7002,-7.7156,-7.7662,-7.7963,-7.7875,-7.7134,-7.7296,-7.7453,-7.796,-7.8975,-7.9209,-7.9795,-8.0341,-8.0693,-8.1239,-8.1708,-8.1708,-8.1513,-8.163,-8.1669,-8.1708,-8.1474,-8.1278,-8.1005,-8.0654,-8.0501,-8.0353,-8.0287,-8.0531,-8.0773,-8.0778,-8.078,-7.9765,-7.8789,-7.8515,-7.8086,-7.7305,-7.6945,-7.6497,-7.5832,-7.5323,-7.4298,-7.3132,-7.2026,-7.1446,-7.1253,-7.1059,-7.0982,-7.0711,-7.0319,-6.9915,-6.9934,-7.0001,-7.0465,-5.7913,-5.9035,-5.947,-6.0086,-6.0909,-6.1858,-6.2618,-6.3121,-6.3331,-6.4047,-6.467,-6.468,-6.5581,-6.6954,-6.6858,-6.7701,-6.8844,-6.9181,-6.9181,-6.9181,-6.9181,-6.9181,-6.9225,-6.9521,-6.97,-6.9816,-7.0019,-7.0251,-7.0402,-7.0402,-7.0479,-7.0533,-7.0801,-7.1068,-7.1412,-7.2367,-7.2864,-7.317,-7.3781,-7.4278,-7.4329,-7.4456,-7.5057,-7.5581,-7.6271,-7.663,-7.6726,-7.692,-7.6764,-7.6726,-7.6415,-7.6182,-7.5988,-7.5677,-7.5288,-7.5133,-7.5599,-7.6026,-7.6259,-7.6454,-7.7063,-7.7198,-7.7572,-7.7679,-7.7989,-7.777,-7.7921,-7.7882,-7.8275,-7.8546,-7.8858,-7.9834,-8.0537,-8.0849,-8.1005,-8.12,-8.1513,-8.1669,-8.1747,-8.1864,-8.1942,-8.1981,-8.2098,-8.1903,-8.1747,-8.1477,-8.1206,-8.1024,-8.0877,-8.112,-8.1484,-8.1445,-8.1289,-8.0312,-7.9336,-7.8984,-7.8437,-7.7656,-7.7104,-7.6659,-7.6169,-7.5624,-7.5083,-7.4231,-7.3187,-7.2142,-7.1446,-7.1253,-7.1291,-7.1358,-7.1042,-7.083,-7.0964,-7.1197,-7.1633,-5.8528,-5.9868,-5.9868,-6.0276,-6.11,-6.1797,-6.249,-6.3049,-6.3423,-6.4242,-6.5353,-6.5206,-6.6165,-6.7631,-6.7722,-6.7851,-6.9144,-6.9181,-6.9181,-6.9181,-6.9181,-6.9203,-6.9332,-6.946,-6.97,-6.9928,-7.0413,-7.0514,-7.073,-7.0801,-7.0801,-7.1221,-7.1756,-7.21,-7.252,-7.3667,-7.4278,-7.4775,-7.5501,-7.5959,-7.6097,-7.6524,-7.6854,-7.6971,-7.7405,-7.793,-7.8241,-7.8357,-7.8357,-7.8202,-7.793,-7.7813,-7.7658,-7.727,-7.6687,-7.6376,-7.7347,-7.758,-7.793,-7.8085,-7.8509,-7.8591,-7.8131,-7.8119,-7.8174,-7.8675,-7.8194,-7.7999,-7.8507,-7.9095,-7.9483,-8.0224,-8.081,-8.0966,-8.1005,-8.1083,-8.1396,-8.1552,-8.163,-8.1786,-8.202,-8.2176,-8.2254,-8.2254,-8.202,-8.199,-8.1722,-8.1775,-8.1667,-8.179,-8.2031,-8.1953,-8.1601,-8.0703,-8.0,-7.9609,-7.8867,-7.789,-7.7472,-7.7122,-7.656,-7.5983,-7.5446,-7.4928,-7.427,-7.3226,-7.2336,-7.1833,-7.2209,-7.2302,-7.1881,-7.1822,-7.2084,-7.2289,-7.2608,-5.9868,-6.0665,-6.0638,-6.1136,-6.1842,-6.2308,-6.2743,-6.3255,-6.4248,-6.4625,-6.5056,-6.5824,-6.6257,-6.6558,-6.7589,-6.834,-6.8978,-6.9181,-6.9181,-6.9181,-6.9337,-6.9482,-6.9536,-6.9681,-7.0138,-7.0456,-7.1125,-7.1455,-7.1642,-7.1642,-7.1909,-7.2444,-7.275,-7.3132,-7.3628,-7.4889,-7.531,-7.5615,-7.6876,-7.764,-7.7806,-7.8707,-7.9219,-7.9598,-8.0263,-8.0805,-8.0533,-8.0261,-7.9795,-7.9095,-7.8396,-7.7658,-7.7153,-7.758,-7.7736,-7.7736,-7.8046,-7.859,-7.9523,-7.9765,-8.0206,-8.0333,-8.0747,-8.1354,-8.0675,-8.0282,-8.0068,-8.0537,-8.0576,-8.0459,-8.0341,-8.0771,-8.1005,-8.1044,-8.1083,-8.1435,-8.1708,-8.1435,-8.1513,-8.1747,-8.202,-8.2176,-8.2293,-8.2293,-8.2296,-8.2305,-8.2315,-8.2289,-8.2297,-8.2301,-8.2068,-8.1875,-8.1914,-8.1133,-8.0351,-8.0,-7.9453,-7.8359,-7.7879,-7.7553,-7.7018,-7.6439,-7.5879,-7.5353,-7.4811,-7.4502,-7.3844,-7.3524,-7.3551,-7.3246,-7.2812,-7.297,-7.3343,-7.3507,-7.3528,-6.1145,-6.1399,-6.1,-6.1254,-6.1996,-6.2423,-6.3112,-6.3907,-6.465,-6.5565,-6.627,-6.6575,-6.68,-6.71,-6.8189,-6.8844,-6.9144,-6.9257,-6.9181,-6.9472,-6.9783,-7.0135,-7.0488,-7.101,-7.1501,-7.1591,-7.2151,-7.2733,-7.2826,-7.2673,-7.2711,-7.3093,-7.3896,-7.4201,-7.4622,-7.6074,-7.6418,-7.68,-7.7717,-7.8672,-7.9045,-7.9854,-8.0635,-8.0663,-8.1458,-8.1786,-8.1659,-8.1077,-8.0494,-7.9795,-7.8823,-7.7891,-7.7464,-7.7425,-7.7425,-7.8046,-7.8474,-7.9057,-7.9648,-7.9878,-8.0497,-8.0883,-8.0992,-8.0505,-8.0778,-8.0995,-8.0771,-8.0224,-8.0732,-8.0966,-8.1005,-8.1005,-8.1317,-8.1435,-8.12,-8.1278,-8.1552,-8.1474,-8.1435,-8.1708,-8.1981,-8.2179,-8.2296,-8.2299,-8.2305,-8.2313,-8.2322,-8.2293,-8.23,-8.2303,-8.1952,-8.1484,-8.164,-8.164,-8.082,-8.0234,-8.0039,-7.9184,-7.8295,-7.793,-7.746,-7.6914,-7.6466,-7.6127,-7.5817,-7.5508,-7.5198,-7.4645,-7.4042,-7.384,-7.3702,-7.3858,-7.4048,-7.4225,-7.4361,-6.2041,-6.1942,-6.1353,-6.1435,-6.2033,-6.2423,-6.3296,-6.4388,-6.5059,-6.6201,-6.7262,-6.7288,-6.7551,-6.834,-6.9091,-6.9557,-6.9579,-6.9707,-6.9847,-7.0197,-7.0625,-7.1131,-7.15,-7.2262,-7.2619,-7.2826,-7.3063,-7.3514,-7.3819,-7.3896,-7.3705,-7.3667,-7.4754,-7.5195,-7.5462,-7.6379,-7.7144,-7.722,-7.8175,-7.8863,-7.9392,-8.05,-8.1003,-8.122,-8.1414,-8.1582,-8.1465,-8.0688,-8.0222,-7.9523,-7.8707,-7.7852,-7.7503,-7.7386,-7.7503,-7.8085,-7.8668,-7.9173,-7.9511,-7.9718,-7.9966,-8.0156,-8.0422,-8.0466,-8.0722,-8.1005,-8.12,-8.0693,-8.1044,-8.1239,-8.1083,-8.1005,-8.12,-8.1356,-8.1317,-8.1239,-8.1278,-8.1513,-8.1669,-8.1903,-8.2101,-8.2224,-8.2302,-8.2305,-8.231,-8.232,-8.229,-8.2297,-8.2304,-8.2304,-8.2109,-8.1679,-8.1758,-8.1953,-8.1523,-8.0859,-8.0547,-8.0016,-7.911,-7.8458,-7.8137,-7.7743,-7.7322,-7.7016,-7.6668,-7.6359,-7.5933,-7.5187,-7.4494,-7.4731,-7.481,-7.4512,-7.456,-7.4812,-7.513,-6.2041,-6.2005,-6.1933,-6.1933,-6.206,-6.2423,-6.3296,-6.4657,-6.5677,-6.6484,-6.7267,-6.7664,-6.8452,-6.9166,-6.9954,-7.0405,-7.0442,-7.1193,-7.1341,-7.1546,-7.1899,-7.2162,-7.2529,-7.2811,-7.3034,-7.3271,-7.3781,-7.4163,-7.4354,-7.4851,-7.5042,-7.5386,-7.5518,-7.5921,-7.6112,-7.6456,-7.7067,-7.7296,-7.8022,-7.8594,-7.9365,-8.0331,-8.1046,-8.1053,-8.0883,-8.0688,-8.0649,-7.995,-7.9328,-7.8707,-7.8396,-7.7969,-7.7658,-7.7775,-7.8046,-7.8357,-7.9018,-7.9415,-7.9451,-7.982,-8.0083,-8.009,-8.0324,-8.0878,-8.1119,-8.1825,-8.2059,-8.163,-8.1474,-8.1513,-8.1239,-8.1044,-8.1161,-8.1435,-8.1552,-8.1669,-8.1747,-8.1981,-8.2098,-8.2179,-8.226,-8.2305,-8.2315,-8.2318,-8.2324,-8.2292,-8.2297,-8.2304,-8.2304,-8.2304,-8.2304,-8.2148,-8.2148,-8.2226,-8.2226,-8.1787,-8.1281,-8.0729,-8.0012,-7.9445,-7.9017,-7.8588,-7.8022,-7.7597,-7.721,-7.6939,-7.6695,-7.6118,-7.5748,-7.5941,-7.5952,-7.5757,-7.5663,-7.5914,-7.6053,-6.2041,-6.2041,-6.2041,-6.2141,-6.2433,-6.3319,-6.4401,-6.5594,-6.6777,-6.7685,-6.8302,-6.9166,-6.9691,-7.0179,-7.0818,-7.1231,-7.1268,-7.1494,-7.1874,-7.2218,-7.2573,-7.3097,-7.3516,-7.4005,-7.4493,-7.4507,-7.4851,-7.5004,-7.508,-7.5365,-7.5442,-7.5594,-7.5959,-7.5921,-7.6074,-7.615,-7.6418,-7.6838,-7.7544,-7.8306,-7.8771,-7.9753,-8.0459,-8.0549,-8.0045,-7.9824,-7.9756,-7.9523,-7.9134,-7.8862,-7.8785,-7.8474,-7.8241,-7.859,-7.8746,-7.8901,-7.9639,-7.9822,-7.9501,-7.9803,-7.9811,-7.9973,-8.0407,-8.1005,-8.1161,-8.1239,-8.1122,-8.1044,-8.1356,-8.1435,-8.1161,-8.1044,-8.1161,-8.1552,-8.1864,-8.2059,-8.2098,-8.2254,-8.2293,-8.2254,-8.2266,-8.2313,-8.2322,-8.229,-8.2295,-8.23,-8.2303,-8.2304,-8.2304,-8.2304,-8.2304,-8.2304,-8.2304,-8.2226,-8.2226,-8.2068,-8.185,-8.1338,-8.0781,-8.0309,-7.976,-7.9117,-7.8564,-7.8138,-7.7751,-7.7442,-7.7213,-7.7035,-7.6894,-7.6816,-7.6941,-7.7078,-7.7059,-7.7015,-7.7015,-6.2041,-6.2041,-6.2259,-6.2575,-6.3057,-6.4009,-6.5245,-6.6582,-6.7551,-6.864,-6.9616,-7.0255,-7.0668,-7.1006,-7.1681,-7.2057,-7.217,-7.2395,-7.2627,-7.3027,-7.3536,-7.3989,-7.4467,-7.4882,-7.5183,-7.5483,-7.5518,-7.5442,-7.5403,-7.548,-7.5709,-7.5997,-7.6303,-7.615,-7.5806,-7.6036,-7.6341,-7.6953,-7.8155,-7.8968,-7.9335,-8.0159,-8.0615,-8.0686,-8.0174,-7.9902,-7.9756,-7.9562,-7.929,-7.9212,-7.9212,-7.9251,-7.9328,-7.9523,-7.9678,-7.9989,-8.0348,-8.0655,-8.0318,-7.9715,-7.9754,-8.0208,-8.0569,-8.0771,-8.0732,-8.1005,-8.1356,-8.0966,-8.1239,-8.1396,-8.1435,-8.1747,-8.1786,-8.2215,-8.2567,-8.2723,-8.2332,-8.2293,-8.2293,-8.2293,-8.2308,-8.2322,-8.229,-8.2304,-8.2304,-8.2304,-8.2304,-8.2304,-8.2304,-8.2304,-8.2304,-8.2304,-8.2265,-8.2187,-8.2107,-8.1948,-8.1753,-8.168,-8.1194,-8.0954,-8.043,-7.9814,-7.9376,-7.9105,-7.868,-7.8049,-7.7807,-7.7808,-7.7653,-7.7472,-7.7659,-7.7882,-7.7867,-7.7784,-7.79,-6.2041,-6.2087,-6.283,-6.343,-6.3841,-6.423,-6.5565,-6.7299,-6.8001,-6.9053,-7.0405,-7.0668,-7.1081,-7.1757,-7.2545,-7.2883,-7.3033,-7.3596,-7.3974,-7.412,-7.4212,-7.4685,-7.4942,-7.5246,-7.5488,-7.5483,-7.5671,-7.5747,-7.5747,-7.5921,-7.6188,-7.6532,-7.68,-7.6647,-7.5844,-7.7182,-7.8328,-7.9245,-8.0582,-8.0876,-8.0821,-8.1451,-8.171,-8.1491,-8.0883,-8.0572,-8.0455,-8.0261,-8.0105,-8.0067,-8.0183,-8.0222,-8.0183,-8.0688,-8.0882,-8.096,-8.1582,-8.1899,-8.1875,-8.053,-8.0493,-8.0882,-8.1239,-8.1317,-8.1942,-8.2215,-8.2254,-8.1903,-8.2293,-8.2371,-8.2606,-8.2801,-8.2723,-8.2762,-8.3074,-8.2918,-8.2489,-8.2293,-8.2293,-8.2302,-8.232,-8.2293,-8.2297,-8.2304,-8.2304,-8.2304,-8.2304,-8.2304,-8.2304,-8.2304,-8.2304,-8.2265,-8.2219,-8.2149,-8.2015,-8.1849,-8.1687,-8.165,-8.1529,-8.1252,-8.1192,-8.0936,-8.0498,-8.0111,-7.9596,-7.8977,-7.8825,-7.8747,-7.8654,-7.8599,-7.845,-7.8569,-7.8569,-7.8631,-7.8746,-6.2041,-6.2078,-6.3165,-6.4155,-6.5016,-6.5718,-6.6722,-6.786,-6.9122,-7.0292,-7.1268,-7.1832,-7.217,-7.2695,-7.3258,-7.3709,-7.3822,-7.3897,-7.4335,-7.4498,-7.459,-7.4859,-7.5114,-7.5341,-7.5697,-7.6132,-7.6303,-7.6609,-7.722,-7.6991,-7.7144,-7.7526,-7.764,-7.7755,-7.8022,-7.871,-7.9054,-7.9567,-8.082,-8.1711,-8.1291,-8.2096,-8.2673,-8.2531,-8.1864,-8.1543,-8.1582,-8.1465,-8.1582,-8.1698,-8.1892,-8.2281,-8.232,-8.2825,-8.2941,-8.3019,-8.3495,-8.3606,-8.3701,-8.3113,-8.2628,-8.229,-8.1981,-8.2098,-8.2293,-8.284,-8.2996,-8.323,-8.3504,-8.366,-8.4089,-8.3543,-8.3308,-8.3074,-8.3113,-8.2684,-8.2332,-8.2332,-8.2296,-8.231,-8.2324,-8.2454,-8.2537,-8.2812,-8.2851,-8.2617,-8.2578,-8.2344,-8.2304,-8.2304,-8.2304,-8.2265,-8.2214,-8.2088,-8.1951,-8.1756,-8.1639,-8.1591,-8.1573,-8.1463,-8.1465,-8.1491,-8.1078,-8.0382,-8.0176,-7.997,-7.9649,-7.9426,-7.9779,-7.9822,-7.9546,-7.9592,-7.9823,-7.9785,-7.9708,-6.2041,-6.2205,-6.3617,-6.4728,-6.5694,-6.6617,-6.7677,-6.8875,-7.0067,-7.1081,-7.2057,-7.2695,-7.3071,-7.3409,-7.3897,-7.4197,-7.4197,-7.4289,-7.4243,-7.4454,-7.4674,-7.4859,-7.5075,-7.5397,-7.587,-7.6458,-7.68,-7.7067,-7.7793,-7.7946,-7.8137,-7.8404,-7.8748,-7.9398,-7.978,-7.9971,-7.9968,-8.0726,-8.2088,-8.2894,-8.2775,-8.314,-8.3657,-8.3465,-8.3097,-8.2825,-8.2903,-8.3213,-8.3563,-8.3757,-8.4068,-8.4456,-8.4456,-8.4456,-8.4418,-8.4418,-8.4462,-8.4467,-8.4479,-8.4551,-8.3887,-8.3344,-8.3191,-8.3152,-8.3191,-8.3738,-8.3894,-8.4167,-8.4597,-8.4714,-8.4714,-8.4128,-8.4167,-8.4011,-8.3816,-8.3465,-8.3152,-8.3191,-8.3197,-8.3096,-8.307,-8.3081,-8.3047,-8.3238,-8.3476,-8.3164,-8.289,-8.2604,-8.2335,-8.2258,-8.2217,-8.2161,-8.2088,-8.1951,-8.182,-8.1698,-8.1591,-8.1528,-8.1491,-8.1491,-8.1491,-8.1491,-8.1078,-8.0795,-8.0731,-8.0564,-8.02,-8.0116,-8.0376,-8.0523,-8.0454,-8.0631,-8.1054,-8.0823,-8.0477,-6.2014,-6.2314,-6.4191,-6.5232,-6.5829,-6.7104,-6.8728,-7.0442,-7.0555,-7.1456,-7.2958,-7.2996,-7.3409,-7.4047,-7.4197,-7.4197,-7.422,-7.4365,-7.4342,-7.4387,-7.4653,-7.4778,-7.5015,-7.5304,-7.6139,-7.6611,-7.7105,-7.7793,-7.8137,-7.8481,-7.8863,-7.9436,-8.0086,-8.0812,-8.1117,-8.1248,-8.1262,-8.2131,-8.3285,-8.3939,-8.4031,-8.4749,-8.4943,-8.4766,-8.4573,-8.4495,-8.4534,-8.4651,-8.4651,-8.4651,-8.4651,-8.4612,-8.4573,-8.4495,-8.4495,-8.46,-8.4801,-8.4968,-8.5141,-8.5274,-8.541,-8.5221,-8.526,-8.5065,-8.4675,-8.4636,-8.4831,-8.4948,-8.5221,-8.5143,-8.5026,-8.526,-8.5456,-8.5377,-8.5299,-8.4987,-8.4597,-8.4522,-8.4492,-8.4465,-8.4477,-8.4411,-8.4294,-8.436,-8.4098,-8.388,-8.3514,-8.2981,-8.2647,-8.2131,-8.2074,-8.1982,-8.1903,-8.1756,-8.165,-8.1607,-8.1546,-8.1504,-8.1491,-8.1491,-8.1491,-8.1491,-8.131,-8.1208,-8.1311,-8.1129,-8.0684,-8.0675,-8.0893,-8.0977,-8.0862,-8.0939,-8.1093,-8.1093,-8.0862,-6.2331,-6.303,-6.4725,-6.5816,-6.6716,-6.8726,-7.0278,-7.1306,-7.1381,-7.2282,-7.3859,-7.3822,-7.3934,-7.4197,-7.4197,-7.4197,-7.422,-7.4266,-7.4342,-7.4498,-7.4695,-7.4917,-7.5285,-7.5874,-7.6728,-7.7546,-7.8213,-7.8748,-7.9551,-7.9704,-8.0124,-8.1041,-8.1156,-8.1843,-8.2281,-8.2562,-8.2779,-8.3253,-8.4449,-8.4816,-8.5265,-8.5874,-8.6027,-8.6078,-8.601,-8.601,-8.601,-8.6127,-8.6127,-8.6127,-8.6205,-8.6243,-8.6243,-8.631,-8.6324,-8.6412,-8.6488,-8.6584,-8.6644,-8.719,-8.7446,-8.7525,-8.7876,-8.6705,-8.5924,-8.5534,-8.5924,-8.6158,-8.6471,-8.6627,-8.6549,-8.6627,-8.6588,-8.6353,-8.6197,-8.5768,-8.5416,-8.527,-8.5281,-8.5266,-8.531,-8.5271,-8.5175,-8.499,-8.4746,-8.4579,-8.4182,-8.3623,-8.2999,-8.2506,-8.1954,-8.1873,-8.1756,-8.165,-8.1639,-8.1564,-8.155,-8.1491,-8.1491,-8.1491,-8.1491,-8.1491,-8.1491,-8.1453,-8.1374,-8.1291,-8.1167,-8.1154,-8.1093,-8.1093,-8.1016,-8.1054,-8.1093,-8.1093,-8.1093,-6.2766,-6.3448,-6.5294,-6.6901,-6.8413,-6.9851,-7.1118,-7.2019,-7.217,-7.2958,-7.4122,-7.416,-7.4197,-7.4197,-7.4197,-7.4197,-7.4197,-7.4335,-7.4409,-7.4519,-7.4874,-7.5283,-7.5818,-7.6424,-7.7355,-7.829,-7.9054,-7.9513,-8.0353,-8.0582,-8.0888,-8.1614,-8.1805,-8.2377,-8.2886,-8.3303,-8.3765,-8.4276,-8.4907,-8.5304,-8.5846,-8.6465,-8.6855,-8.7069,-8.7069,-8.7069,-8.7137,-8.7254,-8.737,-8.7331,-8.737,-8.7797,-8.7779,-8.7815,-8.7822,-8.7884,-8.8134,-8.8287,-8.8466,-8.8798,-8.9122,-8.9359,-8.9711,-8.8813,-8.8071,-8.7681,-8.7798,-8.7954,-8.8227,-8.8422,-8.8227,-8.7993,-8.7603,-8.7212,-8.6783,-8.6314,-8.6126,-8.5939,-8.5887,-8.5898,-8.5891,-8.5866,-8.575,-8.5585,-8.5513,-8.5494,-8.5075,-8.431,-8.3641,-8.2945,-8.2219,-8.1738,-8.1688,-8.1602,-8.158,-8.1558,-8.1526,-8.1491,-8.1491,-8.1491,-8.1491,-8.1478,-8.1466,-8.14,-8.1319,-8.1234,-8.1184,-8.1139,-8.1093,-8.1093,-8.1093,-8.1093,-8.1093,-8.1093,-8.1093,-6.3265,-6.3584,-6.5934,-6.8328,-7.0398,-7.063,-7.1531,-7.2921,-7.2996,-7.3446,-7.4122,-7.4197,-7.4197,-7.4197,-7.4197,-7.4197,-7.4266,-7.4365,-7.4498,-7.4601,-7.5203,-7.5742,-7.6255,-7.6862,-7.8022,-7.8901,-7.9551,-8.0047,-8.0506,-8.1003,-8.1538,-8.192,-8.2149,-8.2835,-8.3832,-8.4157,-8.4677,-8.5333,-8.5757,-8.6106,-8.6115,-8.6554,-8.703,-8.7176,-8.7215,-8.7215,-8.7487,-8.7759,-8.8031,-8.8031,-8.8264,-8.8885,-8.8886,-8.894,-8.898,-8.9064,-8.9262,-8.9402,-8.9618,-8.9867,-9.0062,-9.014,-9.014,-9.0179,-8.9945,-8.9203,-8.9086,-8.9086,-8.9242,-8.9281,-8.9125,-8.9008,-8.8735,-8.8266,-8.7759,-8.7251,-8.6825,-8.6739,-8.6757,-8.6782,-8.6936,-8.6882,-8.6449,-8.6288,-8.6333,-8.6428,-8.6001,-8.5163,-8.4347,-8.3529,-8.2605,-8.179,-8.1612,-8.1562,-8.1526,-8.1553,-8.1528,-8.1491,-8.1491,-8.1491,-8.1491,-8.1466,-8.144,-8.136,-8.1277,-8.1176,-8.1139,-8.1108,-8.1093,-8.1093,-8.1093,-8.1093,-8.1131,-8.1208,-8.117,-6.3748,-6.4782,-6.7148,-6.9421,-7.1321,-7.1419,-7.2357,-7.3859,-7.3897,-7.3972,-7.4197,-7.4197,-7.4197,-7.4197,-7.422,-7.422,-7.4319,-7.4598,-7.4606,-7.5115,-7.5702,-7.637,-7.6939,-7.791,-7.8805,-7.9321,-7.9895,-8.0659,-8.1385,-8.2034,-8.2722,-8.3524,-8.3601,-8.4038,-8.5164,-8.5445,-8.591,-8.6556,-8.7048,-8.7103,-8.6933,-8.6943,-8.7215,-8.772,-8.7992,-8.8264,-8.8574,-8.8963,-8.9079,-8.9118,-8.9235,-8.943,-8.9481,-8.9699,-8.9748,-8.9715,-8.9966,-9.0168,-9.0371,-9.0687,-9.0921,-9.1194,-9.1389,-9.1741,-9.1507,-9.0609,-9.0101,-9.0101,-9.0101,-9.014,-9.014,-9.0023,-8.9828,-8.932,-8.8813,-8.8227,-8.7645,-8.7616,-8.7635,-8.7776,-8.8011,-8.7727,-8.7288,-8.7108,-8.7159,-8.6991,-8.6635,-8.5965,-8.5049,-8.4195,-8.2941,-8.2133,-8.1657,-8.1516,-8.1491,-8.1491,-8.1491,-8.1491,-8.1491,-8.1491,-8.1491,-8.144,-8.1387,-8.1319,-8.1273,-8.1184,-8.1124,-8.1093,-8.1093,-8.1093,-8.1285,-8.1362,-8.1554,-8.167,-8.1477,-6.4239,-6.5333,-6.8037,-7.0387,-7.2012,-7.2245,-7.2996,-7.4047,-7.4197,-7.4197,-7.4197,-7.4197,-7.4197,-7.422,-7.4289,-7.4544,-7.468,-7.4937,-7.5534,-7.6049,-7.6498,-7.7246,-7.8065,-7.8958,-7.9398,-7.9895,-8.0697,-8.1499,-8.2302,-8.2684,-8.3295,-8.4213,-8.4462,-8.5161,-8.6319,-8.6891,-8.7255,-8.7929,-8.8533,-8.8487,-8.8069,-8.8147,-8.8264,-8.8769,-8.8924,-8.9196,-8.9429,-8.974,-8.9779,-8.9818,-8.9856,-9.0206,-9.0423,-9.078,-9.0785,-9.0777,-9.0878,-9.1116,-9.1233,-9.1428,-9.178,-9.1975,-9.2092,-9.2248,-9.2248,-9.1467,-9.1389,-9.1389,-9.1389,-9.1428,-9.1428,-9.135,-9.096,-9.0452,-9.015,-8.9726,-8.9098,-8.8729,-8.8677,-8.8686,-8.8667,-8.8332,-8.7918,-8.7545,-8.75,-8.6867,-8.661,-8.6261,-8.5488,-8.4792,-8.3554,-8.2548,-8.2045,-8.162,-8.1491,-8.1491,-8.1491,-8.1491,-8.1491,-8.1491,-8.1491,-8.14,-8.1333,-8.1277,-8.1258,-8.1154,-8.1108,-8.1093,-8.1093,-8.1093,-8.14,-8.1708,-8.1939,-8.2247,-8.2324,-6.4922,-6.6003,-6.8766,-7.1084,-7.2748,-7.2883,-7.3371,-7.4122,-7.4197,-7.4197,-7.4197,-7.4197,-7.4197,-7.4266,-7.4531,-7.4951,-7.5374,-7.5765,-7.649,-7.7034,-7.7673,-7.8427,-7.9133,-7.9837,-8.0468,-8.1156,-8.1881,-8.2493,-8.3181,-8.3563,-8.4002,-8.4442,-8.501,-8.567,-8.7055,-8.7809,-8.8142,-8.8928,-8.9468,-8.9662,-8.9623,-8.9584,-8.9507,-8.9546,-8.9662,-8.9701,-9.0051,-9.0323,-9.0439,-9.0499,-9.0664,-9.0933,-9.1264,-9.1632,-9.1666,-9.1644,-9.1819,-9.2092,-9.2287,-9.2248,-9.2365,-9.2443,-9.2482,-9.2482,-9.2482,-9.2443,-9.2404,-9.2365,-9.2365,-9.2326,-9.2326,-9.2056,-9.1627,-9.0973,-9.075,-9.0461,-8.9826,-8.9267,-8.9146,-8.9108,-8.91,-8.8798,-8.8338,-8.7952,-8.7577,-8.6958,-8.6455,-8.6068,-8.5643,-8.5024,-8.4134,-8.3206,-8.2509,-8.2084,-8.1658,-8.1491,-8.1491,-8.1491,-8.1491,-8.1491,-8.1478,-8.1387,-8.1319,-8.1277,-8.1244,-8.1216,-8.1147,-8.1093,-8.1093,-8.1323,-8.1631,-8.2093,-8.2708,-8.3016,-8.3401,-6.6202,-6.9075,-7.0022,-7.1374,-7.2808,-7.2921,-7.3409,-7.4122,-7.4197,-7.4197,-7.4197,-7.4197,-7.4197,-7.4272,-7.4972,-7.5483,-7.5892,-7.6526,-7.6949,-7.732,-7.8955,-7.9782,-8.0487,-8.1232,-8.2149,-8.2684,-8.3142,-8.3792,-8.4059,-8.4594,-8.5034,-8.5226,-8.5527,-8.6302,-8.7301,-8.8029,-8.8732,-8.962,-9.0323,-9.0556,-9.0323,-9.0206,-9.0051,-9.0206,-9.0556,-9.1022,-9.1449,-9.1721,-9.176,-9.1742,-9.1646,-9.1746,-9.1793,-9.1937,-9.192,-9.1995,-9.2209,-9.2365,-9.2443,-9.2482,-9.2482,-9.2482,-9.2482,-9.2482,-9.2482,-9.2482,-9.2443,-9.2443,-9.2404,-9.2326,-9.2213,-9.1748,-9.1246,-9.0176,-8.9601,-8.9238,-8.8774,-8.8406,-8.8177,-8.8666,-8.9165,-8.8701,-8.8107,-8.7925,-8.7925,-8.7306,-8.6648,-8.63,-8.6184,-8.5488,-8.4714,-8.394,-8.3089,-8.2238,-8.1658,-8.1542,-8.1491,-8.1491,-8.1607,-8.1762,-8.1723,-8.1412,-8.1344,-8.175,-8.1522,-8.1377,-8.1285,-8.1631,-8.1708,-8.1977,-8.2054,-8.2439,-8.3208,-8.3862,-8.4286]},{"header":{"parameterUnit":"m.s-1","parameterCategory":1,"la1":31.0,"la2":29.5877,"lo1":-88.7671,"lo2":-86.6584,"dx":0.0162,"dy":0.0185,"nx":115,"ny":88,"refTime":"2023-02-06T18:00:00:Z","depth":0,"parameterNumber":3,"parameterNumberName":"V-component_of_WINDS"},"data":[0.0,0.0,0.0,0.0,0.0,0.0,0.0,0.0,0.0,0.0,0.0,0.0,0.0,0.0,0.0,0.0,0.0,0.0,0.0,0.0,0.0,0.0,0.0,0.0,0.0,0.0,0.0,0.0,0.0,0.0,0.0,0.0,0.0,0.0,0.0,0.0,0.0,0.0,0.0,0.0,0.0,0.0,0.0,0.0,0.0,0.0,0.0,0.0,0.0,0.0,0.0,0.0,0.0,0.0,0.0,0.0,0.0,0.0,0.0,0.0,0.0,0.0,0.0,0.0,0.0,0.0,0.0,0.0,0.0,0.0,0.0,0.0,0.0,0.0,0.0,0.0,0.0,0.0,0.0,0.0,0.0,0.0,0.0,0.0,0.0,0.0,0.0,0.0,0.0,0.0,0.0,0.0,0.0,0.0,0.0,0.0,0.0,0.0,0.0,0.0,0.0,0.0,0.0,0.0,0.0,0.0,0.0,0.0,0.0,0.0,0.0,0.0,0.0,0.0,0.0,0.0,0.0,0.0,0.0,0.0,0.0,0.0,0.0,0.0,0.0,0.0,0.0,0.0,0.0,0.0,0.0,0.0,0.0,0.0,0.0,0.0,0.0,0.0,0.0,0.0,0.0,0.0,0.0,0.0,0.0,0.0,0.0,0.0,0.0,0.0,0.0,0.0,0.0,0.0,0.0,0.0,0.0,0.0,0.0,0.0,0.0,0.0,0.0,0.0,0.0,0.0,0.0,0.0,0.0,0.0,0.0,0.0,0.0,0.0,0.0,0.0,0.0,0.0,0.0,0.0,0.0,0.0,0.0,0.0,0.0,0.0,0.0,0.0,0.0,0.0,0.0,0.0,0.0,0.0,0.0,0.0,0.0,0.0,0.0,0.0,0.0,0.0,0.0,0.0,0.0,0.0,0.0,0.0,0.0,0.0,0.0,0.0,0.0,0.0,0.0,0.0,0.0,0.0,0.0,0.0,0.0,0.0,0.0,0.0,0.0,0.0,0.0,0.0,0.0,0.0,0.0,0.0,0.0,0.0,0.0,0.0,0.0,0.0,0.0,0.0,0.0,0.0,0.0,0.0,0.0,0.0,0.0,0.0,0.0,0.0,0.0,0.0,0.0,0.0,0.0,0.0,0.0,0.0,0.0,0.0,0.0,0.0,0.0,0.0,0.0,0.0,0.0,0.0,0.0,0.0,0.0,0.0,0.0,0.0,0.0,0.0,0.0,0.0,0.0,0.0,0.0,0.0,0.0,0.0,0.0,0.0,0.0,0.0,0.0,0.0,0.0,0.0,0.0,0.0,0.0,0.0,0.0,0.0,0.0,0.0,0.0,0.0,0.0,0.0,0.0,0.0,0.0,0.0,0.0,0.0,0.0,0.0,0.0,0.0,0.0,0.0,0.0,0.0,0.0,0.0,0.0,0.0,0.0,0.0,0.0,0.0,0.0,0.0,0.0,0.0,0.0,0.0,0.0,0.0,0.0,0.0,0.0,0.0,0.0,0.0,0.0,0.0,0.0,0.0,0.0,0.0,0.0,0.0,0.0,0.0,0.0,0.0,0.0,0.0,0.0,0.0,0.0,0.0,0.0,0.0,0.0,0.0,0.0,0.0,0.0,0.0,0.0,0.0,0.0,0.0,0.0,0.0,0.0,0.0,0.0,0.0,0.0,0.0,0.0,0.0,0.0,0.0,0.0,0.0,0.0,0.0,0.0,0.0,0.0,0.0,0.0,0.0,0.0,0.0,0.0,0.0,0.0,0.0,0.0,0.0,0.0,0.0,0.0,0.0,0.0,0.0,0.0,0.0,0.0,0.0,0.0,0.0,0.0,0.0,0.0,0.0,0.0,0.0,0.0,0.0,0.0,0.0,0.0,0.0,0.0,0.0,0.0,0.0,0.0,0.0,0.0,0.0,0.0,0.0,0.0,0.0,0.0,0.0,0.0,0.0,0.0,0.0,0.0,0.0,0.0,0.0,0.0,0.0,0.0,0.0,0.0,0.0,0.0,0.0,0.0,0.0,0.0,0.0,0.0,0.0,0.0,0.0,0.0,0.0,0.0,0.0,0.0,0.0,0.0,0.0,0.0,0.0,0.0,0.0,0.0,0.0,0.0,0.0,0.0,0.0,0.0,0.0,0.0,0.0,0.0,0.0,0.0,0.0,0.0,0.0,0.0,0.0,0.0,0.0,0.0,0.0,0.0,0.0,0.0,0.0,0.0,0.0,0.0,0.0,0.0,0.0,0.0,0.0,0.0,0.0,0.0,0.0,0.0,0.0,0.0,0.0,0.0,0.0,0.0,0.0,0.0,0.0,0.0,0.0,0.0,0.0,0.0,0.0,0.0,0.0,0.0,0.0,0.0,0.0,0.0,0.0,0.0,0.0,0.0,0.0,0.0,0.0,0.0,0.0,0.0,0.0,0.0,0.0,0.0,0.0,0.0,0.0,0.0,0.0,0.0,0.0,0.0,0.0,0.0,0.0,0.0,0.0,0.0,0.0,0.0,0.0,0.0,0.0,0.0,0.0,0.0,0.0,0.0,0.0,0.0,0.0,0.0,0.0,0.0,0.0,0.0,0.0,0.0,0.0,0.0,0.0,0.0,0.0,0.0,0.0,0.0,0.0,0.0,0.0,0.0,0.0,0.0,0.0,0.0,0.0,0.0,0.0,0.0,0.0,0.0,0.0,0.0,0.0,0.0,0.0,0.0,0.0,0.0,0.0,0.0,0.0,0.0,0.0,0.0,0.0,0.0,0.0,0.0,0.0,0.0,0.0,0.0,0.0,0.0,0.0,0.0,0.0,0.0,0.0,0.0,0.0,0.0,0.0,0.0,0.0,0.0,0.0,0.0,0.0,0.0,0.0,0.0,0.0,0.0,0.0,0.0,0.0,0.0,0.0,0.0,0.0,0.0,0.0,0.0,0.0,0.0,0.0,0.0,0.0,0.0,0.0,0.0,0.0,0.0,0.0,0.0,0.0,0.0,0.0,0.0,0.0,0.0,0.0,0.0,0.0,0.0,0.0,0.0,0.0,0.0,0.0,0.0,0.0,0.0,0.0,0.0,0.0,0.0,0.0,0.0,0.0,0.0,0.0,0.0,0.0,0.0,0.0,0.0,0.0,0.0,0.0,0.0,0.0,0.0,0.0,0.0,0.0,0.0,0.0,0.0,0.0,0.0,0.0,0.0,0.0,0.0,0.0,0.0,0.0,0.0,0.0,0.0,0.0,0.0,0.0,0.0,0.0,0.0,0.0,0.0,0.0,0.0,0.0,0.0,0.0,0.0,0.0,0.0,0.0,0.0,0.0,0.0,0.0,0.0,0.0,0.0,0.0,0.0,0.0,0.0,0.0,0.0,0.0,0.0,0.0,0.0,0.0,0.0,0.0,0.0,0.0,0.0,0.0,0.0,0.0,0.0,0.0,0.0,0.0,0.0,0.0,0.0,0.0,0.0,0.0,0.0,0.0,0.0,0.0,0.0,0.0,0.0,0.0,0.0,0.0,0.0,0.0,0.0,0.0,0.0,0.0,0.0,0.0,0.0,0.0,0.0,0.0,0.0,0.0,0.0,0.0,0.0,0.0,0.0,0.0,0.0,0.0,0.0,0.0,0.0,0.0,0.0,0.0,0.0,0.0,0.0,0.0,0.0,0.0,0.0,0.0,0.0,0.0,0.0,0.0,0.0,0.0,0.0,0.0,0.0,0.0,0.0,0.0,0.0,0.0,0.0,0.0,0.0,0.0,0.0,0.0,0.0,0.0,0.0,0.0,0.0,0.0,0.0,0.0,0.0,0.0,0.0,0.0,0.0,0.0,0.0,0.0,0.0,0.0,0.0,0.0,0.0,0.0,0.0,0.0,0.0,0.0,0.0,0.0,0.0,0.0,0.0,0.0,0.0,0.0,0.0,0.0,0.0,0.0,0.0,0.0,0.0,0.0,0.0,0.0,0.0,0.0,0.0,0.0,0.0,0.0,0.0,0.0,0.0,0.0,0.0,0.0,0.0,0.0,0.0,0.0,0.0,0.0,0.0,0.0,0.0,0.0,0.0,0.0,0.0,0.0,0.0,0.0,0.0,0.0,0.0,0.0,0.0,0.0,0.0,0.0,0.0,0.0,0.0,0.0,0.0,0.0,0.0,0.0,0.0,0.0,0.0,0.0,0.0,0.0,0.0,0.0,0.0,0.0,0.0,0.0,0.0,0.0,0.0,0.0,0.0,0.0,0.0,0.0,0.0,0.0,0.0,0.0,0.0,0.0,0.0,0.0,0.0,0.0,0.0,0.0,-0.2691,0.0,0.0,0.0,0.0,0.0,0.0,0.0,0.0,0.0,0.0,0.0,0.0,0.0,0.0,0.0,0.0,0.0,0.0,0.0,0.0,0.0,0.0,0.0,0.0,0.0,0.0,0.0,0.0,0.0,0.0,0.0,0.0,0.0,0.0,0.0,0.0,0.0,0.0,0.0,0.0,0.0,0.0,0.0,0.0,0.0,0.0,0.0,0.0,0.0,0.0,0.0,0.0,0.0,0.0,0.0,0.0,0.0,0.0,0.0,0.0,0.0,0.0,0.0,0.0,0.0,0.0,0.0,0.0,0.0,0.0,0.0,0.0,0.0,0.0,0.0,0.0,0.0,0.0,0.0,0.0,0.0,0.0,0.0,0.0,0.0,0.0,0.0,0.0,0.0,0.0,0.0,0.0,0.0,0.0,0.0,0.0,0.0,0.0,0.0,0.0,0.0,0.0,0.0,0.0,0.0,0.0,0.0,0.0,0.0,0.0,-0.5712,-0.4789,-0.3868,-0.3449,-0.3363,0.0,0.0,0.0,0.0,0.0,0.0,0.0,0.0,0.0,0.0,0.0,0.0,0.0,0.0,0.0,0.0,0.0,0.0,0.0,0.0,0.0,0.0,0.0,0.0,0.0,0.0,0.0,0.0,0.0,0.0,0.0,0.0,0.0,0.0,0.0,0.0,0.0,0.0,0.0,0.0,0.0,0.0,0.0,0.0,0.0,0.0,0.0,0.0,0.0,0.0,0.0,0.0,0.0,0.0,0.0,0.0,0.0,0.0,0.0,0.0,0.0,0.0,0.0,0.0,0.0,0.0,0.0,0.0,0.0,0.0,0.0,0.0,0.0,0.0,0.0,0.0,0.0,0.0,0.0,0.0,0.0,0.0,0.0,0.0,0.0,0.0,0.0,0.0,0.0,0.0,0.0,0.0,0.0,0.0,0.0,0.0,0.0,0.0,0.0,0.0,0.0,0.0,0.0,0.0,0.0,0.0,0.0,0.0,0.0,0.0,0.0,0.0,-0.4521,-0.3852,-0.3685,0.0,0.0,0.0,0.0,0.0,0.0,0.0,0.0,0.0,0.0,0.0,0.0,0.0,0.0,0.0,0.0,0.0,0.0,0.0,0.0,0.0,0.0,0.0,0.0,0.0,0.0,0.0,0.0,0.0,0.0,0.0,0.0,0.0,0.0,0.0,0.0,0.0,0.0,0.0,0.0,0.0,0.0,0.0,0.0,0.0,0.0,0.0,0.0,0.0,0.0,0.0,0.0,0.0,0.0,0.0,0.0,0.0,0.0,0.0,0.0,0.0,0.0,0.0,0.0,0.0,0.0,0.0,0.0,0.0,0.0,0.0,0.0,0.0,0.0,0.0,0.0,0.0,0.0,0.0,0.0,0.0,0.0,0.0,0.0,0.0,0.0,0.0,0.0,0.0,0.0,0.0,0.0,0.0,0.0,0.0,0.0,0.0,0.0,0.0,0.0,0.0,0.0,0.0,0.0,0.0,0.0,0.0,0.0,0.0,0.0,-0.627,-0.5297,-0.447,0.0,-0.2817,0.0,0.0,0.0,0.0,0.0,0.0,0.0,0.0,0.0,0.0,0.0,0.0,0.0,0.0,0.0,0.0,0.0,0.0,0.0,0.0,0.0,0.0,0.0,0.0,0.0,0.0,0.0,0.0,0.0,0.0,0.0,0.0,0.0,0.0,0.0,0.0,0.0,0.0,0.0,0.0,0.0,0.0,0.0,0.0,0.0,0.0,0.0,0.0,0.0,0.0,0.0,0.0,0.0,0.0,0.0,0.0,0.0,0.0,0.0,0.0,0.0,0.0,0.0,0.0,0.0,0.0,0.0,0.0,0.0,0.0,0.0,0.0,0.0,0.0,0.0,0.0,0.0,0.0,0.0,0.0,0.0,0.0,0.0,0.0,0.0,0.0,0.0,0.0,0.0,0.0,0.0,0.0,0.0,0.0,0.0,0.0,0.0,0.0,0.0,0.0,0.0,0.0,0.0,0.0,0.0,0.0,0.0,0.0,0.0,0.0,-0.6516,-0.6117,-0.4682,-0.3533,0.0,0.0,0.0,0.0,0.0,0.0,0.0,0.0,0.0,0.0,0.0,0.0,0.0,0.0,0.0,0.0,0.0,0.0,0.0,0.0,0.0,0.0,0.0,0.0,0.0,0.0,0.0,0.0,0.0,0.0,0.0,0.0,0.0,0.0,0.0,0.0,0.0,0.0,0.0,0.0,0.0,0.0,0.0,0.0,0.0,0.0,0.0,0.0,0.0,0.0,0.0,0.0,0.0,0.0,0.0,0.0,0.0,0.0,0.0,0.0,0.0,0.0,0.0,0.0,0.0,0.0,0.0,0.0,0.0,0.0,0.0,0.0,0.0,0.0,0.0,0.0,0.0,0.0,0.0,0.0,0.0,0.0,0.0,0.0,0.0,0.0,0.0,0.0,0.0,0.0,0.0,0.0,0.0,0.0,0.0,0.0,0.0,0.0,0.0,0.0,0.0,0.0,0.0,0.0,0.0,0.0,0.0,0.0,0.0,0.0,-0.7034,-0.647,-0.5875,-0.4383,-0.3246,-0.2609,0.0,0.0,0.0,0.0,0.0,0.0,0.0,0.0,0.0,0.0,0.0,0.0,0.0,0.0,0.0,0.0,0.0,0.0,0.0,0.0,0.0,0.0,0.0,0.0,0.0,0.0,0.0,0.0,0.0,0.0,0.0,0.0,0.0,0.0,0.0,0.0,0.0,0.0,0.0,0.0,0.0,0.0,0.0,0.0,0.0,0.0,0.0,0.0,0.0,0.0,0.0,0.0,0.0,0.0,0.0,0.0,0.0,0.0,0.0,0.0,0.0,0.0,0.0,0.0,0.0,0.0,0.0,0.0,0.0,0.0,0.0,0.0,0.0,0.0,0.0,0.0,0.0,0.0,0.0,0.0,0.0,0.0,0.0,0.0,0.0,0.0,0.0,0.0,0.0,0.0,0.0,0.0,0.0,0.0,0.0,0.0,0.0,0.0,0.0,0.0,0.0,0.0,0.0,0.0,0.0,0.0,0.0,0.0,-0.6801,-0.6735,-0.5863,-0.4104,-0.3183,-0.2628,0.0,0.0,0.0,0.0,0.0,0.0,0.0,0.0,0.0,0.0,0.0,0.0,0.0,0.0,0.0,0.0,0.0,0.0,0.0,0.0,0.0,0.0,0.0,0.0,0.0,0.0,0.0,0.0,0.0,0.0,0.0,0.0,0.0,0.0,0.0,0.0,0.0,0.0,0.0,0.0,0.0,0.0,0.0,0.0,0.0,0.0,0.0,0.0,0.0,0.0,0.0,0.0,0.0,0.0,0.0,0.0,0.0,0.0,0.0,0.0,0.0,0.0,0.0,0.0,0.0,0.0,0.0,0.0,0.0,0.0,0.0,0.0,0.0,0.0,0.0,0.0,0.0,0.0,0.0,0.0,0.0,0.0,0.0,0.0,0.0,0.0,0.0,0.0,0.0,0.0,0.0,0.0,0.0,0.0,0.0,0.0,0.0,0.0,0.0,0.0,0.0,0.0,0.0,0.0,0.0,0.0,0.0,0.0,0.0,-0.6732,-0.5515,-0.4312,-0.3098,-0.2654,-0.2476,0.0,0.0,0.0,0.0,0.0,0.0,0.0,0.0,0.0,0.0,0.0,0.0,0.0,0.0,0.0,0.0,0.0,0.0,0.0,0.0,0.0,0.0,0.0,0.0,0.0,0.0,0.0,0.0,0.0,0.0,0.0,0.0,0.0,0.0,0.0,0.0,0.0,0.0,0.0,0.0,0.0,0.0,0.0,0.0,0.0,0.0,0.0,0.0,0.0,0.0,0.0,0.0,0.0,0.0,0.0,0.0,0.0,0.0,0.0,0.0,0.0,0.0,0.0,0.0,0.0,0.0,0.0,0.0,0.0,0.0,0.0,0.0,0.0,0.0,0.0,0.0,0.0,0.0,0.0,0.0,0.0,0.0,0.0,0.0,0.0,0.0,0.0,0.0,0.0,0.0,0.0,0.0,0.0,0.0,0.0,0.0,0.0,0.0,0.0,0.0,0.0,0.0,0.0,0.0,0.0,0.0,0.0,0.0,0.0,-0.6214,0.0,-0.3156,-0.2592,-0.2783,-0.2754,0.0,0.0,0.0,0.0,0.0,0.0,0.0,0.0,0.0,0.0,0.0,0.0,0.0,0.0,0.0,0.0,0.0,0.0,0.0,0.0,0.0,0.0,0.0,0.0,0.0,0.0,0.0,0.0,0.0,0.0,0.0,0.0,0.0,0.0,0.0,0.0,0.0,0.0,0.0,0.0,0.0,0.0,0.0,0.0,0.0,0.0,0.0,0.0,0.0,0.0,0.0,0.0,0.0,0.0,0.0,0.0,0.0,0.0,0.0,0.0,0.0,0.0,0.0,0.0,0.0,0.0,0.0,0.0,0.0,0.0,0.0,0.0,0.0,0.0,0.0,0.0,0.0,0.0,0.0,0.0,0.0,0.0,0.0,0.0,0.0,0.0,0.0,0.0,0.0,0.0,0.0,0.0,0.0,0.0,0.0,0.0,0.0,0.0,0.0,0.0,0.0,0.0,0.0,0.0,0.0,0.0,0.0,0.0,-0.7026,-0.5277,-0.3514,-0.2591,-0.2429,-0.3251,-0.3313,0.0,0.0,0.0,0.0,0.0,0.0,0.0,0.0,0.0,0.0,0.0,0.0,0.0,0.0,0.0,0.0,0.0,0.0,0.0,0.0,0.0,0.0,0.0,0.0,0.0,0.0,0.0,0.0,0.0,0.0,0.0,0.0,0.0,0.0,0.0,0.0,0.0,0.0,0.0,0.0,0.0,0.0,0.0,0.0,0.0,0.0,0.0,0.0,0.0,0.0,0.0,0.0,0.0,0.0,0.0,0.0,0.0,0.0,0.0,0.0,0.0,0.0,0.0,0.0,0.0,0.0,0.0,0.0,0.0,0.0,0.0,0.0,0.0,0.0,0.0,0.0,0.0,0.0,0.0,0.0,0.0,0.0,0.0,0.0,0.0,0.0,0.0,0.0,0.0,0.0,0.0,0.0,0.0,0.0,0.0,0.0,0.0,0.0,0.0,0.0,0.0,0.0,0.0,0.0,0.0,0.0,0.0,0.0,0.0,-0.5067,-0.3432,-0.2463,-0.2397,-0.2711,-0.2696,0.0,0.0,0.0,0.0,0.0,0.0,0.0,0.0,0.0,0.0,0.0,0.0,0.0,0.0,0.0,0.0,0.0,0.0,0.0,0.0,0.0,0.0,0.0,0.0,0.0,0.0,0.0,0.0,0.0,0.0,0.0,0.0,0.0,0.0,0.0,0.0,0.0,0.0,0.0,0.0,0.0,0.0,0.0,0.0,0.0,0.0,0.0,0.0,0.0,0.0,0.0,0.0,0.0,0.0,0.0,0.0,0.0,0.0,0.0,0.0,0.0,0.0,0.0,0.0,0.0,0.0,0.0,0.0,0.0,0.0,0.0,0.0,0.0,0.0,0.0,0.0,0.0,0.0,0.0,0.0,0.0,0.0,0.0,0.0,0.0,0.0,0.0,0.0,0.0,0.0,0.0,0.0,0.0,0.0,0.0,0.0,0.0,0.0,0.0,0.0,0.0,0.0,0.0,0.0,0.0,0.0,0.0,0.0,0.0,-0.4411,-0.3133,-0.2433,-0.2397,-0.2695,-0.2672,-0.2335,0.0,0.0,0.0,0.0,0.0,0.0,0.0,0.0,0.0,0.0,0.0,0.0,0.0,0.0,0.0,0.0,0.0,0.0,0.0,0.0,0.0,0.0,0.0,0.0,0.0,0.0,0.0,0.0,0.0,0.0,0.0,0.0,0.0,0.0,0.0,0.0,0.0,0.0,0.0,0.0,0.0,0.0,0.0,0.0,0.0,0.0,0.0,0.0,0.0,0.0,0.0,0.0,0.0,0.0,0.0,0.0,0.0,0.0,0.0,0.0,0.0,0.0,0.0,0.0,0.0,0.0,0.0,0.0,0.0,0.0,0.0,0.0,0.0,0.0,0.0,0.0,0.0,0.0,0.0,0.0,0.0,0.0,0.0,0.0,0.0,0.0,0.0,0.0,0.0,0.0,0.0,0.0,0.0,0.0,0.0,0.0,0.0,0.0,0.0,0.0,0.0,0.0,0.0,0.0,0.0,0.0,0.0,0.0,-0.3495,-0.2782,-0.2421,-0.242,-0.3177,-0.3216,0.0,0.0,0.0,0.0,0.0,0.0,0.0,0.0,0.0,0.0,0.0,0.0,0.0,0.0,0.0,0.0,0.0,0.0,0.0,0.0,0.0,0.0,0.0,0.0,0.0,0.0,0.0,0.0,0.0,0.0,0.0,0.0,0.0,0.0,0.0,0.0,0.0,0.0,0.0,0.0,0.0,0.0,0.0,0.0,0.0,0.0,0.0,0.0,0.0,0.0,0.0,0.0,0.0,0.0,0.0,0.0,0.0,0.0,0.0,0.0,0.0,0.0,0.0,0.0,0.0,0.0,0.0,0.0,0.0,0.0,0.0,0.0,0.0,0.0,0.0,0.0,0.0,0.0,0.0,0.0,0.0,0.0,0.0,0.0,0.0,0.0,0.0,0.0,0.0,0.0,0.0,0.0,0.0,0.0,0.0,0.0,0.0,0.0,0.0,0.0,0.0,0.0,0.0,0.0,0.0,0.0,0.0,0.0,0.0,-0.3612,-0.2771,-0.239,-0.2391,-0.2638,-0.2931,0.0,0.0,0.0,0.0,0.0,0.0,0.0,0.0,0.0,0.0,0.0,0.0,0.0,0.0,0.0,0.0,0.0,0.0,0.0,0.0,0.0,0.0,0.0,0.0,0.0,0.0,0.0,0.0,0.0,0.0,0.0,0.0,0.0,0.0,0.0,0.0,0.0,0.0,0.0,0.0,0.0,0.0,0.0,0.0,0.0,0.0,0.0,0.0,0.0,0.0,0.0,0.0,0.0,0.0,0.0,0.0,0.0,0.0,0.0,0.0,0.0,0.0,0.0,0.0,0.0,0.0,0.0,0.0,0.0,0.0,0.0,0.0,0.0,0.0,0.0,0.0,0.0,0.0,0.0,0.0,0.0,0.0,0.0,0.0,0.0,0.0,0.0,0.0,0.0,0.0,0.0,0.0,0.0,0.0,0.0,0.0,0.0,0.0,0.0,0.0,0.0,0.0,0.0,0.0,0.0,0.0,0.0,0.0,-0.4238,-0.3154,-0.2638,-0.2416,-0.2417,-0.2421,-0.2779,0.0,0.0,0.0,0.0,0.0,0.0,0.0,0.0,0.0,0.0,0.0,0.0,0.0,0.0,0.0,0.0,0.0,0.0,0.0,0.0,0.0,0.0,0.0,0.0,0.0,0.0,0.0,0.0,0.0,0.0,0.0,0.0,0.0,0.0,0.0,0.0,0.0,0.0,0.0,0.0,0.0,0.0,0.0,0.0,0.0,0.0,0.0,0.0,0.0,0.0,0.0,0.0,0.0,0.0,0.0,0.0,0.0,0.0,0.0,0.0,0.0,0.0,0.0,0.0,0.0,0.0,0.0,0.0,0.0,0.0,0.0,0.0,0.0,0.0,0.0,0.0,0.0,0.0,0.0,0.0,0.0,0.0,0.0,0.0,0.0,0.0,0.0,0.0,0.0,0.0,0.0,0.0,0.0,0.0,0.0,0.0,0.0,0.0,0.0,0.0,0.0,0.0,0.0,0.0,0.0,0.0,0.0,0.0,-0.3972,-0.2457,-0.2439,-0.247,-0.2473,-0.2444,-0.2777,0.0,0.0,0.0,0.0,0.0,0.0,0.0,0.0,0.0,0.0,0.0,0.0,0.0,0.0,0.0,0.0,0.0,0.0,0.0,0.0,0.0,0.0,0.0,0.0,0.0,0.0,0.0,0.0,0.0,0.0,0.0,0.0,0.0,0.0,0.0,0.0,0.0,0.0,0.0,0.0,0.0,0.0,0.0,0.0,0.0,0.0,0.0,0.0,0.0,0.0,0.0,0.0,0.0,0.0,0.0,0.0,0.0,0.0,0.0,0.0,0.0,0.0,0.0,0.0,0.0,0.0,0.0,0.0,0.0,0.0,0.0,0.0,0.0,0.0,0.0,0.0,0.0,0.0,0.0,0.0,0.0,0.0,0.0,0.0,0.0,0.0,0.0,0.0,0.0,0.0,0.0,0.0,0.0,0.0,0.0,0.0,0.0,0.0,0.0,0.0,0.0,0.0,0.0,0.0,0.0,0.0,0.0,0.0,-0.3813,-0.2488,-0.245,-0.248,-0.2503,-0.2476,-0.3128,0.0,0.0,0.0,0.0,0.0,0.0,0.0,0.0,0.0,0.0,0.0,0.0,0.0,0.0,0.0,0.0,0.0,0.0,0.0,0.0,0.0,0.0,0.0,0.0,0.0,0.0,0.0,0.0,0.0,0.0,0.0,0.0,0.0,0.0,0.0,0.0,0.0,0.0,0.0,0.0,0.0,0.0,0.0,0.0,0.0,0.0,0.0,0.0,0.4297,0.0,0.0,0.0,0.0,0.0,0.0,0.0,0.0,0.0,0.0,0.0,0.0,0.0,0.0,0.0,0.0,0.0,0.0,0.0,0.0,0.0,0.0,0.0,0.0,0.0,0.0,0.0,0.0,0.0,0.0,0.0,0.0,0.0,0.0,0.0,0.0,0.0,0.0,0.0,0.0,0.0,0.0,0.0,0.0,0.0,0.0,0.0,0.0,0.0,0.0,0.0,0.0,0.0,0.0,0.0,0.0,0.0,0.0,0.0,-0.38,-0.2476,-0.2459,-0.2497,-0.2512,-0.2485,-0.3211,0.0,0.0,0.0,0.0,0.0,0.0,0.0,0.0,0.0,0.0,0.0,0.0,0.0,0.0,0.0,0.0,0.0,0.0,0.0,0.0,0.0,0.0,0.0,0.0,0.0,0.0,0.0,0.0,0.0,0.0,0.0,0.0,0.0,0.0,0.0,0.0,0.0,0.0,0.0,0.0,0.0,0.0,0.0,0.0,0.0,0.0,0.0,0.0,0.0,0.0,0.0,0.0,0.0,0.0,0.0,0.0,0.0,0.0,0.0,0.0,0.0,0.0,0.0,0.0,0.0,0.0,0.0,0.0,0.0,0.0,0.0,0.0,0.0,0.0,0.0,0.0,0.0,0.0,0.0,0.0,0.0,0.0,0.0,0.0,0.0,0.0,0.0,0.0,0.0,0.0,0.0,0.0,0.0,0.0,0.0,0.0,0.0,0.0,0.0,0.0,0.0,0.0,0.0,0.0,0.0,0.0,0.0,-0.4464,-0.382,-0.2467,-0.2472,-0.2514,-0.2514,-0.2635,-0.3275,-0.4625,0.0,0.0,0.0,0.0,0.0,0.0,0.0,0.0,0.0,0.0,0.0,0.0,0.0,0.0,0.0,0.0,0.0,0.0,0.0,0.0,0.0,0.0,0.0,0.0,0.0,0.0,0.0,0.0,0.0,0.0,0.0,0.0,0.0,0.0,0.0,0.0,0.0,0.0,0.2472,0.3368,0.0,0.0,0.0,0.0,0.0,0.0,0.0,0.0,0.4256,0.0,0.0,0.0,0.0,0.0,0.0,0.0,0.0,0.0,0.0,0.0,0.0,0.0,0.0,0.0,0.0,0.0,0.0,0.0,0.0,0.0,0.0,0.0,0.0,0.0,0.0,0.0,0.0,0.0,0.0,0.0,0.0,0.0,0.0,0.0,0.0,0.0,0.0,0.0,0.0,0.0,0.0,0.0,0.0,0.0,0.0,0.0,0.0,0.0,0.0,0.0,0.0,0.0,0.0,0.0,0.0,-0.3634,-0.4194,-0.3853,-0.2529,-0.2493,-0.2514,-0.2512,-0.3074,-0.3864,-0.475,0.0,0.0,0.0,0.0,0.0,0.0,0.0,0.0,0.0,0.0,0.0,0.0,0.0,0.0,0.0,0.0,0.0,0.0,0.0,0.0,0.0,0.0,0.0,0.0,0.0,0.0,0.0,0.0,0.0,0.0,0.0,0.0,0.0,0.0,0.0,0.0,0.0,0.0,0.0,0.2735,0.3243,0.0,0.0,0.0,0.0,0.0,0.0,0.0,0.0,0.4237,0.0,0.0,0.0,0.0,0.0,0.0,0.0,0.0,0.0,0.0,0.0,0.0,0.0,0.0,0.0,0.0,0.0,0.0,0.0,0.0,0.0,0.0,0.0,0.0,0.0,0.0,0.0,0.0,0.0,0.0,0.0,0.0,0.0,0.0,0.0,0.0,0.0,0.0,0.0,0.0,0.0,0.0,0.0,0.0,0.0,0.0,0.0,0.0,0.0,0.0,0.0,0.0,0.0,0.0,0.0,-0.4873,-0.4616,-0.4145,-0.3206,-0.3578,-0.3768,-0.3766,-0.4063,-0.46,0.0,0.0,0.0,0.0,0.0,0.0,0.0,0.0,0.0,0.0,0.0,0.0,0.0,0.0,0.0,0.0,0.0,0.0,0.0,0.0,0.0,0.0,0.0,0.0,0.0,0.0,0.0,0.0,0.0,0.0,0.0,0.0,0.0,0.0,0.0,0.0,0.0,0.0,0.0,0.0,0.1913,0.287,0.336,0.0,0.0,0.0,0.0,0.0,0.0,0.4283,0.4273,0.0,0.0,0.0,0.0,0.0,0.0,0.0,0.0,0.0,0.0,0.0,0.0,0.0,0.0,0.0,0.0,0.0,0.0,0.0,0.0,0.0,0.0,0.0,0.0,0.0,0.0,0.0,0.0,0.0,0.0,0.0,0.0,0.0,0.0,0.0,0.0,0.0,0.0,0.0,0.0,0.0,0.0,0.0,0.0,0.0,0.0,0.0,0.0,0.0,0.0,0.0,0.0,0.0,0.0,0.0,-0.6314,-0.5395,-0.458,-0.4022,-0.4655,-0.5014,-0.5003,-0.4973,-0.5331,0.0,0.0,0.0,0.0,0.0,0.0,0.0,0.0,0.0,0.0,0.0,0.0,0.0,0.0,0.0,0.0,0.0,0.0,0.0,0.0,0.0,0.0,0.0,0.0,0.0,0.0,0.0,0.0,0.0,0.0,0.0,0.0,0.0,0.0,0.0,0.0,0.0,0.0,0.0,0.0,0.0,0.2495,0.269,0.3677,0.0,0.0,0.0,0.0,0.4327,0.4365,0.0,0.0,0.0,0.0,0.0,0.0,0.0,0.0,0.0,0.0,0.0,0.0,0.0,0.0,0.0,0.0,0.0,0.0,0.0,0.0,0.0,0.0,0.0,0.0,0.0,0.0,0.0,0.0,0.0,0.0,0.0,0.0,0.0,0.0,0.0,0.0,0.0,0.0,0.0,0.0,0.0,0.0,0.0,0.0,0.0,0.0,0.0,0.0,0.0,0.0,0.0,0.0,0.0,0.0,0.0,0.0,-0.7106,-0.6069,-0.5339,-0.4836,-0.4909,-0.4995,-0.494,-0.5562,-0.5836,0.0,0.0,0.0,0.0,0.0,0.0,0.0,0.0,0.0,0.0,0.0,0.0,0.0,0.0,0.0,0.0,0.0,0.0,0.0,0.0,0.0,0.0,0.0,0.0,0.0,0.0,0.0,0.0,0.0,0.0,0.0,0.0,0.0,0.0,0.0,0.0,0.0,0.0,0.0,0.0,0.0,0.1704,0.2559,0.3677,0.4376,0.0,0.0,0.4444,0.4395,0.4564,0.0,0.0,0.0,0.0,0.0,0.0,0.0,0.0,0.0,0.0,0.0,0.0,0.0,0.0,0.0,0.0,0.0,0.0,0.0,0.0,0.0,0.0,0.0,0.0,0.0,0.0,0.0,0.0,0.0,0.0,0.0,0.0,0.0,0.0,0.0,0.0,0.0,0.0,0.0,0.0,0.0,0.0,0.0,0.0,0.0,0.0,0.0,0.0,0.0,0.0,0.0,0.0,0.0,0.0,0.0,-0.8715,-0.8019,-0.655,-0.5769,-0.5638,-0.6095,-0.6347,-0.6316,-0.6502,-0.6581,0.0,0.0,0.0,0.0,0.0,0.0,0.0,0.0,0.0,0.0,0.0,0.0,0.0,0.0,0.0,0.0,0.0,0.0,0.0,0.0,0.0,0.0,0.0,0.0,0.0,0.0,0.0,0.0,0.0,0.0,0.0,0.0,0.0,0.0,0.0,0.0,0.0,0.0,0.0,0.0,0.0,0.0,0.1754,0.3287,0.0,0.0,0.0,0.4526,0.4501,0.0,0.0,0.0,0.0,0.0,0.0,0.0,0.0,0.0,0.0,0.0,0.0,0.0,0.0,0.0,0.0,0.0,0.0,0.0,0.0,0.0,0.0,0.0,0.0,0.0,0.0,0.0,0.0,0.0,0.0,0.0,0.0,0.0,0.0,0.0,0.0,0.0,0.0,0.0,0.0,0.0,0.0,0.0,0.0,0.0,0.0,0.0,0.0,0.0,0.0,0.0,0.0,0.0,0.0,0.0,0.0,0.0,-0.8533,-0.6998,-0.6228,-0.6369,-0.6997,-0.7333,-0.7288,-0.7162,0.0,0.0,0.0,0.0,0.0,0.0,0.0,0.0,0.0,0.0,0.0,0.0,0.0,0.0,0.0,0.0,0.0,0.0,0.0,0.0,0.0,0.0,0.0,0.0,0.0,0.0,0.0,-0.2223,0.0,0.0,0.0,0.0,0.0,0.0,0.0,0.0,0.0,0.0,0.0,0.0,0.0,0.0,0.1185,0.0746,0.2905,0.4421,0.0,0.0,0.4597,0.4597,0.4649,0.464,0.0,0.0,0.0,0.0,0.0,0.0,0.0,0.0,0.0,0.0,0.0,0.0,0.0,0.0,0.0,0.0,0.0,0.0,0.0,0.0,0.0,0.0,0.0,0.0,0.0,0.0,0.0,0.0,0.0,0.0,0.0,0.0,0.0,0.0,0.0,0.0,0.0,0.0,0.0,0.0,0.0,0.0,0.0,0.0,0.0,0.0,0.0,0.0,0.0,0.0,0.0,0.0,0.0,0.0,0.0,-0.8229,-0.7332,-0.6841,-0.6938,-0.7178,-0.719,-0.7023,-0.7007,-0.6876,0.0,0.0,0.0,0.0,0.0,0.0,0.0,0.0,0.0,0.0,0.0,0.0,0.0,0.0,0.0,0.0,0.0,0.0,0.0,0.0,0.0,0.0,0.0,0.0,0.0,0.0,0.0,0.0,0.0,0.0,0.0,0.0,0.0,0.0,0.0,0.0,0.0,0.0,0.0,0.0,0.0,0.0848,-0.0275,0.2456,0.4208,0.0,0.0,0.4732,0.4732,0.4845,0.4875,0.4537,0.0,0.0,0.0,0.0,0.0,0.0,0.0,0.0,0.0,0.0,0.0,0.0,0.0,0.0,0.0,0.0,0.0,0.0,0.0,0.0,0.0,0.0,0.0,0.0,0.0,0.0,0.0,0.0,0.0,0.0,0.0,0.0,0.0,0.0,0.0,0.0,0.0,0.0,0.0,0.0,0.0,0.0,0.0,0.0,0.0,0.0,0.0,0.0,0.0,0.0,0.0,0.0,0.0,-0.9587,-0.9171,-0.7669,-0.6968,-0.699,-0.7113,-0.7117,-0.6994,-0.6937,-0.6807,0.0,0.0,0.0,0.0,0.0,0.0,0.0,0.0,0.0,0.0,0.0,0.0,0.0,0.0,0.0,0.0,0.0,0.0,0.0,0.0,0.0,0.0,0.0,0.0,0.0,0.0,0.0,0.0,-0.2223,-0.2223,-0.2223,0.0,0.0,0.0,0.0,0.0,0.0,0.0,0.0,0.0,0.0,0.0,-0.0551,0.1757,0.0,0.0,0.393,0.4793,0.4793,0.4766,0.4741,0.4567,0.4488,0.0,0.0,0.0,0.0,0.0,0.0,0.0,0.0,0.0,0.0,0.0,0.0,0.0,0.0,0.0,0.0,0.0,0.0,0.0,0.0,0.0,0.0,0.0,0.0,0.0,0.0,0.0,0.0,0.0,0.0,0.0,0.0,0.0,0.0,0.0,0.0,0.0,0.0,0.0,0.0,0.0,0.0,0.0,0.0,0.0,0.0,0.0,0.0,0.0,0.0,0.0,0.0,-0.9685,-0.925,-0.7664,-0.6877,-0.6868,-0.6962,-0.6962,-0.6872,-0.6807,-0.6705,0.0,0.0,0.0,0.0,0.0,0.0,0.0,0.0,0.0,0.0,0.0,0.0,0.0,0.0,0.0,0.0,0.0,0.0,0.0,0.0,0.0,0.0,0.0,0.0,0.0,0.0,0.0,0.0,-0.2223,-0.2223,-0.2223,0.0,0.0,0.0,0.0,0.0,0.0,0.0,0.0,0.0,0.0,-0.0627,-0.1033,0.0911,0.2348,0.2358,0.3401,0.4314,0.4698,0.4665,0.4754,0.4814,0.0,0.0,0.0,0.0,0.0,0.0,0.0,0.0,0.0,0.0,0.0,0.0,0.0,0.0,0.0,0.0,0.0,0.0,0.0,0.0,0.0,0.0,0.0,0.0,0.0,0.0,0.0,0.0,0.0,0.0,-1.9127,0.0,0.0,0.0,0.0,0.0,0.0,0.0,0.0,0.0,0.0,0.0,0.0,0.0,0.0,0.0,0.0,0.0,0.0,0.0,0.0,0.0,0.0,-0.93,-0.8051,-0.7161,-0.6598,-0.6607,-0.6688,-0.6696,-0.6611,-0.6598,-0.6553,-0.6531,0.0,0.0,0.0,0.0,0.0,0.0,0.0,0.0,0.0,0.0,0.0,0.0,0.0,0.0,0.0,0.0,0.0,0.0,0.0,0.0,0.0,0.0,0.0,0.0,0.0,0.0,-0.2223,-0.2223,-0.2223,0.0,0.0,0.0,0.0,0.0,0.0,0.0,0.0,0.0,0.0,-0.1171,-0.0837,-0.1998,-0.0139,0.1268,0.1284,0.2192,0.3313,0.4427,0.4575,0.4817,0.0,0.0,0.0,0.0,0.0,0.0,0.0,0.0,0.0,0.0,0.0,0.0,0.0,0.0,0.0,0.0,0.0,0.0,0.0,0.0,0.0,0.0,0.0,0.0,0.0,0.0,0.0,-1.8562,-1.8535,0.0,0.0,0.0,0.0,0.0,0.0,0.0,0.0,0.0,0.0,0.0,-1.3904,-1.3904,0.0,0.0,0.0,0.0,0.0,0.0,0.0,0.0,0.0,0.0,0.0,0.0,-0.9636,-0.8989,-0.7418,-0.659,-0.659,-0.668,-0.6684,-0.659,-0.659,-0.6549,-0.6527,0.0,0.0,0.0,0.0,0.0,0.0,0.0,0.0,0.0,0.0,0.0,0.0,0.0,0.0,0.0,0.0,0.0,0.0,0.0,0.0,0.0,0.0,0.0,0.0,0.0,-0.2223,0.0,0.0,0.0,0.0,0.0,0.0,0.0,0.0,0.0,0.0,0.0,-0.2223,-0.2223,-0.1847,-0.1727,-0.2133,-0.0903,0.0351,0.0,0.0,0.0,0.0,0.0,0.0,0.0,0.0,0.0,0.0,0.0,0.0,0.0,0.0,0.8434,0.855,0.8655,0.8687,0.8606,0.0,0.0,0.0,0.0,0.0,0.0,0.0,0.0,0.0,0.0,0.0,0.0,0.0,0.0,0.0,0.0,-1.7947,0.0,0.0,0.0,0.0,0.0,0.0,0.0,0.0,-1.4466,-1.3904,-1.3904,-1.3904,-1.3904,0.0,-1.3904,-1.3904,0.0,0.0,0.0,0.0,0.0,0.0,0.0,0.0,-1.0181,-0.9588,-0.792,-0.6948,-0.6545,-0.6602,-0.6602,-0.6545,-0.6541,-0.658,-0.6522,-0.6513,-0.6598,0.0,0.0,0.0,0.0,0.0,0.0,0.0,0.0,0.0,0.0,0.0,0.0,0.0,0.0,0.0,0.0,0.0,0.0,0.0,0.0,0.0,0.0,0.0,-0.2223,0.0,0.0,0.0,0.0,0.0,0.0,0.0,0.0,0.0,-0.2223,-0.2223,-0.2223,-0.2223,-0.2172,-0.2184,-0.2184,0.0,0.0,0.0,0.0,0.0,0.0,0.0,0.4704,0.5391,0.5697,0.6221,0.7237,0.7857,0.8392,0.8809,0.0,0.0,0.8747,0.878,0.8807,0.8731,0.8715,0.894,0.9775,1.0743,1.1833,0.0,0.0,0.0,0.0,0.0,0.0,0.0,0.0,-1.7661,-1.7359,0.0,-1.6664,0.0,0.0,0.0,0.0,0.0,-1.6461,0.0,0.0,-1.4252,-1.3904,-1.3904,-1.3904,-1.3896,-1.3896,-1.3888,-1.388,-1.3863,-1.353,0.0,0.0,0.0,0.0,0.0,0.0,-1.0853,-0.9649,-0.8512,-0.7517,-0.6522,-0.6522,-0.6522,-0.6522,-0.6522,-0.6522,-0.6522,-0.6527,-0.6541,-0.6717,-0.6733,0.0,0.0,0.0,0.0,0.0,0.0,0.0,0.0,0.0,0.0,0.0,0.0,0.0,0.0,0.0,0.0,0.0,0.0,0.0,0.0,-0.2223,0.0,0.0,0.0,0.0,0.0,0.0,0.0,0.0,0.0,0.0,-0.2227,-0.2225,-0.2224,-0.2224,0.0,0.0,0.0,0.0,-0.1353,0.0891,0.1236,0.2002,0.4192,0.4482,0.4762,0.5527,0.0,0.0,0.8692,0.8906,0.8922,0.8911,0.9019,0.9041,0.8933,0.8976,0.8895,0.889,0.89,0.8976,0.9308,1.0263,1.1214,-1.87,0.0,0.0,0.0,0.0,-1.8336,-1.8433,-1.8363,-1.8153,-1.8044,-1.8026,-1.7329,0.0,0.0,0.0,0.0,0.0,0.0,-1.5248,-1.4955,-1.4252,-1.3904,-1.3904,-1.3904,-1.3839,-1.3655,-1.3717,-1.3652,-1.3514,-1.3287,-1.3238,-1.336,0.0,0.0,0.0,0.0,-1.0744,-0.9582,-0.8512,-0.7512,-0.6522,-0.6522,-0.6522,-0.6522,-0.6522,-0.6522,-0.6522,-0.6517,-0.6607,-0.6721,-0.6786,0.0,0.0,0.0,0.0,0.0,0.0,0.0,0.0,0.0,0.0,0.0,0.0,0.0,0.0,0.0,0.0,0.0,0.0,0.0,-0.2223,-0.2223,-0.2223,0.0,0.0,0.0,0.0,0.0,0.0,0.0,0.0,0.0,-0.2219,-0.22,-0.2187,0.0,0.0,-0.2178,-0.2224,-0.2173,-0.1368,0.0892,0.1176,0.0,0.413,0.4482,0.4902,0.6159,0.7601,0.8729,0.9246,0.9405,0.9465,0.9459,0.9492,0.9503,0.9465,0.9318,0.9209,0.9209,0.9269,0.9318,0.9385,1.0239,1.1278,-1.8319,-1.7001,-1.7572,-1.7809,-1.7841,-1.8164,-1.8304,-1.8234,-1.8051,-1.7832,-1.745,-1.6754,-1.6349,-1.6415,-1.6278,0.0,0.0,0.0,-1.4778,-1.4435,-1.4077,-1.3831,-1.3701,-1.3766,-1.3709,-1.3539,-1.353,-1.3482,-1.3368,-1.3181,-1.3149,-1.3246,0.0,0.0,-1.2766,-1.2165,-1.1101,-0.9643,-0.8978,-0.7917,-0.6522,-0.6522,-0.6522,-0.6522,-0.6522,-0.6522,-0.6522,-0.6504,-0.6578,-0.6668,-0.6754,-0.6766,0.0,0.0,0.0,0.0,0.0,0.0,0.0,0.0,0.0,0.0,0.0,-0.2892,-0.2223,0.0,0.0,0.0,-0.2165,-0.2168,-0.2223,-0.2176,0.0,0.0,0.0,0.0,0.0,0.0,0.0,-0.2174,-0.2175,-0.2179,-0.2262,-0.2248,-0.2232,-0.2219,-0.2218,-0.2211,-0.2193,0.0,-0.1527,0.0279,0.0492,0.1132,0.2915,0.3556,0.4559,0.6583,0.7935,0.8977,0.9465,0.9552,0.9595,0.9595,0.9595,0.9628,0.972,0.9579,0.9449,0.9449,0.9508,0.9557,0.9574,1.0168,1.0857,-1.7685,-1.642,-1.7077,-1.7356,-1.7389,-1.7863,-1.8067,-1.8009,-1.7516,-1.6967,-1.6244,-1.5477,-1.5115,-1.5106,-1.5839,0.0,-1.4911,-1.4982,-1.4472,-1.3558,-1.3798,-1.3701,-1.3384,-1.3563,-1.3539,-1.3344,-1.342,-1.3412,-1.3319,-1.3157,-1.3076,-1.3068,-1.2913,-1.2766,-1.2766,-1.2766,-1.1769,-0.9643,-0.9582,-0.8584,-0.6522,-0.6522,-0.6522,-0.6522,-0.6522,-0.6522,-0.6522,-0.6522,-0.6564,-0.6586,-0.6672,-0.668,-0.6611,0.0,0.0,0.0,0.0,0.0,0.0,0.0,0.0,0.0,0.0,0.0,0.0,0.0,0.0,0.0,-0.2187,0.0,-0.2165,-0.2213,0.0,0.0,0.0,-0.2176,-0.2178,-0.2178,-0.2179,-0.2182,0.0,0.0,-0.229,-0.2294,-0.2283,-0.2186,-0.2179,-0.2178,-0.2175,-0.2176,-0.1834,-0.057,-0.05,-0.0072,0.1233,0.2398,0.4083,0.6705,0.7705,0.8494,0.9334,0.9514,0.9508,0.9519,0.9503,0.9563,0.9786,0.972,0.9671,0.9677,0.9693,0.9764,0.9938,0.9987,1.0314,-1.8352,-1.6861,-1.7023,-1.7087,-1.713,-1.7604,-1.7809,-1.7819,-1.7659,-1.7539,-1.7279,-1.6559,-1.5902,-1.5422,-1.5569,-1.5284,-1.4518,-1.4518,-1.4156,-1.3449,-1.362,-1.3587,-1.3384,-1.3555,-1.3474,-1.3173,-1.3157,-1.3092,-1.2962,-1.2921,-1.2897,-1.2897,-1.279,-1.2766,-1.2766,-1.2766,-1.1769,-0.9643,-0.9582,-0.8584,-0.6589,-0.6522,-0.6522,-0.6522,-0.6522,-0.6522,-0.6522,-0.6522,-0.6564,-0.6586,-0.6611,-0.6643,-0.6692,-0.6713,0.0,0.0,0.0,0.0,0.0,0.0,0.0,0.0,0.0,-0.2368,-0.2188,0.0,-0.2173,0.0,-0.223,-0.2232,-0.2225,-0.2167,0.0,0.0,-0.2171,-0.2255,-0.2278,-0.2279,-0.2288,-0.2237,-0.224,-0.2315,-0.2322,-0.2323,-0.232,-0.224,-0.2293,-0.2273,-0.2251,-0.2266,-0.1853,-0.0786,-0.0576,-0.0145,0.1092,0.2694,0.453,0.6806,0.7759,0.8597,0.9457,0.9703,0.9703,0.9628,0.9628,0.9655,0.9704,0.9688,0.9704,0.978,0.9873,0.9949,1.0008,1.0019,1.0101,-1.8593,-1.671,-1.6915,-1.6947,-1.6894,-1.7367,-1.7561,-1.7572,-1.7669,-1.7495,-1.7151,-1.64,-1.5691,-1.5001,-1.5001,-1.4591,-1.3976,-1.3976,-1.3729,-1.3262,-1.3522,-1.3396,-1.3149,-1.3401,-1.3336,-1.2986,-1.2978,-1.2929,-1.2774,-1.2766,-1.2766,-1.2766,-1.2766,-1.2766,-1.2766,-1.2305,-1.1233,-0.9649,-0.8712,-0.7655,-0.6585,-0.6522,-0.6522,-0.6522,-0.6522,-0.6522,-0.6522,-0.6522,-0.6543,-0.6597,-0.6566,-0.6594,-0.6607,-0.6684,-0.6684,0.0,0.0,0.0,0.0,0.0,0.0,0.0,0.0,0.0,0.0,0.0,-0.221,-0.2173,-0.2258,-0.226,-0.2176,-0.2198,-0.2208,-0.2267,-0.2277,-0.2292,-0.2308,-0.2309,-0.2315,-0.2258,-0.226,-0.226,-0.226,-0.226,-0.226,-0.226,-0.2319,-0.2304,-0.2289,-0.23,-0.202,-0.1371,-0.1305,-0.0583,0.1311,0.291,0.4746,0.7162,0.8264,0.893,0.9488,0.959,0.959,0.959,0.959,0.9612,0.9655,0.9622,0.9628,0.9731,0.9813,0.9894,0.9998,1.0019,1.0074,-1.853,-1.6441,-1.684,-1.6872,-1.67,-1.7109,-1.7303,-1.7346,-1.754,-1.7223,-1.6618,-1.5943,-1.5334,-1.4715,-1.4715,-1.4385,-1.3781,-1.3712,-1.362,-1.3352,-1.3554,-1.3379,-1.2988,-1.3241,-1.3165,-1.2774,-1.2766,-1.2766,-1.2766,-1.2766,-1.2766,-1.2766,-1.2766,-1.2766,-1.2766,-1.1769,-1.0565,-0.9377,-0.745,-0.6522,-0.6522,-0.6522,-0.6522,-0.6522,-0.6522,-0.6522,-0.6522,-0.6522,-0.6522,-0.6522,-0.6529,-0.6541,-0.6547,-0.6631,-0.6692,0.0,-0.5994,0.0,0.0,0.0,0.0,0.0,0.0,0.0,0.0,-0.2184,-0.2184,-0.2182,-0.2278,-0.2285,-0.2259,-0.2231,-0.2323,-0.23,-0.2318,-0.226,-0.226,-0.226,-0.226,-0.226,-0.226,-0.226,-0.226,-0.226,-0.226,-0.2339,-0.2341,-0.2341,-0.2343,-0.2337,-0.2258,-0.2264,-0.2338,-0.1171,0.1534,0.2839,0.4447,0.7435,0.8649,0.9195,0.9449,0.9465,0.9465,0.9465,0.9465,0.9497,0.9606,0.953,0.9508,0.9622,0.9655,0.972,0.99,0.9954,0.9976,-1.804,-1.6883,-1.6969,-1.6872,-1.6731,-1.6828,-1.6904,-1.7077,-1.712,-1.7076,-1.6945,-1.6804,-1.6674,-1.6478,-1.6478,-1.6161,-1.5505,-1.5505,-1.5157,-1.4538,-1.4174,-1.3871,-1.3704,-1.3311,-1.3035,-1.2782,-1.2766,-1.2766,-1.2766,-1.2766,-1.2766,-1.2766,-1.2766,-1.2766,-1.27,0.0,0.0,0.0,-0.7116,-0.6522,-0.6522,-0.6522,-0.6522,-0.6522,-0.6522,0.0,-0.6522,-0.6522,-0.6522,-0.6522,-0.6539,0.0,0.0,0.0,0.0,0.0,0.0,0.0,0.0,0.0,0.0,0.0,-0.3614,-0.3315,-0.2356,-0.2303,-0.2307,-0.2286,-0.2308,-0.2323,-0.2316,-0.2253,-0.2257,-0.2253,-0.2257,-0.226,-0.226,-0.226,-0.226,-0.226,-0.226,-0.226,-0.2334,-0.226,-0.2342,-0.2365,-0.2369,-0.2379,-0.2402,-0.2364,-0.2345,-0.2364,-0.2368,-0.1257,0.1846,0.2488,0.3928,0.7071,0.8232,0.8584,0.9195,0.9345,0.934,0.934,0.934,0.9345,0.9378,0.9351,0.9383,0.9497,0.9525,0.9563,0.9704,0.9737,0.9764,-1.9431,0.0,-1.7958,-1.7708,0.0,-1.6965,-1.6732,-1.684,-1.6829,-1.6894,-1.7001,-1.7001,-1.6807,-1.6483,-1.6483,-1.6104,-1.5453,-1.5453,-1.5062,-1.4417,-1.421,-1.3802,-1.3367,-1.3144,-1.3003,-1.2774,-1.2766,-1.2766,-1.2766,-1.2766,-1.2766,-1.2766,-1.2766,-1.2766,-1.2766,-1.1233,-0.9637,-0.8041,-0.6987,-0.6522,-0.6522,-0.6522,-0.6522,-0.6522,0.0,0.0,0.0,0.0,0.0,0.0,0.0,0.0,0.0,0.0,0.0,-0.6729,-0.6065,-0.5771,-0.5695,-0.4691,-0.3837,-0.3498,-0.3136,-0.2763,-0.2312,-0.2324,-0.2254,-0.2313,-0.2324,-0.226,-0.226,-0.226,-0.226,-0.226,-0.226,-0.226,-0.226,-0.226,-0.226,-0.226,-0.226,-0.2338,-0.2353,-0.2356,-0.2368,-0.2395,-0.2401,-0.2406,-0.2417,-0.2398,-0.2384,-0.2397,-0.2386,-0.1113,0.1998,0.2859,0.4213,0.763,0.8724,0.8868,0.923,0.9302,0.9302,0.9302,0.9302,0.9302,0.9302,0.9302,0.9323,0.9378,0.9394,0.941,0.9487,0.9584,0.9666,-2.0589,-1.975,-1.8617,-1.8157,-1.807,-1.7036,-1.6601,-1.6601,0.0,0.0,0.0,-1.699,-1.6688,-1.6234,-1.6169,-1.5844,-1.5257,-1.5127,-1.4791,-1.4277,-1.4108,-1.3776,-1.3178,-1.3045,-1.3045,-1.2972,-1.2964,-1.2898,-1.284,-1.2906,-1.2898,-1.284,-1.2766,-1.2766,-1.2634,-1.0711,-0.9178,-0.8246,-0.7116,-0.6522,-0.6522,-0.6522,-0.6522,-0.6522,-0.6522,-0.6522,-0.6522,-0.6522,-0.6522,-0.6522,-0.6522,-0.6527,-0.6547,-0.6635,-0.6733,-0.6683,-0.618,-0.5825,-0.5752,-0.4374,-0.3427,-0.3281,-0.2698,-0.226,-0.226,-0.226,-0.226,-0.226,-0.226,-0.226,-0.226,-0.226,-0.226,-0.226,-0.226,-0.226,-0.226,-0.226,-0.2335,-0.2339,-0.2342,-0.2352,-0.2382,-0.2387,-0.2397,-0.2424,-0.2431,-0.2435,-0.2438,-0.2435,-0.2429,-0.2429,-0.2409,-0.1043,0.2299,0.3445,0.5014,0.8502,0.923,0.9302,0.9302,0.9302,0.9302,0.9302,0.9302,0.9302,0.9302,0.9302,0.9302,0.9302,0.9302,0.9302,0.9318,0.9459,0.9563,-1.8856,-1.864,-1.7423,-1.6965,-1.6932,-1.636,-1.6104,-1.6147,-1.6547,-1.6742,-1.6721,-1.6915,-1.6936,-1.6872,-1.6872,-1.6807,-1.6678,-1.6094,-1.5779,0.0,-1.4492,-1.4173,-1.4539,-1.3384,-1.3186,-1.3687,-1.3744,-1.3424,-1.2898,-1.3424,-1.3424,-1.2832,-1.2766,-1.2766,-1.2634,-1.0644,-0.951,-0.931,-0.7455,-0.6522,-0.6522,-0.6522,-0.6522,-0.6522,-0.6522,-0.6522,-0.6522,-0.6522,-0.6522,-0.6522,-0.6522,-0.6555,-0.657,-0.6672,-0.6758,-0.6835,-0.621,-0.5825,-0.5752,-0.4374,-0.3209,-0.2551,-0.2333,-0.226,-0.226,-0.226,-0.226,-0.226,-0.226,-0.226,-0.226,-0.2261,-0.2261,-0.2261,-0.2261,-0.226,-0.2261,-0.2262,-0.2345,-0.2367,-0.2371,-0.2383,-0.241,-0.2417,-0.2428,-0.2455,-0.2462,-0.247,-0.2487,-0.2478,-0.2465,-0.2459,-0.2438,-0.0755,0.2253,0.3465,0.5098,0.8646,0.9235,0.9302,0.9302,0.9302,0.9302,0.9302,0.9302,0.9302,0.9302,0.9302,0.9302,0.9302,0.9302,0.9302,0.9302,0.9351,0.9362,-1.9877,-1.9228,-1.8163,-1.7671,-1.7637,-1.6593,-1.6136,-1.6028,-1.6234,-1.6493,-1.6742,-1.6904,-1.7001,-1.7001,-1.7001,-1.7001,-1.7001,-1.6678,-1.6353,-1.5974,-1.5323,-1.4996,-1.4866,-1.4211,-1.4146,-1.4399,-1.4071,-1.3744,-1.3416,-1.3358,-1.3095,-1.284,-1.2766,-1.2503,-1.1835,-1.0451,-0.9381,-0.8712,-0.725,-0.6522,-0.6522,-0.6522,-0.6522,-0.6522,-0.6522,-0.6543,-0.6525,-0.6529,-0.6549,-0.6598,-0.6602,-0.6619,-0.6664,-0.6745,-0.6811,-0.6923,-0.6649,-0.6261,-0.5825,-0.4374,-0.3136,-0.2405,-0.226,-0.226,-0.226,-0.226,-0.226,-0.226,-0.226,-0.226,-0.2334,-0.2348,-0.235,-0.2261,-0.2361,-0.2368,-0.2343,-0.2364,-0.2382,-0.238,-0.2393,-0.2414,-0.2444,-0.2448,-0.2459,-0.2487,-0.2493,-0.2499,-0.2512,-0.2503,-0.2493,-0.2491,-0.2467,-0.1147,0.16,0.2911,0.4706,0.7637,0.876,0.9235,0.9302,0.9302,0.9302,0.9302,0.9302,0.9302,0.9302,0.9302,0.9302,0.9302,0.9302,0.9302,0.9302,0.9302,0.9446,-2.0969,-2.0005,-1.8924,-1.8256,-1.7874,-1.6754,-1.6151,-1.5953,-1.605,-1.6298,-1.6592,-1.6818,-1.6958,-1.7001,-1.7001,-1.7001,-1.7001,-1.6807,-1.6483,-1.6039,-1.5844,-1.5518,-1.5127,-1.4996,-1.4996,-1.5062,-1.4473,-1.4071,-1.3809,-1.3293,-1.2988,-1.2889,-1.2889,-1.2441,-1.1673,-1.0448,-0.9364,-0.8464,-0.7184,-0.6504,-0.6555,-0.6504,-0.6584,-0.6584,-0.6517,-0.6549,-0.6619,-0.6623,-0.6656,-0.6721,-0.6725,-0.6733,-0.6758,-0.6815,-0.6864,-0.696,-0.697,-0.6666,-0.5876,-0.4779,-0.3678,-0.272,-0.2647,-0.25,-0.2353,-0.2279,-0.2346,-0.2262,-0.226,-0.2262,-0.2343,-0.2356,-0.2363,-0.2356,-0.2387,-0.2395,-0.2365,-0.2395,-0.242,-0.2403,-0.242,-0.2446,-0.247,-0.2478,-0.2488,-0.2507,-0.2514,-0.2514,-0.2514,-0.2514,-0.2514,-0.2508,-0.2489,-0.1465,0.0615,0.2034,0.3781,0.6075,0.7696,0.8444,0.8719,0.8941,0.9302,0.9302,0.9302,0.9302,0.9302,0.9302,0.9302,0.9302,0.9302,0.9302,0.9302,0.9374,0.9663,-2.1032,-1.9979,-1.8819,-1.7428,-1.6363,-1.6298,-1.6054,-1.5741,-1.6086,-1.6301,-1.6398,-1.6592,-1.6818,-1.699,-1.7001,-1.7001,-1.6936,-1.6353,-1.6104,-1.5974,-1.5323,-1.5323,-1.5844,-1.5257,-1.5257,-1.5714,-1.5192,-1.453,-1.4006,-1.3818,-1.3509,-1.3118,-1.3068,-1.3149,-1.2954,-1.1049,-0.9946,-0.9796,-0.7733,-0.666,-0.659,-0.666,-0.67,-0.67,-0.67,-0.6705,-0.6713,-0.6713,-0.6717,-0.6725,-0.6733,-0.6762,-0.6902,-0.6923,-0.6888,-0.697,-0.706,-0.6778,-0.6169,-0.5961,-0.5124,-0.3771,-0.3539,-0.3163,-0.2487,-0.2413,-0.239,-0.2277,-0.2262,-0.2349,-0.2368,-0.2356,-0.2365,-0.2403,-0.2399,-0.239,-0.2409,-0.242,-0.2432,-0.2459,-0.2461,-0.2477,-0.25,-0.2506,-0.2508,-0.2512,-0.2514,-0.2514,-0.2514,-0.2514,-0.2514,-0.251,-0.2489,-0.1468,0.0385,0.1132,0.2535,0.4527,0.6235,0.7221,0.7647,0.8512,0.9302,0.9302,0.9302,0.9302,0.9302,0.9302,0.9302,0.9302,0.9302,0.9302,0.9374,0.959,0.9951,-2.1032,-2.0068,-1.9574,-1.856,-1.7298,-1.649,-1.6064,-1.6043,-1.6075,-1.6258,-1.6517,-1.6688,-1.6786,-1.7001,-1.7001,-1.7001,-1.7001,-1.6742,-1.6548,-1.6548,-1.6289,-1.6299,-1.6548,-1.6289,-1.6289,-1.6548,-1.5909,-1.5192,-1.4492,-1.3791,-1.3344,-1.3306,-1.3262,-1.3295,-1.3231,-1.1865,-1.0746,-0.9977,-0.8585,-0.754,-0.6894,-0.6733,-0.6725,-0.6725,-0.6725,-0.6754,-0.6794,-0.6803,-0.6827,-0.6876,-0.688,-0.6896,-0.6929,-0.6933,-0.6949,-0.699,-0.6635,-0.6326,-0.606,-0.565,-0.4918,-0.3784,-0.3708,-0.333,-0.25,-0.2424,-0.2412,-0.2393,-0.2386,-0.2386,-0.2382,-0.2398,-0.2417,-0.2427,-0.2443,-0.245,-0.2424,-0.2455,-0.2478,-0.2473,-0.2485,-0.2499,-0.2511,-0.2514,-0.2514,-0.2514,-0.2514,-0.2514,-0.2514,-0.2514,-0.2514,-0.2434,-0.2347,-0.1716,-0.0467,0.0768,0.1898,0.3323,0.5438,0.6917,0.7202,0.8319,0.9307,0.9307,0.9302,0.9302,0.9302,0.9302,0.9302,0.9302,0.9302,0.9302,0.9302,0.9663,1.0023,-2.1411,-2.0526,-2.0208,-1.9347,-1.8136,-1.7022,-1.6451,-1.6301,-1.6255,-1.6407,-1.6657,-1.6721,-1.685,-1.699,-1.7001,-1.7001,-1.7001,-1.7001,-1.7001,-1.7001,-1.7001,-1.7001,-1.7012,-1.7077,-1.7066,-1.6893,-1.6361,-1.5597,-1.4706,-1.3955,-1.3467,-1.3486,-1.3449,-1.3474,-1.3384,-1.2522,-1.1382,-1.011,-0.9209,-0.8102,-0.7103,-0.6831,-0.6798,-0.6798,-0.6798,-0.6827,-0.6884,-0.6964,-0.6921,-0.6986,-0.699,-0.699,-0.699,-0.699,-0.7003,-0.7031,-0.6596,-0.6355,-0.6373,-0.5916,-0.5193,-0.4204,-0.4051,-0.3593,-0.2678,-0.2448,-0.2444,-0.2436,-0.2443,-0.2436,-0.2414,-0.2435,-0.2451,-0.245,-0.2485,-0.2484,-0.2458,-0.2491,-0.2504,-0.2488,-0.25,-0.2514,-0.2514,-0.2514,-0.2514,-0.2514,-0.2514,-0.2514,-0.2514,-0.2514,-0.2514,-0.2514,-0.2121,-0.1649,-0.1255,-0.0155,0.1235,0.2684,0.468,0.6407,0.6993,0.8397,0.9356,0.9389,0.934,0.9307,0.9302,0.9302,0.9302,0.9302,0.9302,0.9302,0.9302,0.9663,1.0023,-2.2418,-2.1425,-2.0526,-1.9334,-1.816,-1.805,-1.736,-1.6355,-1.6527,-1.6646,-1.6763,-1.6894,-1.699,-1.7001,-1.7023,-1.7012,-1.7001,-1.7001,-1.7001,-1.7001,-1.7001,-1.7001,-1.7023,-1.7238,-1.7238,-1.7001,-1.6592,-1.569,-1.4316,-1.4282,-1.413,-1.362,-1.3566,-1.3709,-1.3689,-1.2787,-1.1586,-1.0413,-0.9352,-0.8208,-0.7123,-0.6974,-0.6966,-0.6962,-0.6974,-0.697,-0.6978,-0.6982,-0.6986,-0.699,-0.699,-0.699,-0.699,-0.699,-0.7027,-0.7105,-0.7199,-0.7213,-0.7281,-0.7208,-0.6637,-0.524,-0.4919,-0.4227,-0.2814,-0.2658,-0.2567,-0.2469,-0.2487,-0.2491,-0.2462,-0.2447,-0.2458,-0.2496,-0.2485,-0.2487,-0.2506,-0.2507,-0.2514,-0.251,-0.2511,-0.2514,-0.2514,-0.2514,-0.2518,-0.2518,-0.2517,-0.2519,-0.2523,-0.2519,-0.2521,-0.2284,-0.189,-0.1336,-0.1256,-0.0468,0.0619,0.1925,0.3591,0.5431,0.6982,0.8369,0.8991,0.9449,0.9362,0.9318,0.9307,0.9302,0.9302,0.9302,0.9302,0.9302,0.9302,0.9663,1.0023,-2.2543,-2.1461,-2.0331,-1.9186,-1.8148,-1.7309,-1.6849,-1.6612,-1.6624,-1.6743,-1.6883,-1.6969,-1.7001,-1.7012,-1.7173,-1.7152,-1.7012,-1.7001,-1.7001,-1.7001,-1.7001,-1.7001,-1.7033,-1.726,-1.7346,-1.7292,-1.7209,-1.6513,-1.522,-1.4337,-1.3908,-1.3845,-1.3807,-1.3847,-1.3817,-1.3539,-1.2388,-1.0593,-0.9945,-0.8863,-0.7208,-0.699,-0.699,-0.699,-0.699,-0.699,-0.699,-0.699,-0.699,-0.699,-0.699,-0.699,-0.699,-0.699,-0.7003,-0.7043,-0.7125,-0.7215,-0.7301,-0.7386,-0.6999,-0.6033,-0.5805,-0.51,-0.3689,-0.3297,-0.3127,-0.2638,-0.2496,-0.25,-0.248,-0.2476,-0.2489,-0.2507,-0.2506,-0.25,-0.2511,-0.2514,-0.2514,-0.2514,-0.2514,-0.2514,-0.2519,-0.2532,-0.2542,-0.2545,-0.2557,-0.2567,-0.257,-0.257,-0.2487,-0.2086,-0.1678,-0.1192,-0.0874,-0.0472,0.0312,0.132,0.2702,0.4443,0.6094,0.8332,0.9303,0.9492,0.9405,0.9329,0.9318,0.9302,0.9302,0.9302,0.9302,0.9302,0.9302,0.9663,1.0023,-2.2731,-2.195,-2.0819,-1.9738,-1.8707,-1.7537,-1.694,-1.6828,-1.6775,-1.6861,-1.699,-1.7001,-1.7044,-1.7141,-1.7303,-1.7346,-1.7238,-1.7238,-1.7195,-1.713,-1.712,-1.712,-1.7163,-1.7378,-1.7486,-1.7462,-1.7453,-1.6823,-1.5778,-1.4605,-1.4065,-1.3896,-1.3904,-1.3904,-1.3904,-1.3904,-1.2896,-1.124,-1.0593,-0.9441,-0.7711,-0.7204,-0.699,-0.699,-0.699,-0.699,-0.699,-0.699,-0.699,-0.699,-0.699,-0.699,-0.699,-0.699,-0.699,-0.6998,-0.7076,-0.7154,-0.7219,-0.7325,-0.7107,-0.6308,-0.6261,-0.5567,-0.4003,-0.3756,-0.3348,-0.2723,-0.2489,-0.2491,-0.2492,-0.2503,-0.2514,-0.2514,-0.2514,-0.2514,-0.2514,-0.2514,-0.2514,-0.2517,-0.2525,-0.2529,-0.2532,-0.2556,-0.257,-0.2572,-0.259,-0.2601,-0.2601,-0.2601,-0.244,-0.1952,-0.1617,-0.1124,-0.072,-0.0317,0.055,0.1565,0.2961,0.4338,0.5845,0.8022,0.943,0.9461,0.9459,0.9372,0.9323,0.9307,0.9302,0.9302,0.9302,0.9302,0.9446,0.9663,1.0023,-2.3043,-2.2793,-2.1978,-2.0879,-1.984,-1.886,-1.7935,-1.7162,-1.7109,-1.7109,-1.7001,-1.7001,-1.713,-1.7324,-1.74,-1.7507,-1.7669,-1.7712,-1.7593,-1.74,-1.7378,-1.7378,-1.7389,-1.7615,-1.7744,-1.7698,-1.7138,-1.655,-1.5825,-1.5062,-1.4449,-1.3967,-1.3904,-1.3904,-1.3904,-1.3833,-1.3325,-1.2108,-1.1096,-0.9945,-0.8714,-0.7638,-0.7135,-0.699,-0.699,-0.699,-0.699,-0.699,-0.699,-0.699,-0.699,-0.699,-0.699,-0.699,-0.699,-0.7003,-0.7072,-0.7117,-0.7145,-0.728,-0.7056,-0.6396,-0.6223,-0.5624,-0.4289,-0.3802,-0.3409,-0.2646,-0.2488,-0.2482,-0.2504,-0.2515,-0.2517,-0.2514,-0.2517,-0.2519,-0.2518,-0.2517,-0.2517,-0.2525,-0.2544,-0.2559,-0.2566,-0.2585,-0.2601,-0.2602,-0.2609,-0.2615,-0.2617,-0.2617,-0.2364,-0.1957,-0.1549,-0.1137,-0.0645,-0.016,0.0872,0.2047,0.3683,0.515,0.6291,0.8135,0.9343,0.9661,0.9519,0.9432,0.9367,0.9345,0.9307,0.9302,0.9302,0.9302,0.9446,0.9663,1.0023,-2.2668,-2.2041,-2.1727,-2.1032,-2.0144,-1.9763,-1.8984,-1.8086,-1.8022,-1.7647,-1.7066,-1.7001,-1.7141,-1.7378,-1.754,-1.7744,-1.7981,-1.8121,-1.7992,-1.7669,-1.7615,-1.7615,-1.7658,-1.7863,-1.8056,-1.7919,-1.6957,-1.6285,-1.5873,-1.4867,-1.4118,-1.3904,-1.3904,-1.3904,-1.3904,-1.3833,-1.3325,-1.2323,-1.1821,-1.0737,-0.893,-0.8357,-0.7783,-0.7063,-0.699,-0.699,-0.699,-0.699,-0.699,-0.699,-0.699,-0.699,-0.699,-0.699,-0.699,-0.699,-0.7015,-0.7064,-0.7121,-0.7174,-0.7168,-0.6838,-0.6496,-0.566,-0.4596,-0.4002,-0.331,-0.2617,-0.2478,-0.2499,-0.2492,-0.2523,-0.2536,-0.2517,-0.2533,-0.2545,-0.2547,-0.2562,-0.2574,-0.2575,-0.2583,-0.2589,-0.2594,-0.2615,-0.2632,-0.2635,-0.2647,-0.266,-0.2661,-0.2657,-0.2331,-0.1665,-0.1325,0.0,0.0,0.0,0.0,0.0,0.3475,0.4944,0.6325,0.8161,0.9315,0.9737,0.9601,0.9492,0.9427,0.9367,0.9318,0.9302,0.9302,0.9302,0.9374,0.9663,1.0095,-2.2731,-2.2104,-2.174,-2.1222,-2.0589,-2.0272,-1.9763,-1.9048,-1.8664,-1.815,-1.756,-1.712,-1.7163,-1.7487,-1.7636,-1.7906,-1.8218,-1.8379,-1.8272,-1.8003,-1.7884,-1.7863,-1.7895,-1.811,-1.8282,-1.8153,-1.6964,-1.6254,-1.6117,-1.4757,-1.3969,-1.3912,-1.3904,-1.3904,-1.3904,-1.3904,-1.3468,-1.2896,-1.2388,-1.124,-0.9663,-0.8972,-0.8217,-0.7305,-0.7092,-0.7109,-0.7129,-0.7109,-0.7076,-0.7056,-0.7072,-0.7088,-0.7088,-0.7064,-0.7039,-0.7035,-0.7011,-0.7019,-0.7072,-0.7145,-0.7199,-0.718,-0.6637,-0.5829,-0.4992,-0.4176,-0.34,-0.2623,-0.2502,-0.2523,-0.2515,-0.2545,-0.2564,-0.2549,-0.2564,-0.2574,-0.2578,-0.259,-0.26,-0.2601,-0.2611,-0.2616,-0.2624,-0.2645,-0.2662,-0.2667,-0.268,-0.2692,-0.2692,-0.2522,-0.2018,-0.1513,-0.1172,0.0,0.0,0.0,0.0,0.0,0.2946,0.4264,0.5564,0.8114,0.9911,0.978,0.9644,0.9519,0.9443,0.9362,0.9302,0.9302,0.9302,0.9302,0.9374,0.9879,1.0311,-2.3106,-2.2981,-2.2104,-2.174,-2.1601,-2.0779,-2.0386,-2.0017,-1.9112,-1.8576,-1.8244,-1.7422,-1.7282,-1.7619,-1.7758,-1.8013,-1.8299,-1.8352,-1.8455,-1.8379,-1.8261,-1.8164,-1.8196,-1.8369,-1.8417,-1.8138,-1.706,-1.6315,-1.596,-1.4805,-1.4083,-1.392,-1.3904,-1.3904,-1.3904,-1.3904,-1.3937,-1.3658,-1.2869,-1.1877,-1.0577,-0.9573,-0.8577,-0.7553,-0.7323,-0.7276,-0.7329,-0.7288,-0.7219,-0.7158,-0.7203,-0.7235,-0.7239,-0.7182,-0.715,-0.715,-0.7064,-0.706,-0.7076,-0.7207,-0.7292,-0.7313,-0.6575,-0.588,-0.5006,-0.4075,-0.3301,-0.2592,-0.2542,-0.2562,-0.2564,-0.2587,-0.2602,-0.2607,-0.2607,-0.2607,-0.2607,-0.2611,-0.2617,-0.2619,-0.2632,-0.2567,-0.265,-0.2673,-0.2684,-0.2688,-0.2691,-0.2691,-0.2608,-0.2355,-0.185,-0.1429,-0.1008,0.0,0.0,0.0,0.0,0.0,0.2661,0.4312,0.5519,0.7989,0.9904,0.9845,0.9699,0.9574,0.947,0.9394,0.9329,0.9302,0.9302,0.9302,0.9518,0.9951,1.0389,-2.3106,-2.3043,-2.2793,-2.2731,-2.2668,-2.2418,-2.1853,-2.1096,-2.0144,-1.9176,-1.8472,-1.7641,-1.7444,-1.7673,-1.7941,-1.8164,-1.8412,-1.8455,-1.8541,-1.867,-1.8638,-1.8605,-1.8605,-1.8659,-1.8431,-1.7991,-1.7097,-1.6304,-1.5488,-1.4664,-1.4091,-1.3904,-1.3912,-1.3912,-1.3912,-1.4042,-1.4099,-1.4123,-1.4018,-1.3243,-1.2065,-1.0841,-0.9816,-0.8787,-0.7831,-0.7389,-0.7378,-0.737,-0.7317,-0.7235,-0.7248,-0.7264,-0.728,-0.7305,-0.7321,-0.7321,-0.7354,-0.7374,-0.7382,-0.7419,-0.7452,-0.7301,-0.6179,-0.5254,-0.5022,-0.3721,-0.2943,-0.2552,-0.2574,-0.2592,-0.2596,-0.2617,-0.2642,-0.2662,-0.2649,-0.2645,-0.266,-0.2668,-0.2668,-0.2669,-0.2676,-0.2677,-0.2683,-0.2684,-0.2692,-0.2692,-0.2692,-0.2692,-0.2608,-0.2187,-0.1682,-0.1346,-0.0925,-0.0504,0.0,0.0,0.0,0.0,0.2373,0.4783,0.6148,0.8033,0.9329,0.996,0.9775,0.9633,0.9546,0.9465,0.94,0.9329,0.9307,0.9307,0.9518,0.9879,1.0323,-2.3106,-2.3106,-2.3106,-2.3106,-2.3106,-2.3106,-2.2552,-2.1651,-2.0695,-1.9697,-1.8787,-1.7884,-1.7698,-1.8036,-1.8159,-1.8433,-1.8702,-1.8735,-1.8821,-1.8907,-1.8928,-1.8928,-1.8856,-1.8651,-1.8218,-1.7819,-1.6887,-1.6057,-1.541,-1.4652,-1.4253,-1.4058,-1.4018,-1.4018,-1.4034,-1.4188,-1.4286,-1.4302,-1.4309,-1.3831,-1.2717,-1.1508,-1.0399,-0.9341,-0.8085,-0.7403,-0.7444,-0.7448,-0.7407,-0.7354,-0.7382,-0.7431,-0.7513,-0.7476,-0.7505,-0.7505,-0.7521,-0.7521,-0.7533,-0.7558,-0.7582,-0.7275,-0.6026,-0.5254,-0.4793,-0.3544,-0.2594,-0.2582,-0.2615,-0.263,-0.2628,-0.2649,-0.2672,-0.2686,-0.2687,-0.2686,-0.2694,-0.269,-0.2698,-0.2703,-0.2701,-0.2699,-0.2707,-0.2702,-0.2694,-0.2692,-0.2692,-0.2692,-0.2608,-0.2103,-0.1683,-0.1348,0.0,0.0,0.0,0.0,0.0,0.0,0.2727,0.5082,0.7003,0.8396,0.9213,1.0003,0.9845,0.972,0.965,0.9557,0.9454,0.9394,0.9345,0.9463,0.968,0.998,1.042,-2.3106,-2.3106,-2.3135,-2.3164,-2.3179,-2.3208,-2.2779,-2.1937,-2.0916,-1.9973,-1.9189,-1.8217,-1.7999,-1.8404,-1.8404,-1.8713,-1.905,-1.9007,-1.9144,-1.9187,-1.9219,-1.9252,-1.9189,-1.8466,-1.7973,-1.76,-1.6469,-1.5808,-1.5323,-1.4687,-1.4367,-1.4245,-1.4205,-1.4205,-1.4237,-1.4375,-1.4448,-1.4473,-1.4521,-1.4105,-1.3139,-1.2092,-1.098,-0.9848,-0.8232,-0.7591,-0.7517,-0.7513,-0.748,-0.7407,-0.7562,-0.7603,-0.7623,-0.764,-0.7652,-0.7644,-0.7599,-0.7578,-0.757,-0.7644,-0.7689,-0.7465,-0.6152,-0.5215,-0.49,-0.3703,-0.2638,-0.2619,-0.2661,-0.2668,-0.2661,-0.2676,-0.2691,-0.2702,-0.2721,-0.2721,-0.2709,-0.2702,-0.2713,-0.2736,-0.2717,-0.272,-0.2724,-0.2718,-0.2698,-0.2707,-0.2702,-0.2692,-0.2444,-0.1942,-0.1605,-0.1353,0.0,0.0,0.0,0.0,0.0,0.0922,0.3329,0.5687,0.7838,0.9164,0.9651,1.0025,0.9878,0.9807,0.9786,0.9677,0.9546,0.9476,0.9438,0.9613,0.9864,1.0245,1.0614,-2.3106,-2.3135,-2.3384,-2.3486,-2.353,-2.3764,-2.3249,-2.2198,-2.1214,-2.0203,-1.9279,-1.8394,-1.8212,-1.8425,-1.8638,-1.8875,-1.9092,-1.9208,-1.9241,-1.9445,-1.9628,-1.9682,-1.949,-1.8692,-1.7946,-1.7378,-1.6545,-1.5725,-1.5069,-1.4777,-1.4554,-1.4399,-1.4383,-1.4383,-1.4408,-1.4554,-1.4651,-1.4667,-1.4773,-1.4746,-1.4281,-1.3166,-1.1947,-1.0661,-0.8716,-0.7665,-0.7537,-0.7525,-0.7517,-0.7513,-0.7537,-0.7591,-0.7586,-0.7635,-0.7668,-0.7684,-0.7721,-0.7733,-0.7742,-0.7754,-0.7799,-0.7685,-0.6309,-0.5212,-0.5255,-0.3671,-0.276,-0.2673,-0.2686,-0.2682,-0.2679,-0.2686,-0.2703,-0.2721,-0.2736,-0.2748,-0.2758,-0.2762,-0.2763,-0.2769,-0.2766,-0.2766,-0.277,-0.2747,-0.2731,-0.2727,-0.2713,-0.2697,-0.2281,-0.1783,-0.1447,-0.1193,0.0,0.0,0.0,0.0,0.0,0.1178,0.3512,0.5391,0.7564,0.9536,1.0019,1.0057,0.9916,0.9878,0.9873,0.9769,0.9628,0.9584,0.9615,0.9809,1.0069,1.0419,1.0877,-2.3106,-2.3135,-2.3457,-2.3603,-2.3647,-2.394,-2.3243,-2.1965,-2.1312,-2.0221,-1.9027,-1.8404,-1.8443,-1.8727,-1.8881,-1.9133,-1.9413,-1.9478,-1.9542,-1.9671,-1.9865,-1.9908,-1.9682,-1.8909,-1.8069,-1.7321,-1.6186,-1.5362,-1.4914,-1.4749,-1.4651,-1.457,-1.4562,-1.4562,-1.4586,-1.4741,-1.4822,-1.4838,-1.4911,-1.5045,-1.4814,-1.3729,-1.2114,-1.056,-0.8693,-0.757,-0.7529,-0.757,-0.7586,-0.7599,-0.7627,-0.7631,-0.7611,-0.7676,-0.7721,-0.7742,-0.7811,-0.7831,-0.7815,-0.784,-0.786,-0.7795,-0.6233,-0.5511,-0.4874,-0.3641,-0.2816,-0.265,-0.2649,-0.2653,-0.2671,-0.2703,-0.2721,-0.2737,-0.2763,-0.2787,-0.2797,-0.2793,-0.2791,-0.2796,-0.2791,-0.2792,-0.2788,-0.2774,-0.2763,-0.2758,-0.2755,-0.2742,-0.2229,-0.1722,-0.1292,-0.0948,-0.0431,0.0,0.0,0.0,0.0,0.143,0.3357,0.4823,0.6318,0.8334,1.0231,1.0095,0.996,0.9954,0.9927,0.9818,0.9748,0.9715,0.9757,1.0024,1.0363,1.0705,1.1195,-2.3135,-2.3208,-2.353,-2.3691,-2.3793,-2.392,-2.3004,-2.1513,-2.12,-2.0069,-1.8681,-1.8433,-1.8588,-1.8953,-1.906,-1.9413,-1.9725,-1.9887,-1.9865,-1.9887,-1.9898,-1.9919,-1.9682,-1.883,-1.7986,-1.7255,-1.6109,-1.5335,-1.4988,-1.483,-1.4773,-1.4749,-1.4749,-1.4749,-1.4781,-1.4911,-1.5009,-1.5017,-1.5074,-1.5106,-1.502,-1.4074,-1.2532,-1.0386,-0.8534,-0.7752,-0.7672,-0.7693,-0.7709,-0.7705,-0.7766,-0.775,-0.7725,-0.7746,-0.7799,-0.7795,-0.7856,-0.7868,-0.7856,-0.7885,-0.7905,-0.7766,-0.6233,-0.5344,-0.4946,-0.3803,-0.2811,-0.2641,-0.2645,-0.2654,-0.2668,-0.2714,-0.2744,-0.2761,-0.2801,-0.2826,-0.283,-0.2812,-0.2818,-0.2827,-0.2825,-0.2823,-0.2819,-0.281,-0.2799,-0.2789,-0.2788,-0.2611,-0.209,-0.1656,-0.122,-0.0785,-0.0349,0.0,0.0,0.0,0.0,0.1262,0.3108,0.4586,0.5784,0.8182,1.0089,1.0066,1.0041,1.0019,0.9992,0.9921,0.9873,0.9851,1.003,1.0283,1.0631,1.0914,1.1523,-2.3267,-2.3545,-2.3866,-2.4159,-2.4291,-2.3792,-2.2835,-2.1589,-2.0752,-1.9634,-1.8503,-1.8444,-1.8545,-1.8856,-1.9028,-1.9413,-1.9833,-1.9919,-1.9919,-1.9919,-1.9919,-1.9919,-1.9617,-1.8547,-1.7702,-1.7255,-1.6339,-1.565,-1.5113,-1.4935,-1.4895,-1.4911,-1.4927,-1.4927,-1.4976,-1.5098,-1.522,-1.5252,-1.535,-1.5423,-1.5344,-1.471,-1.3554,-1.1143,-0.9101,-0.8082,-0.7929,-0.7905,-0.7889,-0.7885,-0.7831,-0.7803,-0.7799,-0.7811,-0.7815,-0.7819,-0.7852,-0.7897,-0.7913,-0.7929,-0.8011,-0.7669,-0.6411,-0.5431,-0.5025,-0.3826,-0.2862,-0.2699,-0.2705,-0.2722,-0.2758,-0.2766,-0.2787,-0.2806,-0.2818,-0.2837,-0.2853,-0.2853,-0.2846,-0.2851,-0.2852,-0.2853,-0.2845,-0.2838,-0.2829,-0.2816,-0.2723,-0.2455,-0.2015,-0.1581,-0.1146,-0.0705,-0.0352,0.0,0.0,0.0,0.0,0.0,0.2687,0.4679,0.6301,0.8665,0.9946,1.0115,1.0123,1.0041,1.0014,0.9987,0.9976,0.9938,1.0196,1.0527,1.092,1.1244,1.1792,-2.3398,-2.3852,-2.4027,-2.4276,-2.4532,-2.4367,-2.3256,-2.1734,-2.1113,-2.004,-1.8926,-1.847,-1.8728,-1.9041,-1.9092,-1.9413,-1.9822,-1.9919,-1.9919,-1.9919,-1.9919,-1.9919,-1.9768,-1.8547,-1.7864,-1.7245,-1.6568,-1.5735,-1.5045,-1.5045,-1.5061,-1.4992,-1.5049,-1.5106,-1.5179,-1.5382,-1.5488,-1.5553,-1.5683,-1.5788,-1.5545,-1.4726,-1.2982,-1.1717,-0.9618,-0.8223,-0.8064,-0.8085,-0.8068,-0.8064,-0.8032,-0.8007,-0.7987,-0.7954,-0.7913,-0.7897,-0.7946,-0.7991,-0.8015,-0.8036,-0.7845,-0.7263,-0.6105,-0.5176,-0.4599,-0.3566,-0.2721,-0.272,-0.2648,-0.2743,-0.2754,-0.2788,-0.2812,-0.2823,-0.2829,-0.2836,-0.2846,-0.2852,-0.2855,-0.2859,-0.2861,-0.2863,-0.2867,-0.286,-0.2855,-0.2756,-0.2658,-0.221,-0.1853,-0.1416,0.0,0.0,0.0,0.0,0.0,0.0,0.0,0.0,0.2608,0.4605,0.6496,0.8783,0.9968,1.0433,1.0286,1.0139,1.0041,1.0014,1.0019,1.0108,1.038,1.0744,1.116,1.1675,1.2148,-2.3647,-2.4188,-2.4188,-2.443,-2.4686,-2.4733,-2.3597,-2.1941,-2.1452,-2.0332,-1.8817,-1.862,-1.8816,-1.9233,-1.9339,-1.9456,-1.9908,-1.9919,-1.9919,-1.9919,-1.9919,-1.9844,-1.939,-1.8774,-1.7864,-1.695,-1.6256,-1.5633,-1.5195,-1.5049,-1.5049,-1.5139,-1.5252,-1.5325,-1.5415,-1.5658,-1.5788,-1.5894,-1.6048,-1.6146,-1.5482,-1.3665,-1.2173,-1.1933,-0.9676,-0.8191,-0.8223,-0.8236,-0.8236,-0.8219,-0.8191,-0.8179,-0.8162,-0.8121,-0.806,-0.8027,-0.813,-0.8154,-0.8191,-0.8207,-0.7905,-0.7049,-0.5978,-0.5035,-0.4097,-0.3435,-0.2731,-0.2724,-0.2742,-0.2676,-0.2776,-0.2801,-0.2822,-0.2827,-0.2829,-0.2831,-0.2842,-0.2848,-0.2851,-0.2856,-0.2864,-0.287,-0.2872,-0.2872,-0.2864,-0.2595,-0.2408,-0.1874,-0.1426,-0.1071,0.0,0.0,0.0,0.0,0.0,0.0,0.0,0.0,0.3213,0.5308,0.6951,0.8741,0.9598,1.053,1.0438,1.0291,1.0166,1.0095,1.0229,1.0403,1.0582,1.0974,1.1578,1.2016,1.2476,-2.4188,-2.451,-2.4576,-2.4701,-2.4829,-2.4074,-2.2914,-2.1703,-2.0953,-1.9758,-1.8578,-1.8875,-1.8921,-1.9007,-1.9381,-1.9596,-1.9779,-1.9919,-1.9919,-1.9919,-1.98,-1.9432,-1.8795,-1.794,-1.7244,-1.659,-1.5768,-1.5351,-1.5228,-1.5228,-1.5285,-1.5398,-1.5463,-1.5545,-1.565,-1.5918,-1.6008,-1.6073,-1.6341,-1.6503,-1.6095,-1.3878,-1.2724,-1.1807,-1.0122,-0.8493,-0.8464,-0.8436,-0.8387,-0.8313,-0.824,-0.8162,-0.8109,-0.8154,-0.817,-0.817,-0.8203,-0.826,-0.8358,-0.8296,-0.7811,-0.6852,-0.6089,-0.5243,-0.414,-0.333,-0.2796,-0.2812,-0.2814,-0.281,-0.2806,-0.2821,-0.2829,-0.283,-0.2831,-0.2844,-0.2853,-0.2844,-0.2846,-0.2855,-0.2864,-0.287,-0.2874,-0.2874,-0.2784,-0.2515,-0.2156,-0.1616,-0.1077,-0.0808,-0.0537,0.0,0.0,0.0,0.0,0.0,0.0,0.0,0.3741,0.5848,0.7501,0.8878,0.9906,1.059,1.0514,1.0471,1.0378,1.0415,1.0501,1.0702,1.0963,1.1476,1.2109,1.2548,1.2882,-2.4782,-2.4885,-2.4723,-2.4826,-2.497,-2.3884,-2.2815,-2.1849,-2.085,-1.9889,-1.9159,-1.909,-1.9155,-1.9241,-1.9553,-1.9822,-1.9908,-1.9941,-1.9919,-1.9757,-1.9517,-1.9121,-1.8558,-1.7622,-1.6754,-1.6364,-1.583,-1.5543,-1.548,-1.5447,-1.5455,-1.5536,-1.5707,-1.5772,-1.5861,-1.617,-1.6243,-1.6324,-1.6519,-1.6722,-1.6082,-1.435,-1.2771,-1.2595,-1.0002,-0.8867,-0.8583,-0.8522,-0.846,-0.8387,-0.8285,-0.8187,-0.8142,-0.8138,-0.8138,-0.8203,-0.8248,-0.8309,-0.8284,-0.7955,-0.722,-0.6366,-0.5397,-0.4395,-0.3615,-0.3094,-0.2821,-0.2801,-0.2819,-0.2827,-0.2829,-0.2829,-0.284,-0.2844,-0.2836,-0.2838,-0.2848,-0.2845,-0.2844,-0.2853,-0.2863,-0.278,-0.2784,-0.2694,-0.2515,-0.2245,-0.1886,-0.1347,-0.0898,-0.0449,-0.0268,0.0,0.0,0.0,0.0,0.0,0.0,0.2333,0.4018,0.6048,0.78,0.9188,1.0237,1.0699,1.0655,1.0612,1.0568,1.0574,1.0653,1.0953,1.1344,1.1863,1.2391,1.2754,1.3112,-2.5066,-2.5105,-2.4788,-2.4899,-2.4984,-2.3884,-2.2881,-2.2013,-2.0982,-2.0082,-1.9526,-1.9295,-1.937,-1.9596,-1.9811,-2.0027,-1.9951,-2.007,-1.9864,-1.9632,-1.9255,-1.8727,-1.8076,-1.7099,-1.6599,-1.6395,-1.5864,-1.5626,-1.5691,-1.5707,-1.5666,-1.5658,-1.5804,-1.5983,-1.604,-1.6235,-1.6397,-1.6414,-1.6617,-1.6763,-1.6333,-1.4285,-1.3192,-1.2048,-1.0357,-0.8575,-0.8562,-0.8481,-0.8432,-0.8358,-0.8272,-0.8183,-0.8146,-0.8134,-0.8146,-0.8207,-0.8268,-0.8321,-0.8094,-0.7588,-0.6557,-0.5605,-0.4479,-0.3601,-0.3083,-0.2829,-0.2836,-0.2818,-0.283,-0.2837,-0.2831,-0.2829,-0.2836,-0.2841,-0.284,-0.2837,-0.2838,-0.2846,-0.2852,-0.286,-0.2777,-0.2602,-0.2604,-0.2515,-0.2335,-0.1976,-0.1526,-0.1077,0.0,0.0,0.0,0.0,0.0,0.0,0.0,0.0,0.0,0.3144,0.4839,0.6778,0.8816,0.9804,1.0609,1.0824,1.0775,1.0732,1.0672,1.065,1.0801,1.1335,1.1849,1.2219,1.2644,1.3023,1.3247,-2.5066,-2.5052,-2.5022,-2.5022,-2.4916,-2.3884,-2.2881,-2.1948,-2.1102,-2.0089,-1.9368,-1.9402,-1.9628,-1.9833,-2.0059,-2.0188,-2.0199,-2.0414,-2.0036,-1.959,-1.9181,-1.8327,-1.7496,-1.681,-1.6358,-1.5825,-1.5683,-1.5764,-1.5804,-1.591,-1.5951,-1.6024,-1.5966,-1.6137,-1.6178,-1.6251,-1.6381,-1.643,-1.6584,-1.6526,-1.5877,-1.4345,-1.2927,-1.2113,-1.02,-0.8481,-0.8477,-0.8403,-0.8338,-0.8272,-0.824,-0.8195,-0.8162,-0.8174,-0.8203,-0.8236,-0.8305,-0.8259,-0.7913,-0.7334,-0.6566,-0.5425,-0.4122,-0.3089,-0.2921,-0.2857,-0.2866,-0.2851,-0.2845,-0.2846,-0.2837,-0.283,-0.2834,-0.2844,-0.2848,-0.2852,-0.2855,-0.2863,-0.2867,-0.278,-0.2693,-0.2515,-0.2156,-0.2066,-0.1796,-0.1436,-0.1077,0.0,0.0,0.0,0.0,0.0,0.0,0.0,0.0,0.1249,0.275,0.4584,0.6473,0.835,1.0315,1.087,1.0965,1.0905,1.0851,1.0813,1.0864,1.1037,1.1405,1.1943,1.237,1.2592,1.2916,1.33,1.341,-2.5066,-2.5066,-2.5066,-2.4713,-2.3966,-2.3046,-2.2096,-2.1234,-2.0336,-1.9889,-1.9585,-1.9833,-1.9984,-2.0124,-2.0307,-2.0425,-2.0436,-2.05,-2.0017,-1.9351,-1.8769,-1.7971,-1.7057,-1.6491,-1.6089,-1.5837,-1.591,-1.5943,-1.5959,-1.5933,-1.595,-1.5982,-1.6146,-1.6137,-1.617,-1.6186,-1.6243,-1.6332,-1.6394,-1.6377,-1.5044,-1.3794,-1.2384,-1.1231,-0.9651,-0.8478,-0.8383,-0.8358,-0.8317,-0.8289,-0.8281,-0.8248,-0.8223,-0.826,-0.8277,-0.8293,-0.837,-0.8126,-0.7393,-0.6631,-0.5493,-0.4104,-0.3159,-0.2829,-0.2834,-0.2837,-0.2833,-0.283,-0.2841,-0.2844,-0.2834,-0.283,-0.2834,-0.2848,-0.2859,-0.2866,-0.2867,-0.2872,-0.2874,-0.2872,-0.2513,-0.2245,-0.1886,-0.1526,-0.1257,-0.0898,-0.0539,0.0,0.0,0.0,0.0,0.0,0.0,0.0,0.0,0.2597,0.4111,0.6044,0.7956,0.9416,1.0944,1.1031,1.1041,1.0982,1.0927,1.0884,1.1109,1.1513,1.1921,1.2166,1.2617,1.2985,1.3328,1.358,1.358,-2.5066,-2.5066,-2.5154,-2.457,-2.3419,-2.251,-2.1672,-2.0834,-1.9929,-1.9682,-1.9962,-2.0145,-2.0264,-2.0361,-2.0554,-2.0662,-2.0694,-2.0759,-2.0226,-1.9653,-1.9103,-1.8105,-1.7278,-1.6687,-1.641,-1.613,-1.5966,-1.595,-1.5942,-1.5958,-1.6006,-1.6154,-1.6219,-1.6186,-1.6113,-1.6162,-1.6227,-1.6357,-1.6523,-1.6066,-1.4793,-1.3504,-1.2138,-1.0802,-0.9223,-0.8486,-0.8383,-0.8362,-0.8334,-0.8326,-0.8326,-0.833,-0.8338,-0.8358,-0.8375,-0.8407,-0.8356,-0.8033,-0.7027,-0.5749,-0.4529,-0.3239,-0.299,-0.2821,-0.2819,-0.2829,-0.2841,-0.2827,-0.2837,-0.2842,-0.2844,-0.2855,-0.2856,-0.2871,-0.2883,-0.2889,-0.2875,-0.2874,-0.2874,-0.2874,-0.2425,-0.1886,-0.1526,0.0,0.0,0.0,0.0,0.0,0.0,0.0,0.0,0.0,0.0,0.0,0.2598,0.4474,0.6255,0.7146,0.8892,0.994,1.0946,1.1128,1.1156,1.1118,1.1058,1.1056,1.1368,1.1889,1.2125,1.227,1.2822,1.3383,1.3467,1.3715,1.3736,-2.5066,-2.5163,-2.5305,-2.4746,-2.3552,-2.2587,-2.1699,-2.0897,-2.0062,-1.9801,-2.0188,-2.0264,-2.0382,-2.0576,-2.0802,-2.0899,-2.0942,-2.1103,-2.0776,-1.9947,-1.9452,-1.8708,-1.7819,-1.7026,-1.6476,-1.613,-1.5998,-1.6014,-1.6014,-1.6137,-1.6194,-1.6267,-1.6324,-1.6292,-1.6121,-1.6405,-1.6649,-1.6844,-1.7128,-1.6087,-1.4706,-1.3356,-1.1938,-1.0367,-0.9215,-0.8468,-0.8456,-0.8436,-0.8419,-0.8415,-0.8428,-0.8432,-0.8428,-0.8481,-0.8501,-0.8509,-0.8575,-0.8157,-0.7163,-0.5278,-0.3866,-0.3001,-0.2837,-0.284,-0.2861,-0.2871,-0.2872,-0.286,-0.2874,-0.2876,-0.2885,-0.2891,-0.2889,-0.289,-0.2901,-0.2896,-0.2881,-0.2874,-0.2874,-0.2604,-0.1976,-0.1347,-0.1077,0.0,0.0,0.0,0.0,0.0,0.0,0.0,0.0,0.0,0.1076,0.251,0.3939,0.6531,0.8315,0.9032,0.974,1.0697,1.114,1.1285,1.1313,1.1259,1.1275,1.1187,1.1693,1.2208,1.2546,1.2889,1.3304,1.3765,1.3765,1.3865,1.3885,-2.5066,-2.5081,-2.4564,-2.3827,-2.2943,-2.2709,-2.1679,-2.0262,-1.9984,-2.0156,-2.0436,-2.0597,-2.0694,-2.0845,-2.1007,-2.1136,-2.1168,-2.119,-2.079,-2.0049,-1.9551,-1.8491,-1.76,-1.6961,-1.6435,-1.6269,-1.6219,-1.6284,-1.6414,-1.6365,-1.6397,-1.6479,-1.6503,-1.6527,-1.6584,-1.673,-1.6803,-1.6641,-1.6168,-1.5052,-1.3604,-1.2269,-1.0976,-0.9586,-0.8875,-0.857,-0.8575,-0.8562,-0.8575,-0.8587,-0.8607,-0.8648,-0.8652,-0.8705,-0.8717,-0.8726,-0.8684,-0.7958,-0.6404,-0.4629,-0.3337,-0.2964,-0.2863,-0.2867,-0.2874,-0.2893,-0.2898,-0.2906,-0.2916,-0.2921,-0.2936,-0.2917,-0.2909,-0.2901,-0.2902,-0.2887,-0.2875,-0.2875,-0.2784,-0.2335,-0.1796,-0.1079,-0.054,0.009,0.0,0.0,0.0,0.0,0.0,0.0,0.0,0.0,0.1435,0.3136,0.5102,0.7602,0.9482,1.0199,1.0649,1.1177,1.1449,1.1543,1.1395,1.1297,1.1357,1.1417,1.1992,1.2669,1.3172,1.3626,1.3847,1.4034,1.4075,1.4068,1.4055,-2.5066,-2.4975,-2.4261,-2.3399,-2.254,-2.2371,-2.1257,-1.9994,-2.0091,-2.0382,-2.0662,-2.0845,-2.0953,-2.105,-2.119,-2.1276,-2.1276,-2.0952,-2.1114,-2.0211,-1.9225,-1.8491,-1.7764,-1.6888,-1.656,-1.6426,-1.6324,-1.6381,-1.6535,-1.6568,-1.6609,-1.6665,-1.6738,-1.6877,-1.6958,-1.6998,-1.6633,-1.6241,-1.5585,-1.443,-1.274,-1.1315,-1.0364,-0.9325,-0.8734,-0.8705,-0.8713,-0.8746,-0.8783,-0.8803,-0.8836,-0.8877,-0.8877,-0.8877,-0.8873,-0.8873,-0.804,-0.7111,-0.5352,-0.4061,-0.3113,-0.3001,-0.2905,-0.2904,-0.2905,-0.2924,-0.293,-0.2939,-0.2954,-0.2958,-0.2958,-0.2938,-0.2939,-0.2934,-0.2927,-0.2915,-0.2904,-0.2905,-0.2724,-0.2176,-0.1631,-0.0906,0.0091,0.0817,0.0,0.0,0.0,0.1442,0.1168,0.1077,0.1256,0.2062,0.3136,0.5102,0.6889,0.8587,1.0199,1.1277,1.1543,1.1543,1.1543,1.1543,1.1395,1.1445,1.1616,1.195,1.2523,1.3048,1.3631,1.3927,1.4096,1.4217,1.4292,1.4251,1.419,-2.5134,-2.5018,-2.44,-2.3501,-2.2506,-2.1642,-2.0767,-2.0199,-2.0231,-2.049,-2.092,-2.0931,-2.105,-2.1233,-2.1276,-2.1276,-2.1195,-2.0536,-2.0617,-2.0455,-1.9307,-1.8818,-1.8183,-1.7472,-1.6792,-1.6459,-1.6389,-1.6535,-1.6609,-1.6682,-1.6763,-1.6885,-1.7023,-1.7177,-1.7242,-1.6807,-1.6348,-1.5779,-1.4685,-1.3388,-1.1716,-1.1063,-1.0148,-0.9283,-0.8889,-0.8881,-0.8885,-0.8897,-0.8897,-0.8897,-0.8897,-0.8893,-0.8889,-0.8881,-0.8881,-0.8239,-0.686,-0.5662,-0.4742,-0.363,-0.3169,-0.2976,-0.2977,-0.2971,-0.2957,-0.2956,-0.2962,-0.2966,-0.2976,-0.2973,-0.2969,-0.2977,-0.2984,-0.2981,-0.2979,-0.2968,-0.2954,-0.2859,-0.2581,-0.212,-0.1567,-0.0645,0.0644,0.1565,0.2661,0.3296,0.3646,0.4167,0.3789,0.3047,0.3494,0.4566,0.5817,0.7602,0.9032,0.9749,1.0555,1.1455,1.1543,1.1543,1.1543,1.1543,1.1427,1.1594,1.1971,1.2396,1.296,1.35,1.4082,1.4278,1.4258,1.4272,1.4299,1.4299,1.4258,-2.5183,-2.5226,-2.3638,-2.2903,-2.2566,-2.1176,-2.0484,-2.0447,-2.0468,-2.0727,-2.1179,-2.1168,-2.12,-2.1276,-2.1276,-2.1276,-2.1195,-2.1033,-2.0617,-2.0049,-1.9144,-1.8419,-1.7727,-1.7082,-1.6659,-1.6571,-1.6625,-1.6738,-1.6909,-1.6942,-1.7031,-1.7226,-1.725,-1.7396,-1.7021,-1.6423,-1.5716,-1.4867,-1.3659,-1.2298,-1.1036,-1.0259,-0.9611,-0.9142,-0.904,-0.904,-0.904,-0.9052,-0.9052,-0.9052,-0.906,-0.9065,-0.9065,-0.8406,-0.7837,-0.6801,-0.5763,-0.4822,-0.4446,-0.3616,-0.3054,-0.3056,-0.3069,-0.3028,-0.3001,-0.2987,-0.3001,-0.3009,-0.302,-0.3025,-0.3022,-0.3025,-0.3024,-0.3016,-0.301,-0.2995,-0.2983,-0.2698,-0.2326,-0.1116,-0.0651,0.0651,0.1859,0.2875,0.4071,0.4988,0.5702,0.6398,0.635,0.5589,0.5641,0.6713,0.7602,0.9032,0.9482,1.0105,1.0827,1.1543,1.1543,1.1543,1.1543,1.1543,1.1543,1.181,1.2343,1.2875,1.3401,1.3945,1.4299,1.4299,1.4285,1.4292,1.4299,1.4299,1.4299,-2.5359,-2.5233,-2.3443,-2.2385,-2.1653,-2.0691,-2.0393,-2.0651,-2.0694,-2.092,-2.1254,-2.1265,-2.1276,-2.1276,-2.1276,-2.1276,-2.1276,-2.079,-2.0374,-1.9967,-1.8755,-1.8074,-1.733,-1.6768,-1.653,-1.6641,-1.6803,-1.6901,-1.708,-1.7128,-1.7193,-1.7348,-1.7388,-1.7135,-1.6393,-1.5251,-1.4205,-1.3254,-1.2216,-1.1041,-1.0161,-0.9565,-0.9225,-0.9055,-0.9055,-0.9055,-0.9158,-0.9171,-0.9183,-0.9179,-0.9183,-0.9228,-0.9032,-0.8262,-0.6815,-0.5953,-0.5101,-0.4434,-0.3959,-0.3489,-0.321,-0.312,-0.3133,-0.3101,-0.3076,-0.3062,-0.3066,-0.3071,-0.3081,-0.3088,-0.3081,-0.3073,-0.3059,-0.3046,-0.3031,-0.3014,-0.2819,-0.2532,-0.1405,-0.0094,0.1124,0.2342,0.3463,0.4485,0.5699,0.701,0.8192,0.914,0.8791,0.7895,0.8098,0.8952,0.9397,1.011,1.0288,1.0466,1.1005,1.1543,1.1543,1.1543,1.1543,1.1632,1.1721,1.2165,1.2698,1.323,1.3768,1.4033,1.4299,1.4299,1.4299,1.4299,1.4299,1.4299,1.4299,-2.548,-2.5207,-2.351,-2.179,-2.0353,-2.0253,-2.0511,-2.091,-2.0931,-2.106,-2.1254,-2.1276,-2.1276,-2.1276,-2.1276,-2.1276,-2.1033,-2.0536,-2.0049,-1.9815,-1.8402,-1.7486,-1.7167,-1.6776,-1.6584,-1.6771,-1.6909,-1.7015,-1.7112,-1.7218,-1.7331,-1.7413,-1.7461,-1.7041,-1.5821,-1.4461,-1.3222,-1.1993,-1.1195,-1.0287,-0.9526,-0.9097,-0.9051,-0.9163,-0.9167,-0.9167,-0.9195,-0.9224,-0.9252,-0.9252,-0.9277,-0.9342,-0.8559,-0.7977,-0.6515,-0.5252,-0.4483,-0.4001,-0.3521,-0.3138,-0.3145,-0.3148,-0.3148,-0.3149,-0.3141,-0.3115,-0.3111,-0.3111,-0.3116,-0.3118,-0.3112,-0.3108,-0.3099,-0.3082,-0.3065,-0.3047,-0.2937,-0.1798,0.0284,0.1609,0.3131,0.4363,0.5761,0.6886,0.7743,0.9179,1.0179,1.1212,1.0824,0.9794,0.996,1.0496,1.0654,1.0738,1.1005,1.1099,1.1277,1.1543,1.1543,1.1543,1.1543,1.1721,1.1899,1.2432,1.2964,1.3584,1.4033,1.421,1.4299,1.4299,1.4299,1.4299,1.4306,1.4319,1.4312,-2.5111,-2.4382,-2.2631,-2.1307,-2.0535,-2.0479,-2.0748,-2.1179,-2.119,-2.1211,-2.1276,-2.1276,-2.1276,-2.1276,-2.1195,-2.1195,-2.1135,-2.0425,-1.9642,-1.9077,-1.8,-1.7368,-1.6793,-1.6738,-1.6661,-1.686,-1.6982,-1.7145,-1.7299,-1.7437,-1.7583,-1.7754,-1.7579,-1.6811,-1.5496,-1.4107,-1.2648,-1.1107,-1.0303,-0.9828,-0.9233,-0.9138,-0.9167,-0.922,-0.9248,-0.9277,-0.931,-0.935,-0.9363,-0.9367,-0.9379,-0.8611,-0.7141,-0.6863,-0.5587,-0.4015,-0.3633,-0.3444,-0.3255,-0.3167,-0.3175,-0.3185,-0.3191,-0.3204,-0.3195,-0.3164,-0.3146,-0.3146,-0.3146,-0.3148,-0.3148,-0.3144,-0.3137,-0.3119,-0.3101,-0.3081,-0.2965,-0.0478,0.1912,0.3641,0.519,0.6519,0.8021,0.9059,1.0027,1.0777,1.1406,1.1986,1.1764,1.1085,1.0735,1.1178,1.1204,1.1366,1.1543,1.1543,1.1543,1.1543,1.1543,1.1543,1.1543,1.1899,1.2254,1.2698,1.3236,1.3768,1.4122,1.4299,1.4299,1.4299,1.4333,1.4346,1.438,1.4401,1.4367,-2.5143,-2.4022,-2.2435,-2.1352,-2.0819,-2.0716,-2.0931,-2.1233,-2.1276,-2.1276,-2.1276,-2.1276,-2.1276,-2.1195,-2.0952,-2.1199,-2.115,-2.0518,-1.9798,-1.9049,-1.8366,-1.7568,-1.7128,-1.6693,-1.6877,-1.6982,-1.7153,-1.7323,-1.7494,-1.7575,-1.7705,-1.7708,-1.7472,-1.6361,-1.5026,-1.3471,-1.2069,-1.0504,-0.9696,-0.9398,-0.9256,-0.9265,-0.9277,-0.933,-0.9346,-0.9375,-0.9399,-0.9432,-0.9436,-0.944,-0.9444,-0.8289,-0.7116,-0.6547,-0.5255,-0.3864,-0.3273,-0.3182,-0.3186,-0.3193,-0.3205,-0.3212,-0.3216,-0.3221,-0.3221,-0.3194,-0.3191,-0.3191,-0.3191,-0.3193,-0.3193,-0.319,-0.3176,-0.3159,-0.2853,-0.2643,-0.0778,0.1936,0.4453,0.6785,0.7952,0.8603,0.992,1.0749,1.1422,1.1436,1.2172,1.2123,1.2015,1.1917,1.1743,1.1601,1.1531,1.1471,1.1543,1.1543,1.1543,1.1543,1.1543,1.1543,1.1543,1.2165,1.2609,1.2964,1.3325,1.3945,1.421,1.4299,1.4299,1.4299,1.4353,1.4407,1.4448,1.4502,1.4516,-2.5003,-2.3779,-2.2343,-2.1478,-2.0946,-2.0899,-2.1039,-2.1254,-2.1276,-2.1276,-2.1276,-2.1276,-2.1276,-2.1033,-2.0669,-2.105,-2.0991,-2.0301,-1.9693,-1.9296,-1.8827,-1.7836,-1.7181,-1.6879,-1.7104,-1.725,-1.7404,-1.7534,-1.7681,-1.7762,-1.776,-1.7564,-1.6524,-1.5106,-1.3691,-1.2341,-1.1018,-1.0034,-0.9403,-0.9424,-0.942,-0.9416,-0.9408,-0.9412,-0.9424,-0.9428,-0.9465,-0.9493,-0.9506,-0.9312,-0.9229,-0.8056,-0.6882,-0.6106,-0.4904,-0.3701,-0.3206,-0.3216,-0.3223,-0.3221,-0.3225,-0.3228,-0.323,-0.323,-0.323,-0.3228,-0.3227,-0.3225,-0.3225,-0.3224,-0.3224,-0.3114,-0.31,-0.2779,-0.2376,-0.1184,0.1764,0.4385,0.6918,0.9464,1.025,1.0805,1.1336,1.2165,1.2308,1.2221,1.215,1.2096,1.2036,1.1949,1.1824,1.1694,1.1596,1.1536,1.1476,1.1543,1.1543,1.1543,1.1543,1.1543,1.1632,1.2254,1.2698,1.2964,1.3413,1.4047,1.4217,1.4299,1.4299,1.434,1.4394,1.4475,1.4584,1.4638,1.4706,-2.3688,-2.2277,-2.1074,-2.0635,-2.0877,-2.091,-2.105,-2.1254,-2.1276,-2.1276,-2.1276,-2.1276,-2.1276,-2.1297,-2.1409,-2.1466,-2.1314,-2.0326,-1.9632,-1.9278,-1.8501,-1.7687,-1.72,-1.7266,-1.7461,-1.7575,-1.7672,-1.7811,-1.7867,-1.7981,-1.7978,-1.7824,-1.6528,-1.512,-1.3632,-1.2176,-1.0698,-0.9815,-0.9493,-0.9518,-0.9493,-0.9481,-0.9465,-0.9481,-0.9518,-0.9567,-0.9612,-0.964,-0.9644,-0.944,-0.8825,-0.7724,-0.662,-0.5623,-0.4516,-0.3715,-0.322,-0.3225,-0.3228,-0.323,-0.323,-0.323,-0.323,-0.323,-0.323,-0.323,-0.3228,-0.3228,-0.3227,-0.3224,-0.3119,-0.3004,-0.2788,-0.1869,-0.1173,0.185,0.4847,0.6861,0.8976,1.0592,1.164,1.1875,1.1893,1.2357,1.2357,1.227,1.2178,1.2129,1.2112,1.2015,1.1906,1.1797,1.1677,1.1558,1.1476,1.146,1.1543,1.1543,1.156,1.1582,1.1849,1.2349,1.2793,1.3222,1.3642,1.4258,1.4333,1.4394,1.4407,1.4455,1.4468,1.4536,1.4672,1.4787,1.4862]}]]